[[{"header":{"parameterUnit":"m.s-1","parameterCategory":1,"la1":31.0,"la2":29.5877,"lo1":-88.7671,"lo2":-86.6584,"dy":0.0162,"dx":0.0185,"nx":115,"ny":88,"refTime":"2024-04-04T06:00:00:Z","depth":0,"parameterNumber":2,"parameterNumberName":"U-component_of_WINDS"},"data":[0.0,0.0,0.0,0.0,0.0,0.0,0.0,0.0,0.0,0.0,0.0,0.0,0.0,0.0,0.0,0.0,0.0,0.0,0.0,0.0,0.0,0.0,0.0,0.0,0.0,0.0,0.0,0.0,0.0,0.0,0.0,0.0,0.0,0.0,0.0,0.0,0.0,0.0,0.0,0.0,0.0,0.0,0.0,0.0,0.0,0.0,0.0,0.0,0.0,0.0,0.0,0.0,0.0,0.0,0.0,0.0,0.0,0.0,0.0,0.0,0.0,0.0,0.0,0.0,0.0,0.0,0.0,0.0,0.0,0.0,0.0,0.0,0.0,0.0,0.0,0.0,0.0,0.0,0.0,0.0,0.0,0.0,0.0,0.0,0.0,0.0,0.0,0.0,0.0,0.0,0.0,0.0,0.0,0.0,0.0,0.0,0.0,0.0,0.0,0.0,0.0,0.0,0.0,0.0,0.0,0.0,0.0,0.0,0.0,0.0,0.0,0.0,0.0,0.0,0.0,0.0,0.0,0.0,0.0,0.0,0.0,0.0,0.0,0.0,0.0,0.0,0.0,0.0,0.0,0.0,0.0,0.0,0.0,0.0,0.0,0.0,0.0,0.0,0.0,0.0,0.0,0.0,0.0,0.0,0.0,0.0,0.0,0.0,0.0,0.0,0.0,0.0,0.0,0.0,0.0,0.0,0.0,0.0,0.0,0.0,0.0,0.0,0.0,0.0,0.0,0.0,0.0,0.0,0.0,0.0,0.0,0.0,0.0,0.0,0.0,0.0,0.0,0.0,0.0,0.0,0.0,0.0,0.0,0.0,0.0,0.0,0.0,0.0,0.0,0.0,0.0,0.0,0.0,0.0,0.0,0.0,0.0,0.0,0.0,0.0,0.0,0.0,0.0,0.0,0.0,0.0,0.0,0.0,0.0,0.0,0.0,0.0,0.0,0.0,0.0,0.0,0.0,0.0,0.0,0.0,0.0,0.0,0.0,0.0,0.0,0.0,0.0,0.0,0.0,0.0,0.0,0.0,0.0,0.0,0.0,0.0,0.0,0.0,0.0,0.0,0.0,0.0,0.0,0.0,0.0,0.0,0.0,0.0,0.0,0.0,0.0,0.0,0.0,0.0,0.0,0.0,0.0,0.0,0.0,0.0,0.0,0.0,0.0,0.0,0.0,0.0,0.0,0.0,0.0,0.0,0.0,0.0,0.0,0.0,0.0,0.0,0.0,0.0,0.0,0.0,0.0,0.0,0.0,0.0,0.0,0.0,0.0,0.0,0.0,0.0,0.0,0.0,0.0,0.0,0.0,0.0,0.0,0.0,0.0,0.0,0.0,0.0,0.0,0.0,0.0,0.0,0.0,0.0,0.0,0.0,0.0,0.0,0.0,0.0,0.0,0.0,0.0,0.0,0.0,0.0,0.0,0.0,0.0,0.0,0.0,0.0,0.0,0.0,0.0,0.0,0.0,0.0,0.0,0.0,0.0,0.0,0.0,0.0,0.0,0.0,0.0,0.0,0.0,0.0,0.0,0.0,0.0,0.0,0.0,0.0,0.0,0.0,0.0,0.0,0.0,0.0,0.0,0.0,0.0,0.0,0.0,0.0,0.0,0.0,0.0,0.0,0.0,0.0,0.0,0.0,0.0,0.0,0.0,0.0,0.0,0.0,0.0,0.0,0.0,0.0,0.0,0.0,0.0,0.0,0.0,0.0,0.0,0.0,0.0,0.0,0.0,0.0,0.0,0.0,0.0,0.0,0.0,0.0,0.0,0.0,0.0,0.0,0.0,0.0,0.0,0.0,0.0,0.0,0.0,0.0,0.0,0.0,0.0,0.0,0.0,0.0,0.0,0.0,0.0,0.0,0.0,0.0,0.0,0.0,0.0,0.0,0.0,0.0,0.0,0.0,0.0,0.0,0.0,0.0,0.0,0.0,0.0,0.0,0.0,0.0,0.0,0.0,0.0,0.0,0.0,0.0,0.0,0.0,0.0,0.0,0.0,0.0,0.0,0.0,0.0,0.0,0.0,0.0,0.0,0.0,0.0,0.0,0.0,0.0,0.0,0.0,0.0,0.0,0.0,0.0,0.0,0.0,0.0,0.0,0.0,0.0,0.0,0.0,0.0,0.0,0.0,0.0,0.0,0.0,0.0,0.0,0.0,0.0,0.0,0.0,0.0,0.0,0.0,0.0,0.0,0.0,0.0,0.0,0.0,0.0,0.0,0.0,0.0,0.0,0.0,0.0,0.0,0.0,0.0,0.0,0.0,0.0,0.0,0.0,0.0,0.0,0.0,0.0,0.0,0.0,0.0,0.0,0.0,0.0,0.0,0.0,0.0,0.0,0.0,0.0,0.0,0.0,0.0,0.0,0.0,0.0,0.0,0.0,0.0,0.0,0.0,0.0,0.0,0.0,0.0,0.0,0.0,0.0,0.0,0.0,0.0,0.0,0.0,0.0,0.0,0.0,0.0,0.0,0.0,0.0,0.0,0.0,0.0,0.0,0.0,0.0,0.0,0.0,0.0,0.0,0.0,0.0,0.0,0.0,0.0,0.0,0.0,0.0,0.0,0.0,0.0,0.0,0.0,0.0,0.0,0.0,0.0,0.0,0.0,0.0,0.0,0.0,0.0,0.0,0.0,0.0,0.0,0.0,0.0,0.0,0.0,0.0,0.0,0.0,0.0,0.0,0.0,0.0,0.0,0.0,0.0,0.0,0.0,0.0,0.0,0.0,0.0,0.0,0.0,0.0,0.0,0.0,0.0,0.0,0.0,0.0,0.0,0.0,0.0,0.0,0.0,0.0,0.0,0.0,0.0,0.0,0.0,0.0,0.0,0.0,0.0,0.0,0.0,0.0,0.0,0.0,0.0,0.0,0.0,0.0,0.0,0.0,0.0,0.0,0.0,0.0,0.0,0.0,0.0,0.0,0.0,0.0,0.0,0.0,0.0,0.0,0.0,0.0,0.0,0.0,0.0,0.0,0.0,0.0,0.0,0.0,0.0,0.0,0.0,0.0,0.0,0.0,0.0,0.0,0.0,0.0,0.0,0.0,0.0,0.0,0.0,0.0,0.0,0.0,0.0,0.0,0.0,0.0,0.0,0.0,0.0,0.0,0.0,0.0,0.0,0.0,0.0,0.0,0.0,0.0,0.0,0.0,0.0,0.0,0.0,0.0,0.0,0.0,0.0,0.0,0.0,0.0,0.0,0.0,0.0,0.0,0.0,0.0,0.0,0.0,0.0,0.0,0.0,0.0,0.0,0.0,0.0,0.0,0.0,0.0,0.0,0.0,0.0,0.0,0.0,0.0,0.0,0.0,0.0,0.0,0.0,0.0,0.0,0.0,0.0,0.0,0.0,0.0,0.0,0.0,0.0,0.0,0.0,0.0,0.0,0.0,0.0,0.0,0.0,0.0,0.0,0.0,0.0,0.0,0.0,0.0,0.0,0.0,0.0,0.0,0.0,0.0,0.0,0.0,0.0,0.0,0.0,0.0,0.0,0.0,0.0,0.0,0.0,0.0,0.0,0.0,0.0,0.0,0.0,0.0,0.0,0.0,0.0,0.0,0.0,0.0,0.0,0.0,0.0,0.0,0.0,0.0,0.0,0.0,0.0,0.0,0.0,0.0,0.0,0.0,0.0,0.0,0.0,0.0,0.0,0.0,0.0,0.0,0.0,0.0,0.0,0.0,0.0,0.0,0.0,0.0,0.0,0.0,0.0,0.0,0.0,0.0,0.0,0.0,0.0,0.0,0.0,0.0,0.0,0.0,0.0,0.0,0.0,0.0,0.0,0.0,0.0,0.0,0.0,0.0,0.0,0.0,0.0,0.0,0.0,0.0,0.0,0.0,0.0,0.0,0.0,0.0,0.0,0.0,0.0,0.0,0.0,0.0,0.0,0.0,0.0,0.0,0.0,0.0,0.0,0.0,0.0,0.0,0.0,0.0,0.0,0.0,0.0,0.0,0.0,0.0,0.0,0.0,0.0,0.0,0.0,0.0,0.0,0.0,0.0,0.0,0.0,0.0,0.0,0.0,0.0,0.0,0.0,0.0,0.0,0.0,0.0,0.0,0.0,0.0,0.0,0.0,0.0,0.0,0.0,0.0,0.0,0.0,0.0,0.0,0.0,0.0,0.0,0.0,0.0,0.0,0.0,0.0,0.0,0.0,0.0,0.0,0.0,0.0,0.0,0.0,0.0,0.0,0.0,0.0,0.0,0.0,0.0,0.0,0.0,0.0,0.0,0.0,0.0,0.0,0.0,0.0,0.0,0.0,0.0,0.0,2.2293,0.0,0.0,0.0,0.0,0.0,0.0,0.0,0.0,0.0,0.0,0.0,0.0,0.0,0.0,0.0,0.0,0.0,0.0,0.0,0.0,0.0,0.0,0.0,0.0,0.0,0.0,0.0,0.0,0.0,0.0,0.0,0.0,0.0,0.0,0.0,0.0,0.0,0.0,0.0,0.0,0.0,0.0,0.0,0.0,0.0,0.0,0.0,0.0,0.0,0.0,0.0,0.0,0.0,0.0,0.0,0.0,0.0,0.0,0.0,0.0,0.0,0.0,0.0,0.0,0.0,0.0,0.0,0.0,0.0,0.0,0.0,0.0,0.0,0.0,0.0,0.0,0.0,0.0,0.0,0.0,0.0,0.0,0.0,0.0,0.0,0.0,0.0,0.0,0.0,0.0,0.0,0.0,0.0,0.0,0.0,0.0,0.0,0.0,0.0,0.0,0.0,0.0,0.0,0.0,0.0,0.0,0.0,0.0,0.0,0.0,2.1055,2.1464,2.1738,2.1915,2.2061,0.0,0.0,0.0,0.0,0.0,0.0,0.0,0.0,0.0,0.0,0.0,0.0,0.0,0.0,0.0,0.0,0.0,0.0,0.0,0.0,0.0,0.0,0.0,0.0,0.0,0.0,0.0,0.0,0.0,0.0,0.0,0.0,0.0,0.0,0.0,0.0,0.0,0.0,0.0,0.0,0.0,0.0,0.0,0.0,0.0,0.0,0.0,0.0,0.0,0.0,0.0,0.0,0.0,0.0,0.0,0.0,0.0,0.0,0.0,0.0,0.0,0.0,0.0,0.0,0.0,0.0,0.0,0.0,0.0,0.0,0.0,0.0,0.0,0.0,0.0,0.0,0.0,0.0,0.0,0.0,0.0,0.0,0.0,0.0,0.0,0.0,0.0,0.0,0.0,0.0,0.0,0.0,0.0,0.0,0.0,0.0,0.0,0.0,0.0,0.0,0.0,0.0,0.0,0.0,0.0,0.0,0.0,0.0,0.0,0.0,0.0,0.0,2.1433,2.1678,2.1853,0.0,0.0,0.0,0.0,0.0,0.0,0.0,0.0,0.0,0.0,0.0,0.0,0.0,0.0,0.0,0.0,0.0,0.0,0.0,0.0,0.0,0.0,0.0,0.0,0.0,0.0,0.0,0.0,0.0,0.0,0.0,0.0,0.0,0.0,0.0,0.0,0.0,0.0,0.0,0.0,0.0,0.0,0.0,0.0,0.0,0.0,0.0,0.0,0.0,0.0,0.0,0.0,0.0,0.0,0.0,0.0,0.0,0.0,0.0,0.0,0.0,0.0,0.0,0.0,0.0,0.0,0.0,0.0,0.0,0.0,0.0,0.0,0.0,0.0,0.0,0.0,0.0,0.0,0.0,0.0,0.0,0.0,0.0,0.0,0.0,0.0,0.0,0.0,0.0,0.0,0.0,0.0,0.0,0.0,0.0,0.0,0.0,0.0,0.0,0.0,0.0,0.0,0.0,0.0,0.0,0.0,0.0,0.0,0.0,0.0,2.0561,2.0827,2.1119,0.0,2.1764,0.0,0.0,0.0,0.0,0.0,0.0,0.0,0.0,0.0,0.0,0.0,0.0,0.0,0.0,0.0,0.0,0.0,0.0,0.0,0.0,0.0,0.0,0.0,0.0,0.0,0.0,0.0,0.0,0.0,0.0,0.0,0.0,0.0,0.0,0.0,0.0,0.0,0.0,0.0,0.0,0.0,0.0,0.0,0.0,0.0,0.0,0.0,0.0,0.0,0.0,0.0,0.0,0.0,0.0,0.0,0.0,0.0,0.0,0.0,0.0,0.0,0.0,0.0,0.0,0.0,0.0,0.0,0.0,0.0,0.0,0.0,0.0,0.0,0.0,0.0,0.0,0.0,0.0,0.0,0.0,0.0,0.0,0.0,0.0,0.0,0.0,0.0,0.0,0.0,0.0,0.0,0.0,0.0,0.0,0.0,0.0,0.0,0.0,0.0,0.0,0.0,0.0,0.0,0.0,0.0,0.0,0.0,0.0,0.0,0.0,2.0289,2.0561,2.0925,2.1277,0.0,0.0,0.0,0.0,0.0,0.0,0.0,0.0,0.0,0.0,0.0,0.0,0.0,0.0,0.0,0.0,0.0,0.0,0.0,0.0,0.0,0.0,0.0,0.0,0.0,0.0,0.0,0.0,0.0,0.0,0.0,0.0,0.0,0.0,0.0,0.0,0.0,0.0,0.0,0.0,0.0,0.0,0.0,0.0,0.0,0.0,0.0,0.0,0.0,0.0,0.0,0.0,0.0,0.0,0.0,0.0,0.0,0.0,0.0,0.0,0.0,0.0,0.0,0.0,0.0,0.0,0.0,0.0,0.0,0.0,0.0,0.0,0.0,0.0,0.0,0.0,0.0,0.0,0.0,0.0,0.0,0.0,0.0,0.0,0.0,0.0,0.0,0.0,0.0,0.0,0.0,0.0,0.0,0.0,0.0,0.0,0.0,0.0,0.0,0.0,0.0,0.0,0.0,0.0,0.0,0.0,0.0,0.0,0.0,0.0,2.005,2.0355,2.0605,2.0856,2.0959,2.0923,0.0,0.0,0.0,0.0,0.0,0.0,0.0,0.0,0.0,0.0,0.0,0.0,0.0,0.0,0.0,0.0,0.0,0.0,0.0,0.0,0.0,0.0,0.0,0.0,0.0,0.0,0.0,0.0,0.0,0.0,0.0,0.0,0.0,0.0,0.0,0.0,0.0,0.0,0.0,0.0,0.0,0.0,0.0,0.0,0.0,0.0,0.0,0.0,0.0,0.0,0.0,0.0,0.0,0.0,0.0,0.0,0.0,0.0,0.0,0.0,0.0,0.0,0.0,0.0,0.0,0.0,0.0,0.0,0.0,0.0,0.0,0.0,0.0,0.0,0.0,0.0,0.0,0.0,0.0,0.0,0.0,0.0,0.0,0.0,0.0,0.0,0.0,0.0,0.0,0.0,0.0,0.0,0.0,0.0,0.0,0.0,0.0,0.0,0.0,0.0,0.0,0.0,0.0,0.0,0.0,0.0,0.0,0.0,1.9726,2.0362,2.0879,2.1105,2.0805,2.038,0.0,0.0,0.0,0.0,0.0,0.0,0.0,0.0,0.0,0.0,0.0,0.0,0.0,0.0,0.0,0.0,0.0,0.0,0.0,0.0,0.0,0.0,0.0,0.0,0.0,0.0,0.0,0.0,0.0,0.0,0.0,0.0,0.0,0.0,0.0,0.0,0.0,0.0,0.0,0.0,0.0,0.0,0.0,0.0,0.0,0.0,0.0,0.0,0.0,0.0,0.0,0.0,0.0,0.0,0.0,0.0,0.0,0.0,0.0,0.0,0.0,0.0,0.0,0.0,0.0,0.0,0.0,0.0,0.0,0.0,0.0,0.0,0.0,0.0,0.0,0.0,0.0,0.0,0.0,0.0,0.0,0.0,0.0,0.0,0.0,0.0,0.0,0.0,0.0,0.0,0.0,0.0,0.0,0.0,0.0,0.0,0.0,0.0,0.0,0.0,0.0,0.0,0.0,0.0,0.0,0.0,0.0,0.0,0.0,1.9756,2.0002,2.0195,2.0303,2.0308,2.0017,0.0,0.0,0.0,0.0,0.0,0.0,0.0,0.0,0.0,0.0,0.0,0.0,0.0,0.0,0.0,0.0,0.0,0.0,0.0,0.0,0.0,0.0,0.0,0.0,0.0,0.0,0.0,0.0,0.0,0.0,0.0,0.0,0.0,0.0,0.0,0.0,0.0,0.0,0.0,0.0,0.0,0.0,0.0,0.0,0.0,0.0,0.0,0.0,0.0,0.0,0.0,0.0,0.0,0.0,0.0,0.0,0.0,0.0,0.0,0.0,0.0,0.0,0.0,0.0,0.0,0.0,0.0,0.0,0.0,0.0,0.0,0.0,0.0,0.0,0.0,0.0,0.0,0.0,0.0,0.0,0.0,0.0,0.0,0.0,0.0,0.0,0.0,0.0,0.0,0.0,0.0,0.0,0.0,0.0,0.0,0.0,0.0,0.0,0.0,0.0,0.0,0.0,0.0,0.0,0.0,0.0,0.0,0.0,0.0,2.0318,0.0,2.0459,2.0429,2.0364,1.9897,0.0,0.0,0.0,0.0,0.0,0.0,0.0,0.0,0.0,0.0,0.0,0.0,0.0,0.0,0.0,0.0,0.0,0.0,0.0,0.0,0.0,0.0,0.0,0.0,0.0,0.0,0.0,0.0,0.0,0.0,0.0,0.0,0.0,0.0,0.0,0.0,0.0,0.0,0.0,0.0,0.0,0.0,0.0,0.0,0.0,0.0,0.0,0.0,0.0,0.0,0.0,0.0,0.0,0.0,0.0,0.0,0.0,0.0,0.0,0.0,0.0,0.0,0.0,0.0,0.0,0.0,0.0,0.0,0.0,0.0,0.0,0.0,0.0,0.0,0.0,0.0,0.0,0.0,0.0,0.0,0.0,0.0,0.0,0.0,0.0,0.0,0.0,0.0,0.0,0.0,0.0,0.0,0.0,0.0,0.0,0.0,0.0,0.0,0.0,0.0,0.0,0.0,0.0,0.0,0.0,0.0,0.0,0.0,2.0266,2.1605,2.1665,2.1674,2.1753,2.1159,1.9959,0.0,0.0,0.0,0.0,0.0,0.0,0.0,0.0,0.0,0.0,0.0,0.0,0.0,0.0,0.0,0.0,0.0,0.0,0.0,0.0,0.0,0.0,0.0,0.0,0.0,0.0,0.0,0.0,0.0,0.0,0.0,0.0,0.0,0.0,0.0,0.0,0.0,0.0,0.0,0.0,0.0,0.0,0.0,0.0,0.0,0.0,0.0,0.0,0.0,0.0,0.0,0.0,0.0,0.0,0.0,0.0,0.0,0.0,0.0,0.0,0.0,0.0,0.0,0.0,0.0,0.0,0.0,0.0,0.0,0.0,0.0,0.0,0.0,0.0,0.0,0.0,0.0,0.0,0.0,0.0,0.0,0.0,0.0,0.0,0.0,0.0,0.0,0.0,0.0,0.0,0.0,0.0,0.0,0.0,0.0,0.0,0.0,0.0,0.0,0.0,0.0,0.0,0.0,0.0,0.0,0.0,0.0,0.0,0.0,2.1495,2.1992,2.2312,2.2394,2.1764,2.0723,0.0,0.0,0.0,0.0,0.0,0.0,0.0,0.0,0.0,0.0,0.0,0.0,0.0,0.0,0.0,0.0,0.0,0.0,0.0,0.0,0.0,0.0,0.0,0.0,0.0,0.0,0.0,0.0,0.0,0.0,0.0,0.0,0.0,0.0,0.0,0.0,0.0,0.0,0.0,0.0,0.0,0.0,0.0,0.0,0.0,0.0,0.0,0.0,0.0,0.0,0.0,0.0,0.0,0.0,0.0,0.0,0.0,0.0,0.0,0.0,0.0,0.0,0.0,0.0,0.0,0.0,0.0,0.0,0.0,0.0,0.0,0.0,0.0,0.0,0.0,0.0,0.0,0.0,0.0,0.0,0.0,0.0,0.0,0.0,0.0,0.0,0.0,0.0,0.0,0.0,0.0,0.0,0.0,0.0,0.0,0.0,0.0,0.0,0.0,0.0,0.0,0.0,0.0,0.0,0.0,0.0,0.0,0.0,0.0,2.2624,2.333,2.3644,2.3584,2.3003,2.1894,2.0139,0.0,0.0,0.0,0.0,0.0,0.0,0.0,0.0,0.0,0.0,0.0,0.0,0.0,0.0,0.0,0.0,0.0,0.0,0.0,0.0,0.0,0.0,0.0,0.0,0.0,0.0,0.0,0.0,0.0,0.0,0.0,0.0,0.0,0.0,0.0,0.0,0.0,0.0,0.0,0.0,0.0,0.0,0.0,0.0,0.0,0.0,0.0,0.0,0.0,0.0,0.0,0.0,0.0,0.0,0.0,0.0,0.0,0.0,0.0,0.0,0.0,0.0,0.0,0.0,0.0,0.0,0.0,0.0,0.0,0.0,0.0,0.0,0.0,0.0,0.0,0.0,0.0,0.0,0.0,0.0,0.0,0.0,0.0,0.0,0.0,0.0,0.0,0.0,0.0,0.0,0.0,0.0,0.0,0.0,0.0,0.0,0.0,0.0,0.0,0.0,0.0,0.0,0.0,0.0,0.0,0.0,0.0,0.0,2.4799,2.5464,2.5669,2.5345,2.4781,2.3347,0.0,0.0,0.0,0.0,0.0,0.0,0.0,0.0,0.0,0.0,0.0,0.0,0.0,0.0,0.0,0.0,0.0,0.0,0.0,0.0,0.0,0.0,0.0,0.0,0.0,0.0,0.0,0.0,0.0,0.0,0.0,0.0,0.0,0.0,0.0,0.0,0.0,0.0,0.0,0.0,0.0,0.0,0.0,0.0,0.0,0.0,0.0,0.0,0.0,0.0,0.0,0.0,0.0,0.0,0.0,0.0,0.0,0.0,0.0,0.0,0.0,0.0,0.0,0.0,0.0,0.0,0.0,0.0,0.0,0.0,0.0,0.0,0.0,0.0,0.0,0.0,0.0,0.0,0.0,0.0,0.0,0.0,0.0,0.0,0.0,0.0,0.0,0.0,0.0,0.0,0.0,0.0,0.0,0.0,0.0,0.0,0.0,0.0,0.0,0.0,0.0,0.0,0.0,0.0,0.0,0.0,0.0,0.0,0.0,2.5792,2.7281,2.7877,2.7744,2.6503,2.4862,0.0,0.0,0.0,0.0,0.0,0.0,0.0,0.0,0.0,0.0,0.0,0.0,0.0,0.0,0.0,0.0,0.0,0.0,0.0,0.0,0.0,0.0,0.0,0.0,0.0,0.0,0.0,0.0,0.0,0.0,0.0,0.0,0.0,0.0,0.0,0.0,0.0,0.0,0.0,0.0,0.0,0.0,0.0,0.0,0.0,0.0,0.0,0.0,0.0,0.0,0.0,0.0,0.0,0.0,0.0,0.0,0.0,0.0,0.0,0.0,0.0,0.0,0.0,0.0,0.0,0.0,0.0,0.0,0.0,0.0,0.0,0.0,0.0,0.0,0.0,0.0,0.0,0.0,0.0,0.0,0.0,0.0,0.0,0.0,0.0,0.0,0.0,0.0,0.0,0.0,0.0,0.0,0.0,0.0,0.0,0.0,0.0,0.0,0.0,0.0,0.0,0.0,0.0,0.0,0.0,0.0,0.0,0.0,2.3618,2.6453,2.8621,2.9859,3.0107,2.8301,2.6238,0.0,0.0,0.0,0.0,0.0,0.0,0.0,0.0,0.0,0.0,0.0,0.0,0.0,0.0,0.0,0.0,0.0,0.0,0.0,0.0,0.0,0.0,0.0,0.0,0.0,0.0,0.0,0.0,0.0,0.0,0.0,0.0,0.0,0.0,0.0,0.0,0.0,0.0,0.0,0.0,0.0,0.0,0.0,0.0,0.0,0.0,0.0,0.0,0.0,0.0,0.0,0.0,0.0,0.0,0.0,0.0,0.0,0.0,0.0,0.0,0.0,0.0,0.0,0.0,0.0,0.0,0.0,0.0,0.0,0.0,0.0,0.0,0.0,0.0,0.0,0.0,0.0,0.0,0.0,0.0,0.0,0.0,0.0,0.0,0.0,0.0,0.0,0.0,0.0,0.0,0.0,0.0,0.0,0.0,0.0,0.0,0.0,0.0,0.0,0.0,0.0,0.0,0.0,0.0,0.0,0.0,0.0,0.0,2.4413,2.6687,2.9449,3.1162,3.1709,2.985,2.7453,0.0,0.0,0.0,0.0,0.0,0.0,0.0,0.0,0.0,0.0,0.0,0.0,0.0,0.0,0.0,0.0,0.0,0.0,0.0,0.0,0.0,0.0,0.0,0.0,0.0,0.0,0.0,0.0,0.0,0.0,0.0,0.0,0.0,0.0,0.0,0.0,0.0,0.0,0.0,0.0,0.0,0.0,0.0,0.0,0.0,0.0,0.0,0.0,0.0,0.0,0.0,0.0,0.0,0.0,0.0,0.0,0.0,0.0,0.0,0.0,0.0,0.0,0.0,0.0,0.0,0.0,0.0,0.0,0.0,0.0,0.0,0.0,0.0,0.0,0.0,0.0,0.0,0.0,0.0,0.0,0.0,0.0,0.0,0.0,0.0,0.0,0.0,0.0,0.0,0.0,0.0,0.0,0.0,0.0,0.0,0.0,0.0,0.0,0.0,0.0,0.0,0.0,0.0,0.0,0.0,0.0,0.0,0.0,2.4038,2.6677,2.8924,3.0276,3.0637,2.9561,2.8081,0.0,0.0,0.0,0.0,0.0,0.0,0.0,0.0,0.0,0.0,0.0,0.0,0.0,0.0,0.0,0.0,0.0,0.0,0.0,0.0,0.0,0.0,0.0,0.0,0.0,0.0,0.0,0.0,0.0,0.0,0.0,0.0,0.0,0.0,0.0,0.0,0.0,0.0,0.0,0.0,0.0,0.0,0.0,0.0,0.0,0.0,0.0,0.0,2.0498,0.0,0.0,0.0,0.0,0.0,0.0,0.0,0.0,0.0,0.0,0.0,0.0,0.0,0.0,0.0,0.0,0.0,0.0,0.0,0.0,0.0,0.0,0.0,0.0,0.0,0.0,0.0,0.0,0.0,0.0,0.0,0.0,0.0,0.0,0.0,0.0,0.0,0.0,0.0,0.0,0.0,0.0,0.0,0.0,0.0,0.0,0.0,0.0,0.0,0.0,0.0,0.0,0.0,0.0,0.0,0.0,0.0,0.0,0.0,2.4328,2.6407,2.84,2.9578,2.9861,2.8812,2.7566,0.0,0.0,0.0,0.0,0.0,0.0,0.0,0.0,0.0,0.0,0.0,0.0,0.0,0.0,0.0,0.0,0.0,0.0,0.0,0.0,0.0,0.0,0.0,0.0,0.0,0.0,0.0,0.0,0.0,0.0,0.0,0.0,0.0,0.0,0.0,0.0,0.0,0.0,0.0,0.0,0.0,0.0,0.0,0.0,0.0,0.0,0.0,0.0,0.0,0.0,0.0,0.0,0.0,0.0,0.0,0.0,0.0,0.0,0.0,0.0,0.0,0.0,0.0,0.0,0.0,0.0,0.0,0.0,0.0,0.0,0.0,0.0,0.0,0.0,0.0,0.0,0.0,0.0,0.0,0.0,0.0,0.0,0.0,0.0,0.0,0.0,0.0,0.0,0.0,0.0,0.0,0.0,0.0,0.0,0.0,0.0,0.0,0.0,0.0,0.0,0.0,0.0,0.0,0.0,0.0,0.0,0.0,2.2427,2.4567,2.592,2.7835,2.8966,2.9174,2.7971,2.6628,2.5244,0.0,0.0,0.0,0.0,0.0,0.0,0.0,0.0,0.0,0.0,0.0,0.0,0.0,0.0,0.0,0.0,0.0,0.0,0.0,0.0,0.0,0.0,0.0,0.0,0.0,0.0,0.0,0.0,0.0,0.0,0.0,0.0,0.0,0.0,0.0,0.0,0.0,0.0,2.0122,2.1417,0.0,0.0,0.0,0.0,0.0,0.0,0.0,0.0,2.1844,0.0,0.0,0.0,0.0,0.0,0.0,0.0,0.0,0.0,0.0,0.0,0.0,0.0,0.0,0.0,0.0,0.0,0.0,0.0,0.0,0.0,0.0,0.0,0.0,0.0,0.0,0.0,0.0,0.0,0.0,0.0,0.0,0.0,0.0,0.0,0.0,0.0,0.0,0.0,0.0,0.0,0.0,0.0,0.0,0.0,0.0,0.0,0.0,0.0,0.0,0.0,0.0,0.0,0.0,0.0,0.0,1.9435,2.1664,2.3582,2.5224,2.6962,2.7925,2.7964,2.7197,2.5844,2.3949,0.0,0.0,0.0,0.0,0.0,0.0,0.0,0.0,0.0,0.0,0.0,0.0,0.0,0.0,0.0,0.0,0.0,0.0,0.0,0.0,0.0,0.0,0.0,0.0,0.0,0.0,0.0,0.0,0.0,0.0,0.0,0.0,0.0,0.0,0.0,0.0,0.0,0.0,0.0,2.2957,2.348,0.0,0.0,0.0,0.0,0.0,0.0,0.0,0.0,2.2503,0.0,0.0,0.0,0.0,0.0,0.0,0.0,0.0,0.0,0.0,0.0,0.0,0.0,0.0,0.0,0.0,0.0,0.0,0.0,0.0,0.0,0.0,0.0,0.0,0.0,0.0,0.0,0.0,0.0,0.0,0.0,0.0,0.0,0.0,0.0,0.0,0.0,0.0,0.0,0.0,0.0,0.0,0.0,0.0,0.0,0.0,0.0,0.0,0.0,0.0,0.0,0.0,0.0,0.0,0.0,1.9157,2.1528,2.3326,2.4557,2.6049,2.6772,2.6581,2.5733,2.4369,0.0,0.0,0.0,0.0,0.0,0.0,0.0,0.0,0.0,0.0,0.0,0.0,0.0,0.0,0.0,0.0,0.0,0.0,0.0,0.0,0.0,0.0,0.0,0.0,0.0,0.0,0.0,0.0,0.0,0.0,0.0,0.0,0.0,0.0,0.0,0.0,0.0,0.0,0.0,0.0,2.3563,2.4312,2.4597,0.0,0.0,0.0,0.0,0.0,0.0,2.4418,2.4088,0.0,0.0,0.0,0.0,0.0,0.0,0.0,0.0,0.0,0.0,0.0,0.0,0.0,0.0,0.0,0.0,0.0,0.0,0.0,0.0,0.0,0.0,0.0,0.0,0.0,0.0,0.0,0.0,0.0,0.0,0.0,0.0,0.0,0.0,0.0,0.0,0.0,0.0,0.0,0.0,0.0,0.0,0.0,0.0,0.0,0.0,0.0,0.0,0.0,0.0,0.0,0.0,0.0,0.0,0.0,1.8857,2.1398,2.3155,2.4003,2.5278,2.5813,2.5383,2.4296,2.2944,0.0,0.0,0.0,0.0,0.0,0.0,0.0,0.0,0.0,0.0,0.0,0.0,0.0,0.0,0.0,0.0,0.0,0.0,0.0,0.0,0.0,0.0,0.0,0.0,0.0,0.0,0.0,0.0,0.0,0.0,0.0,0.0,0.0,0.0,0.0,0.0,0.0,0.0,0.0,0.0,0.0,2.5255,2.5914,2.5076,0.0,0.0,0.0,0.0,2.6512,2.6243,0.0,0.0,0.0,0.0,0.0,0.0,0.0,0.0,0.0,0.0,0.0,0.0,0.0,0.0,0.0,0.0,0.0,0.0,0.0,0.0,0.0,0.0,0.0,0.0,0.0,0.0,0.0,0.0,0.0,0.0,0.0,0.0,0.0,0.0,0.0,0.0,0.0,0.0,0.0,0.0,0.0,0.0,0.0,0.0,0.0,0.0,0.0,0.0,0.0,0.0,0.0,0.0,0.0,0.0,0.0,0.0,1.8577,2.1026,2.2696,2.3566,2.4847,2.52,2.4601,2.3615,2.2048,0.0,0.0,0.0,0.0,0.0,0.0,0.0,0.0,0.0,0.0,0.0,0.0,0.0,0.0,0.0,0.0,0.0,0.0,0.0,0.0,0.0,0.0,0.0,0.0,0.0,0.0,0.0,0.0,0.0,0.0,0.0,0.0,0.0,0.0,0.0,0.0,0.0,0.0,0.0,0.0,0.0,2.6602,2.726,2.725,2.7171,0.0,0.0,2.6512,2.735,2.6901,0.0,0.0,0.0,0.0,0.0,0.0,0.0,0.0,0.0,0.0,0.0,0.0,0.0,0.0,0.0,0.0,0.0,0.0,0.0,0.0,0.0,0.0,0.0,0.0,0.0,0.0,0.0,0.0,0.0,0.0,0.0,0.0,0.0,0.0,0.0,0.0,0.0,0.0,0.0,0.0,0.0,0.0,0.0,0.0,0.0,0.0,0.0,0.0,0.0,0.0,0.0,0.0,0.0,0.0,0.0,1.6569,1.8211,2.0907,2.2618,2.3346,2.4576,2.4973,2.4378,2.2752,2.0928,0.0,0.0,0.0,0.0,0.0,0.0,0.0,0.0,0.0,0.0,0.0,0.0,0.0,0.0,0.0,0.0,0.0,0.0,0.0,0.0,0.0,0.0,0.0,0.0,0.0,0.0,0.0,0.0,0.0,0.0,0.0,0.0,0.0,0.0,0.0,0.0,0.0,0.0,0.0,0.0,0.0,0.0,2.7906,2.8158,0.0,0.0,0.0,2.8218,2.9594,0.0,0.0,0.0,0.0,0.0,0.0,0.0,0.0,0.0,0.0,0.0,0.0,0.0,0.0,0.0,0.0,0.0,0.0,0.0,0.0,0.0,0.0,0.0,0.0,0.0,0.0,0.0,0.0,0.0,0.0,0.0,0.0,0.0,0.0,0.0,0.0,0.0,0.0,0.0,0.0,0.0,0.0,0.0,0.0,0.0,0.0,0.0,0.0,0.0,0.0,0.0,0.0,0.0,0.0,0.0,0.0,0.0,1.776,2.0673,2.2562,2.3184,2.4388,2.4766,2.4164,2.2115,0.0,0.0,0.0,0.0,0.0,0.0,0.0,0.0,0.0,0.0,0.0,0.0,0.0,0.0,0.0,0.0,0.0,0.0,0.0,0.0,0.0,0.0,0.0,0.0,0.0,0.0,0.0,0.8401,0.0,0.0,0.0,0.0,0.0,0.0,0.0,0.0,0.0,0.0,0.0,0.0,0.0,0.0,2.6953,2.868,2.8961,2.9391,0.0,0.0,2.9924,3.1452,3.0821,2.9953,0.0,0.0,0.0,0.0,0.0,0.0,0.0,0.0,0.0,0.0,0.0,0.0,0.0,0.0,0.0,0.0,0.0,0.0,0.0,0.0,0.0,0.0,0.0,0.0,0.0,0.0,0.0,0.0,0.0,0.0,0.0,0.0,0.0,0.0,0.0,0.0,0.0,0.0,0.0,0.0,0.0,0.0,0.0,0.0,0.0,0.0,0.0,0.0,0.0,0.0,0.0,0.0,0.0,0.0,0.0,1.7264,2.0267,2.2154,2.292,2.399,2.4262,2.3635,2.1956,1.9725,0.0,0.0,0.0,0.0,0.0,0.0,0.0,0.0,0.0,0.0,0.0,0.0,0.0,0.0,0.0,0.0,0.0,0.0,0.0,0.0,0.0,0.0,0.0,0.0,0.0,0.0,0.0,0.0,0.0,0.0,0.0,0.0,0.0,0.0,0.0,0.0,0.0,0.0,0.0,0.0,0.0,2.7494,2.9987,3.0249,3.0832,0.0,0.0,3.1599,3.2347,3.1869,3.0944,2.961,0.0,0.0,0.0,0.0,0.0,0.0,0.0,0.0,0.0,0.0,0.0,0.0,0.0,0.0,0.0,0.0,0.0,0.0,0.0,0.0,0.0,0.0,0.0,0.0,0.0,0.0,0.0,0.0,0.0,0.0,0.0,0.0,0.0,0.0,0.0,0.0,0.0,0.0,0.0,0.0,0.0,0.0,0.0,0.0,0.0,0.0,0.0,0.0,0.0,0.0,0.0,0.0,0.0,1.4645,1.6493,1.9361,2.1254,2.2022,2.3246,2.3987,2.4116,2.1686,1.8954,0.0,0.0,0.0,0.0,0.0,0.0,0.0,0.0,0.0,0.0,0.0,0.0,0.0,0.0,0.0,0.0,0.0,0.0,0.0,0.0,0.0,0.0,0.0,0.0,0.0,0.0,0.0,0.0,0.8447,0.8945,0.9665,0.0,0.0,0.0,0.0,0.0,0.0,0.0,0.0,0.0,0.0,2.736,2.9553,3.0758,0.0,0.0,3.2638,3.2672,3.3324,3.2524,3.1605,3.0984,2.8793,0.0,0.0,0.0,0.0,0.0,0.0,0.0,0.0,0.0,0.0,0.0,0.0,0.0,0.0,0.0,0.0,0.0,0.0,0.0,0.0,0.0,0.0,0.0,0.0,0.0,0.0,0.0,0.0,0.0,0.0,0.0,0.0,0.0,0.0,0.0,0.0,0.0,0.0,0.0,0.0,0.0,0.0,0.0,0.0,0.0,0.0,0.0,0.0,0.0,0.0,0.0,0.0,1.3793,1.5628,1.8458,2.0373,2.1262,2.2549,2.3384,2.3758,2.1336,1.8625,0.0,0.0,0.0,0.0,0.0,0.0,0.0,0.0,0.0,0.0,0.0,0.0,0.0,0.0,0.0,0.0,0.0,0.0,0.0,0.0,0.0,0.0,0.0,0.0,0.0,0.0,0.0,0.0,0.836,0.8871,0.957,0.0,0.0,0.0,0.0,0.0,0.0,0.0,0.0,0.0,0.0,2.6774,2.8985,3.0629,3.1857,3.2622,3.2861,3.3112,3.3615,3.2859,3.2009,3.1445,0.0,0.0,0.0,0.0,0.0,0.0,0.0,0.0,0.0,0.0,0.0,0.0,0.0,0.0,0.0,0.0,0.0,0.0,0.0,0.0,0.0,0.0,0.0,0.0,0.0,0.0,0.0,0.6512,0.0,0.0,0.6597,0.0,0.0,0.0,0.0,0.0,0.0,0.0,0.0,0.0,0.0,0.0,0.0,0.0,0.0,0.0,0.0,0.0,0.0,0.0,0.0,0.0,0.0,1.3257,1.4826,1.7681,1.9613,2.0605,2.191,2.2534,2.2329,2.0968,1.9023,1.6328,0.0,0.0,0.0,0.0,0.0,0.0,0.0,0.0,0.0,0.0,0.0,0.0,0.0,0.0,0.0,0.0,0.0,0.0,0.0,0.0,0.0,0.0,0.0,0.0,0.0,0.0,0.7696,0.8242,0.8672,0.0,0.0,0.0,0.0,0.0,0.0,0.0,0.0,0.0,0.0,2.3732,2.575,2.8516,2.9816,3.0993,3.2611,3.2817,3.2854,3.3082,3.2731,3.2019,0.0,0.0,0.0,0.0,0.0,0.0,0.0,0.0,0.0,0.0,0.0,0.0,0.0,0.0,0.0,0.0,0.0,0.0,0.0,0.0,0.0,0.0,0.0,0.0,0.0,0.0,0.0,0.4911,0.5157,0.0,0.0,0.0,0.0,0.0,0.0,0.0,0.0,0.0,0.0,0.0,0.9606,0.9842,0.0,0.0,0.0,0.0,0.0,0.0,0.0,0.0,0.0,0.0,0.0,0.0,1.2216,1.4184,1.6319,1.7968,1.9108,2.0235,2.0798,2.0819,1.9697,1.7901,1.5541,0.0,0.0,0.0,0.0,0.0,0.0,0.0,0.0,0.0,0.0,0.0,0.0,0.0,0.0,0.0,0.0,0.0,0.0,0.0,0.0,0.0,0.0,0.0,0.0,0.0,0.7206,0.0,0.0,0.0,0.0,0.0,0.0,0.0,0.0,0.0,0.0,0.0,1.8464,2.0532,2.275,2.5085,2.7286,2.887,3.0325,0.0,0.0,0.0,0.0,0.0,0.0,0.0,0.0,0.0,0.0,0.0,0.0,0.0,0.0,2.3956,2.2554,2.177,2.1216,2.0725,0.0,0.0,0.0,0.0,0.0,0.0,0.0,0.0,0.0,0.0,0.0,0.0,0.0,0.0,0.3903,0.0,0.3577,0.0,0.0,0.0,0.0,0.0,0.0,0.0,0.0,0.7102,0.7865,0.8974,0.9034,0.933,0.0,0.9394,0.9051,0.0,0.0,0.0,0.0,0.0,0.0,0.0,0.0,1.1373,1.3283,1.5155,1.6685,1.7859,1.8801,1.9325,1.9344,1.8138,1.6656,1.4862,1.3074,1.1884,0.0,0.0,0.0,0.0,0.0,0.0,0.0,0.0,0.0,0.0,0.0,0.0,0.0,0.0,0.0,0.0,0.0,0.0,0.0,0.0,0.0,0.0,0.0,0.6827,0.0,0.0,0.0,0.0,0.0,0.0,0.0,0.0,0.0,1.4025,1.6075,1.8029,1.9521,2.1824,2.395,2.5661,0.0,0.0,0.0,0.0,0.0,0.0,0.0,3.1178,3.1205,3.0373,2.9432,2.8912,2.7804,2.6685,2.5747,0.0,0.0,2.3239,2.2413,2.1789,2.1295,2.1403,2.1544,2.1342,2.1598,2.1929,0.0,0.0,0.0,0.0,0.0,0.0,0.0,0.0,0.3586,0.3103,0.0,0.2054,0.0,0.0,0.0,0.0,0.0,0.3623,0.0,0.0,0.5504,0.6701,0.7778,0.8008,0.8627,0.9442,0.8867,0.8654,0.8863,0.8184,0.0,0.0,0.0,0.0,0.0,0.0,1.0795,1.2108,1.4253,1.5865,1.6774,1.7534,1.7941,1.7888,1.6475,1.5279,1.4407,1.3055,1.1947,1.1014,1.0137,0.0,0.0,0.0,0.0,0.0,0.0,0.0,0.0,0.0,0.0,0.0,0.0,0.0,0.0,0.0,0.0,0.0,0.0,0.0,0.0,0.6018,0.0,0.0,0.0,0.0,0.0,0.0,0.0,0.0,0.0,0.0,1.4015,1.5642,1.7175,1.8867,0.0,0.0,0.0,0.0,2.6603,2.7475,2.8536,2.9474,3.0114,3.0229,3.0256,3.0283,0.0,0.0,2.8718,2.7857,2.694,2.6008,2.5062,2.4263,2.3366,2.2934,2.2455,2.1753,2.1883,2.223,2.2574,2.2665,2.2847,0.4024,0.0,0.0,0.0,0.0,0.0135,-0.0069,0.0503,0.0641,0.0495,0.014,-0.0,0.0,0.0,0.0,0.0,0.0,0.0,0.1424,0.1693,0.3142,0.4584,0.5936,0.644,0.7109,0.7753,0.7501,0.7355,0.7368,0.6965,0.6903,0.7101,0.0,0.0,0.0,0.0,0.9645,1.106,1.2585,1.374,1.4592,1.5219,1.5435,1.4972,1.4283,1.353,1.2882,1.1905,1.1145,1.0594,0.9616,0.0,0.0,0.0,0.0,0.0,0.0,0.0,0.0,0.0,0.0,0.0,0.0,0.0,0.0,0.0,0.0,0.0,0.0,0.0,0.5266,0.5777,0.6155,0.0,0.0,0.0,0.0,0.0,0.0,0.0,0.0,0.0,1.2087,1.4115,1.5899,0.0,0.0,2.0763,2.1997,2.3353,2.466,2.567,2.6685,0.0,2.8426,2.8934,2.9372,2.9667,2.9294,2.8763,2.8065,2.7212,2.6171,2.5112,2.4326,2.3486,2.2801,2.2601,2.2388,2.2101,2.239,2.2629,2.2606,2.2858,2.3089,-0.0,0.0902,0.3866,0.2961,-0.0615,-0.3301,-0.3797,-0.2675,-0.2585,-0.2551,-0.2501,-0.2691,-0.262,-0.2528,-0.2321,0.0,0.0,0.0,-0.0624,-0.0878,0.0846,0.2536,0.3974,0.4687,0.5457,0.6362,0.6235,0.6172,0.6331,0.5917,0.6201,0.695,0.0,0.0,0.6302,0.7154,0.8371,0.9938,1.1108,1.2155,1.2934,1.3383,1.3422,1.2889,1.2361,1.1955,1.1625,1.0767,1.02,0.9962,0.8989,0.8124,0.0,0.0,0.0,0.0,0.0,0.0,0.0,0.0,0.0,0.0,0.0,0.4223,0.0,0.0,0.0,0.0,0.446,0.4741,0.5166,0.5578,0.0,0.0,0.0,0.0,0.0,0.0,0.0,0.8242,0.8805,0.9611,1.0711,1.233,1.4043,1.577,1.7657,1.9268,2.0326,0.0,2.2663,2.3827,2.47,2.5525,2.6356,2.7035,2.7591,2.8203,2.7779,2.7458,2.7067,2.6197,2.5179,2.4259,2.3327,2.2575,2.1913,2.1631,2.1684,2.2062,2.2373,2.2501,2.2571,2.2826,2.3026,-0.4095,-0.4258,-0.035,-0.0085,-0.2547,-0.6344,-0.7118,-0.5791,-0.5706,-0.5526,-0.5159,-0.5387,-0.5089,-0.4336,-0.4114,0.0,-0.2689,-0.2066,-0.2302,-0.3144,-0.1272,0.0461,0.212,0.2762,0.3734,0.5087,0.499,0.5196,0.5507,0.5025,0.5425,0.6669,0.6424,0.6225,0.6272,0.6268,0.7064,0.8729,0.9829,1.0827,1.1674,1.1877,1.1767,1.1423,1.0721,1.0416,1.0522,0.9591,0.9091,0.9028,0.8122,0.7306,0.6648,0.0,0.0,0.0,0.0,0.0,0.0,0.0,0.0,0.0,0.0,0.0,0.0,0.0,0.0,0.0,0.4495,0.0,0.5114,0.5269,0.0,0.0,0.0,0.6242,0.6544,0.6674,0.7126,0.7835,0.0,0.0,0.9633,1.048,1.1913,1.4394,1.6315,1.7782,1.8822,1.9797,2.084,2.1841,2.2669,2.3434,2.4166,2.4829,2.5445,2.5988,2.5612,2.5318,2.5447,2.4792,2.387,2.3061,2.2131,2.1322,2.0829,2.0358,2.0397,2.1479,2.1744,2.1961,2.2292,2.2397,2.2403,-0.6918,-0.6432,-0.5045,-0.4545,-0.4798,-0.6593,-0.6885,-0.6093,-0.5841,-0.5829,-0.5849,-0.5745,-0.5618,-0.5398,-0.5241,-0.4806,-0.4151,-0.4004,-0.4101,-0.4286,-0.2709,-0.1406,-0.0277,0.0924,0.192,0.2777,0.3565,0.3791,0.3635,0.3357,0.3846,0.4978,0.5484,0.5728,0.5752,0.5801,0.6257,0.7122,0.8023,0.8837,0.9666,0.9755,0.9604,0.9249,0.9018,0.8687,0.8309,0.8174,0.7881,0.7526,0.7115,0.6683,0.6206,0.5624,0.0,0.0,0.0,0.0,0.0,0.0,0.0,0.0,0.0,0.3828,0.3724,0.0,0.4094,0.0,0.4556,0.4968,0.5301,0.5459,0.0,0.0,0.6082,0.6284,0.6353,0.6805,0.7146,0.7519,0.7978,0.8424,0.8985,0.9697,1.0448,1.1508,1.3756,1.5589,1.6373,1.7584,1.8813,1.9814,2.0857,2.1826,2.2224,2.2853,2.3403,2.3629,2.3561,2.3395,2.3079,2.2326,2.1462,2.068,2.0093,1.9689,1.94,1.9405,1.9509,1.9872,2.0233,2.0553,2.0648,2.0766,2.0798,-0.9011,-0.8126,-0.7447,-0.6941,-0.6623,-0.7235,-0.7216,-0.6727,-0.6671,-0.6765,-0.6781,-0.6505,-0.6331,-0.6294,-0.6093,-0.5798,-0.5442,-0.5556,-0.5583,-0.5412,-0.3933,-0.2769,-0.1873,-0.0742,0.0183,0.1077,0.1703,0.2049,0.22,0.2239,0.2796,0.3768,0.4421,0.455,0.4033,0.4528,0.5121,0.5885,0.6729,0.7472,0.7999,0.8033,0.7961,0.7807,0.7555,0.7307,0.7067,0.6969,0.6757,0.653,0.6201,0.5887,0.5626,0.5147,0.4877,0.0,0.0,0.0,0.0,0.0,0.0,0.0,0.0,0.0,0.0,0.0,0.386,0.4036,0.4532,0.4976,0.5312,0.5587,0.5847,0.5989,0.6274,0.6512,0.6634,0.7007,0.7389,0.7611,0.7855,0.8195,0.8514,0.8999,0.9518,0.9854,1.1363,1.3036,1.4561,1.5806,1.7049,1.8024,1.8819,1.9477,1.998,2.0439,2.0891,2.1071,2.1028,2.0917,2.0761,2.0153,1.9437,1.8955,1.8555,1.8268,1.8081,1.8094,1.8119,1.8221,1.8425,1.8833,1.9612,1.9791,1.9791,-1.0416,-0.9571,-0.8492,-0.8031,-0.8038,-0.7952,-0.7779,-0.755,-0.7724,-0.7828,-0.7677,-0.7389,-0.7244,-0.708,-0.6812,-0.6669,-0.6557,-0.6677,-0.6614,-0.6338,-0.4966,-0.3857,-0.3033,-0.2321,-0.1368,-0.0359,-0.0179,0.0269,0.1076,0.1404,0.1912,0.2693,0.3231,0.2941,0.201,0.298,0.3934,0.4851,0.577,0.6311,0.6626,0.6691,0.6659,0.6643,0.6316,0.6164,0.632,0.6019,0.5835,0.581,0.549,0.5187,0.5083,0.486,0.4692,0.0,0.4704,0.0,0.0,0.0,0.0,0.0,0.0,0.0,0.0,0.3162,0.3407,0.4024,0.4472,0.4875,0.523,0.5682,0.5974,0.6308,0.6498,0.6773,0.7109,0.7312,0.7522,0.778,0.7828,0.795,0.8187,0.8459,0.8791,0.9147,0.9625,1.0839,1.2715,1.4101,1.5219,1.6369,1.6733,1.7148,1.764,1.7908,1.8192,1.854,1.8552,1.8478,1.8858,1.8353,1.7838,1.7739,1.7357,1.7059,1.6959,1.6887,1.6727,1.6854,1.6854,1.7319,1.8611,1.8977,1.902,-1.1337,-1.0171,-0.9091,-0.8428,-0.8038,-0.8045,-0.8124,-0.8181,-0.816,-0.8211,-0.8239,-0.8231,-0.7974,-0.7626,-0.7457,-0.7204,-0.7002,-0.6942,-0.6845,-0.6685,-0.5733,-0.4935,-0.4358,-0.3458,-0.2608,-0.197,-0.1434,-0.0897,-0.0269,0.0088,0.0696,0.1649,0.1785,0.1683,0.1512,0.0,0.0,0.0,0.438,0.4841,0.53,0.5439,0.5512,0.5506,0.5684,0.0,0.5389,0.5513,0.5601,0.5479,0.5255,0.0,0.0,0.0,0.0,0.0,0.0,0.0,0.0,0.0,0.0,0.0,0.2737,0.2516,0.2537,0.2638,0.2939,0.3641,0.3951,0.4458,0.5191,0.5407,0.5695,0.6267,0.6629,0.6825,0.7061,0.7489,0.7753,0.7801,0.7916,0.8011,0.8079,0.8187,0.8433,0.8598,0.8948,0.9429,1.0329,1.1806,1.3162,1.4179,1.4832,1.5299,1.5846,1.5778,1.5871,1.6539,1.6941,1.7127,1.7455,1.726,1.6856,1.6744,1.6549,1.6451,1.6464,1.654,1.6673,1.67,1.6687,1.6908,1.7463,1.7647,1.7612,-1.1952,0.0,-0.933,-0.8528,0.0,-0.8336,-0.8542,-0.8832,-0.8547,-0.8661,-0.8956,-0.8981,-0.8715,-0.8146,-0.7894,-0.7533,-0.7101,-0.7137,-0.7095,-0.6923,-0.6456,-0.5904,-0.5349,-0.4701,-0.4032,-0.3314,-0.2867,-0.2059,-0.1075,-0.071,-0.0088,0.0706,0.1135,0.1391,0.1389,0.1204,0.1673,0.2872,0.3153,0.3444,0.3752,0.4152,0.4415,0.4432,0.462,0.0,0.0,0.0,0.0,0.0,0.0,0.0,0.0,0.4789,0.0,0.4857,0.4986,0.4866,0.4492,0.4035,0.3524,0.2942,0.1991,0.1492,0.1714,0.1915,0.2251,0.2779,0.3323,0.3891,0.4453,0.4924,0.5344,0.5792,0.621,0.6569,0.6839,0.7164,0.7432,0.7635,0.7799,0.7846,0.7939,0.8099,0.8214,0.835,0.8481,0.8737,0.9301,1.0387,1.1517,1.2501,1.308,1.3513,1.3624,1.386,1.4151,1.4862,1.5269,1.5793,1.6388,1.6246,1.6059,1.6059,1.6046,1.6059,1.6059,1.6179,1.6273,1.6273,1.6273,1.6366,1.666,1.6941,1.7181,-1.2535,-1.1165,-0.9562,-0.8825,-0.8535,-0.8733,-0.9038,-0.9434,0.0,0.0,0.0,-0.9816,-0.9452,-0.8868,-0.8415,-0.7841,-0.7171,-0.7259,-0.7279,-0.7183,-0.7044,-0.6648,-0.6082,-0.5695,-0.5191,-0.4478,-0.4206,-0.331,-0.188,-0.1345,-0.0896,-0.0269,0.0538,0.0897,0.0896,0.0616,0.0855,0.1646,0.2002,0.2206,0.2431,0.2908,0.3291,0.3516,0.3686,0.388,0.3921,0.3872,0.3872,0.4001,0.4063,0.4199,0.4528,0.4528,0.4665,0.4822,0.4926,0.491,0.4692,0.4102,0.3413,0.2762,0.1317,0.0653,0.099,0.1156,0.1394,0.1831,0.2605,0.3238,0.3493,0.4202,0.4835,0.5121,0.5598,0.5963,0.6343,0.6569,0.6836,0.7347,0.7441,0.7547,0.7839,0.7945,0.7999,0.8228,0.8248,0.8371,0.8784,0.9553,1.0364,1.1069,1.1531,1.1718,1.1802,1.2064,1.2607,1.3474,1.3925,1.4481,1.5278,1.5512,1.556,1.5763,1.5724,1.5845,1.5832,1.5858,1.5832,1.5832,1.5832,1.5899,1.6166,1.6607,1.6994,-1.3151,-1.1971,-1.0254,-0.932,-0.9038,-0.8931,-0.9418,-1.06,-1.1002,-1.1287,-1.1277,-1.1355,-1.0877,-0.9914,-0.9537,-0.8621,-0.7611,-0.7785,-0.7792,-0.7523,-0.7178,-0.7015,-0.6819,-0.6233,-0.5725,-0.528,-0.483,-0.4206,-0.3406,-0.233,-0.1612,-0.1256,-0.1077,-0.0987,-0.0985,-0.0704,-0.0087,0.0775,0.0827,0.1201,0.1961,0.1989,0.2188,0.2703,0.3145,0.3397,0.3384,0.3632,0.3845,0.3845,0.3982,0.409,0.4256,0.4393,0.4505,0.461,0.4637,0.4512,0.417,0.3682,0.2969,0.1968,0.1041,0.0521,0.0582,0.0371,0.0527,0.1206,0.181,0.2282,0.2742,0.3033,0.3595,0.4414,0.4763,0.5076,0.5484,0.5872,0.6142,0.6537,0.6742,0.7048,0.7447,0.7646,0.7798,0.8106,0.7958,0.7992,0.8234,0.8917,0.954,0.9754,0.9819,1.0136,1.0578,1.0802,1.1401,1.2375,1.2915,1.3512,1.4413,1.4821,1.5166,1.5452,1.5642,1.5737,1.5832,1.5832,1.5737,1.5737,1.5737,1.5763,1.5843,1.6219,1.6593,-1.399,-1.3007,-1.1372,-1.0492,-1.0019,-1.0109,-1.0797,-1.1883,-1.2554,-1.2651,-1.2262,-1.2255,-1.1722,-1.0748,-1.0175,-0.9372,-0.8208,-0.8034,-0.7903,-0.7801,-0.7664,-0.7502,-0.7303,-0.7053,-0.6752,-0.6374,-0.594,-0.5365,-0.4555,-0.3821,-0.2913,-0.2005,-0.2554,-0.2736,-0.2187,-0.1789,-0.1144,-0.0522,-0.0,0.041,0.088,0.1029,0.1321,0.1817,0.2289,0.2687,0.2935,0.3115,0.3163,0.2945,0.3015,0.3244,0.371,0.3786,0.3946,0.4215,0.4215,0.4099,0.3934,0.3235,0.2579,0.1826,0.0998,0.0461,0.0228,0.0077,0.0154,0.0542,0.0968,0.1331,0.1598,0.212,0.2665,0.3094,0.3761,0.423,0.4168,0.4303,0.473,0.5432,0.5737,0.6137,0.6642,0.6842,0.6954,0.7214,0.7166,0.7135,0.7135,0.7485,0.8113,0.8755,0.8999,0.9245,0.9585,0.9734,1.023,1.1141,1.1727,1.2475,1.3426,1.4004,1.44,1.4975,1.5166,1.5356,1.5547,1.5547,1.5452,1.5642,1.5547,1.5452,1.5586,1.6082,1.6633,-1.4918,-1.405,-1.2687,-1.1776,-1.1306,-1.1394,-1.198,-1.2942,-1.3619,-1.3619,-1.3244,-1.3244,-1.2651,-1.1678,-1.1189,-1.0207,-0.9,-0.8398,-0.8153,-0.8042,-0.8006,-0.7848,-0.7645,-0.7617,-0.7503,-0.7201,-0.6913,-0.6403,-0.5573,-0.5203,-0.4274,-0.288,-0.391,-0.4193,-0.3449,-0.2843,-0.2255,-0.1687,-0.087,-0.0254,-0.0,0.0327,0.0639,0.1005,0.1371,0.1801,0.2212,0.227,0.2187,0.1966,0.2039,0.2332,0.2935,0.3154,0.3459,0.37,0.3704,0.3734,0.3579,0.295,0.2356,0.2044,0.1257,0.0551,-0.0,-0.0,-0.0,-0.0,0.0329,0.0507,0.0602,0.1171,0.1784,0.1913,0.2635,0.2979,0.2914,0.2922,0.3324,0.4128,0.4526,0.4931,0.5536,0.5937,0.6037,0.6242,0.6237,0.6237,0.6237,0.6237,0.6736,0.7434,0.8131,0.8443,0.8528,0.884,0.9244,1.0019,1.0609,1.1394,1.2252,1.2931,1.3426,1.41,1.44,1.4688,1.4962,1.507,1.4975,1.5166,1.507,1.4975,1.5178,1.5699,1.6526,-1.5754,-1.4963,-1.4002,-1.3183,-1.251,-1.2381,-1.2748,-1.3426,-1.3811,-1.4184,-1.458,-1.4592,-1.4004,-1.3318,-1.2748,-1.1375,-0.9592,-0.8977,-0.8477,-0.8082,-0.7959,-0.789,-0.778,-0.7665,-0.7503,-0.7221,-0.7201,-0.6907,-0.6344,-0.6161,-0.5308,-0.4073,-0.4935,-0.5417,-0.5038,-0.3978,-0.3116,-0.2359,-0.1669,-0.0892,-0.0084,-0.0,-0.0,0.0081,0.0543,0.0757,0.0832,0.1107,0.124,0.1238,0.1535,0.177,0.1955,0.2562,0.2971,0.3108,0.3193,0.32,0.3129,0.2747,0.2439,0.2361,0.1655,0.0874,-0.0,-0.0,-0.0,-0.0,-0.0,-0.0,-0.0,-0.0,-0.0,0.0877,0.1093,0.121,0.1713,0.2219,0.2519,0.2416,0.302,0.3726,0.4634,0.4935,0.5135,0.5536,0.5536,0.5536,0.5636,0.5636,0.5536,0.5932,0.6437,0.7241,0.7832,0.8038,0.8435,0.913,0.9723,1.0413,1.1091,1.1873,1.2651,1.2931,1.3414,1.3811,1.41,1.4196,1.4292,1.4292,1.4292,1.4388,1.4449,1.4924,1.5594,-1.642,-1.5796,-1.5068,-1.4394,-1.3665,-1.3534,-1.3908,-1.4496,-1.4675,-1.5057,-1.5343,-1.5356,-1.4975,-1.4232,-1.3534,-1.2349,-1.0993,-0.978,-0.919,-0.8909,-0.835,-0.8034,-0.8133,-0.7986,-0.7758,-0.7647,-0.7574,-0.7432,-0.7056,-0.6768,-0.6321,-0.5987,-0.6327,-0.6492,-0.6395,-0.5265,-0.4281,-0.3521,-0.293,-0.2047,-0.0997,-0.0347,-0.0,-0.0,0.0163,0.0242,0.0242,0.04,0.0474,0.0468,0.0623,0.0777,0.1007,0.1392,0.1709,0.1961,0.2042,0.2055,0.2084,0.1926,0.1777,0.1801,0.1474,0.0905,-0.0,-0.0,-0.0,-0.0,-0.0,-0.0,-0.0,-0.0,0.0097,0.0295,0.03,-0.0,0.0605,-0.0,0.1009,0.1312,0.1915,0.2521,0.333,0.3937,0.434,0.4642,0.4638,0.4638,0.4638,0.4638,0.4537,0.4329,0.463,0.5636,0.6736,0.7335,0.7739,0.8336,0.8931,0.9418,1.001,1.0502,1.1091,1.1668,1.2155,1.264,1.3125,1.2942,1.2942,1.3136,1.3318,1.3318,1.3318,1.4021,1.4725,-1.6819,-1.6234,-1.5706,-1.5145,-1.4496,-1.4496,-1.4783,-1.5178,-1.5452,-1.5629,-1.5832,-1.5832,-1.5465,-1.4917,-1.4208,-1.3437,-1.2489,-1.117,-1.028,-0.9912,-0.8909,-0.8513,-0.8528,-0.8237,-0.8038,-0.8024,-0.7929,-0.7778,-0.7589,-0.7394,-0.7254,-0.7422,-0.7451,-0.7407,-0.7302,-0.623,-0.5413,-0.4739,-0.4142,-0.317,-0.2194,-0.1099,-0.0441,-0.0,-0.0,-0.0,-0.0,-0.0,-0.0,-0.0,-0.0,0.0163,0.0401,0.0398,0.0555,0.0873,0.0952,0.0962,0.0903,0.0904,0.091,0.0924,0.0927,0.0676,-0.0,-0.0,-0.0,-0.0,-0.0,-0.0,-0.0,-0.0,-0.0,-0.0,-0.0,-0.0,-0.0,-0.0,0.0202,0.0505,0.111,0.1513,0.2021,0.2727,0.3229,0.3332,0.3332,0.3332,0.3332,0.3332,0.3229,0.2821,0.3123,0.4131,0.5732,0.6537,0.7036,0.764,0.8137,0.8726,0.9122,0.9426,0.9821,1.0502,1.0699,1.0993,1.157,1.158,1.1678,1.196,1.2047,1.2047,1.196,1.2836,1.3292,-1.682,-1.6299,-1.5704,-1.53,-1.5083,-1.5083,-1.5166,-1.5452,-1.5547,-1.5642,-1.5832,-1.5832,-1.5629,-1.5248,-1.507,-1.4712,-1.4051,-1.3061,-1.2078,-1.111,-1.0002,-0.9213,-0.8825,-0.8528,-0.8237,-0.8038,-0.8024,-0.8011,-0.7918,-0.7925,-0.7939,-0.7952,-0.7939,-0.7939,-0.7832,-0.6907,-0.6216,-0.5792,-0.4933,-0.411,-0.3613,-0.2587,-0.1394,-0.0,-0.0,-0.0,-0.0,-0.0,-0.0,-0.0,-0.0,-0.0,-0.0,-0.0,-0.0,-0.0,-0.0,-0.0,-0.0,-0.0,-0.0,-0.0,-0.0,-0.0,-0.0,-0.0,-0.0,-0.0,-0.0,-0.0,-0.0,-0.0,-0.0,-0.0,-0.0,-0.0,-0.0,-0.0,-0.0,-0.0,0.0505,0.0808,0.0909,0.1312,0.1715,0.1816,0.1715,0.1715,0.1816,0.1715,0.1715,0.1819,0.2122,0.2924,0.473,0.5737,0.6242,0.6842,0.7441,0.8038,0.8336,0.8634,0.9031,0.9434,0.9723,1.0019,1.0117,1.0314,1.0404,1.06,1.0699,1.06,1.0797,1.0932,1.1447,-1.6807,-1.6246,-1.5856,-1.5642,-1.5547,-1.5547,-1.5642,-1.5642,-1.5737,-1.5737,-1.5832,-1.5832,-1.5724,-1.5629,-1.5547,-1.5287,-1.4833,-1.4136,-1.3158,-1.2078,-1.0788,-0.9805,-0.9312,-0.8726,-0.8237,-0.8038,-0.8038,-0.8038,-0.8038,-0.8038,-0.8038,-0.8045,-0.8045,-0.7945,-0.7846,-0.7441,-0.7042,-0.6736,-0.5996,-0.5282,-0.4472,-0.372,-0.2599,-0.1139,-0.0366,-0.0,-0.0,-0.0,-0.0,-0.0,-0.0,-0.0,-0.0,-0.0,-0.0,-0.0,-0.0,-0.0,-0.0,-0.0,-0.0,-0.0,-0.0,-0.0,-0.0,-0.0,-0.0,-0.0,-0.0,-0.0,-0.0,-0.0,-0.0,-0.0,-0.0,-0.0,-0.0,-0.0,-0.0,-0.0,0.0202,0.0303,-0.0,-0.0,0.0606,0.0605,-0.0,-0.0,-0.0,-0.0,-0.0,-0.0,0.1541,0.2363,0.2564,0.4358,0.5436,0.6137,0.6736,0.7441,0.7839,0.8137,0.8535,0.8733,0.9031,0.9229,0.9426,0.9525,0.9624,0.9517,0.9517,0.9632,0.9624,1.0043,1.0406,-1.6486,-1.6126,-1.5912,-1.5832,-1.5832,-1.5832,-1.5832,-1.5832,-1.5832,-1.5832,-1.5832,-1.5832,-1.5832,-1.5832,-1.5832,-1.5655,-1.5395,-1.5013,-1.4136,-1.3039,-1.156,-1.0583,-0.9903,-0.9122,-0.8435,-0.8137,-0.8038,-0.8038,-0.8038,-0.8038,-0.8038,-0.8038,-0.8038,-0.8038,-0.7939,-0.7746,-0.7441,-0.7241,-0.6736,-0.6032,-0.5318,-0.4777,-0.3755,-0.2462,-0.1246,-0.0468,-0.0,-0.0,-0.0,-0.0,-0.0,-0.0,-0.0,-0.0,-0.0,-0.0,-0.0,-0.0,-0.0,-0.0,-0.0,-0.0,-0.0,-0.0,-0.0,-0.0,-0.0,-0.0,-0.0,-0.0,-0.0,-0.0,-0.0,-0.0,-0.0,-0.0,-0.0,-0.0,-0.0,-0.0,-0.0,-0.0,-0.0,-0.0,-0.0,-0.0,-0.0,-0.0,-0.0,-0.0,-0.0,-0.0,-0.0,0.136,0.1879,0.2993,0.4467,0.5157,0.6237,0.6942,0.7447,0.7739,0.8038,0.8237,0.8336,0.8535,0.8641,0.884,0.8733,0.8627,0.8641,0.8847,0.8959,0.924,0.9696,-1.5872,-1.5858,-1.5832,-1.5832,-1.5832,-1.5832,-1.5832,-1.5832,-1.5832,-1.5832,-1.5832,-1.5832,-1.5832,-1.5832,-1.5832,-1.5832,-1.575,-1.5695,-1.5013,-1.3811,-1.2543,-1.157,-1.0708,-0.9624,-0.8832,-0.8329,-0.8137,-0.8038,-0.8038,-0.8038,-0.8038,-0.8038,-0.8038,-0.8038,-0.8038,-0.7746,-0.7646,-0.7441,-0.6936,-0.6437,-0.6337,-0.5732,-0.4822,-0.3817,-0.2668,-0.1444,-0.0,-0.0,-0.0,-0.0,-0.0,-0.0,-0.0,-0.0,-0.0,-0.0,-0.0,-0.0,-0.0,-0.0,-0.0,-0.0,-0.0,-0.0,-0.0,-0.0,-0.0,-0.0,-0.0,-0.0,-0.0,-0.0,-0.0,-0.0,-0.0,-0.0,-0.0,-0.0,-0.0,-0.0,-0.0,-0.0,-0.0,-0.0,-0.0,-0.0,-0.0,-0.0,-0.0,-0.0,-0.0,-0.0,-0.0,0.064,0.1166,0.1786,0.3096,0.4373,0.5655,0.6542,0.7042,0.7441,0.7939,0.8137,0.8137,0.8237,0.8237,0.8336,0.8336,0.8237,0.8151,0.8292,0.8526,0.8873,0.8934,-1.6019,-1.5832,-1.5832,-1.5832,-1.5832,-1.5832,-1.5832,-1.5832,-1.5832,-1.5832,-1.5832,-1.5832,-1.5832,-1.5832,-1.5832,-1.5832,-1.5832,-1.5763,-1.5369,-1.4496,-1.3437,-1.236,-1.1091,-1.001,-0.9023,-0.8237,-0.8038,-0.8038,-0.8045,-0.8045,-0.8038,-0.8038,-0.8038,-0.8038,-0.8038,-0.7939,-0.7839,-0.7839,-0.764,-0.7341,-0.7141,-0.6242,-0.5236,-0.3924,-0.3007,-0.2075,-0.1159,-0.0376,-0.0,-0.0,-0.0,-0.0,-0.0,-0.0,-0.0,-0.0,-0.0,-0.0,-0.0,-0.0,-0.0,-0.0,-0.0,-0.0,-0.0,-0.0,-0.0,-0.0,-0.0,-0.0,-0.0,-0.0,-0.0,-0.0,-0.0,-0.0,-0.0,-0.0,-0.0,-0.0,-0.0,-0.0,-0.0,-0.0,-0.0,-0.0,-0.0,-0.0,-0.0,-0.0,-0.0,-0.0,-0.0,-0.0,0.0541,0.1396,0.2755,0.405,0.5328,0.6284,0.6776,0.7472,0.7865,0.8052,0.8052,0.8038,0.8038,0.8038,0.8038,0.8045,0.8058,0.814,0.8248,0.8501,0.8673,-1.6166,-1.5992,-1.5872,-1.5832,-1.5832,-1.5832,-1.5832,-1.5832,-1.5832,-1.5832,-1.5832,-1.5832,-1.5832,-1.5832,-1.5832,-1.5832,-1.5832,-1.5832,-1.556,-1.5,-1.4016,-1.2845,-1.1492,-1.001,-0.8825,-0.8151,-0.8099,-0.8126,-0.8126,-0.8026,-0.8019,-0.8019,-0.7965,-0.8038,-0.8038,-0.8038,-0.7939,-0.7839,-0.7846,-0.754,-0.7042,-0.6237,-0.5236,-0.4128,-0.3327,-0.26,-0.1866,-0.0862,-0.0187,-0.0,-0.0,-0.0,-0.0,-0.0,-0.0,-0.0,-0.0,-0.0,-0.0,-0.0,-0.0,-0.0,-0.0,-0.0,-0.0,-0.0,-0.0,-0.0,-0.0,-0.0,-0.0,-0.0,-0.0,-0.0,-0.0,-0.0,-0.0,-0.0,-0.0,-0.0,-0.0,-0.0,-0.0,-0.0,-0.0,-0.0,-0.0,-0.0,-0.0,-0.0,-0.0,-0.0,-0.0,-0.0,-0.0,0.1097,0.2502,0.3834,0.5214,0.5975,0.6636,0.7554,0.816,0.8133,0.8119,0.8052,0.8038,0.8038,0.8038,0.8052,0.8099,0.8221,0.835,0.8492,0.8755,-1.6286,-1.6233,-1.5952,-1.5832,-1.5832,-1.5832,-1.5832,-1.5832,-1.5832,-1.5832,-1.5832,-1.5832,-1.5832,-1.5832,-1.5832,-1.5832,-1.5832,-1.5832,-1.5777,-1.53,-1.4196,-1.2823,-1.159,-0.9813,-0.8641,-0.8192,-0.8194,-0.8262,-0.8282,-0.8173,-0.7968,-0.7955,-0.8059,-0.7965,-0.7979,-0.7959,-0.7859,-0.7646,-0.7441,-0.7042,-0.6437,-0.5737,-0.5035,-0.4236,-0.3531,-0.2807,-0.2275,-0.1175,-0.0384,-0.0,-0.0,-0.0,-0.0,-0.0,-0.0,-0.0,-0.0,-0.0,-0.0,-0.0,-0.0,-0.0,-0.0,-0.0,-0.0,-0.0,-0.0,-0.0,-0.0,-0.0,-0.0,-0.0,-0.0,-0.0,-0.0,-0.0,-0.0,-0.0,-0.0,-0.0,-0.0,-0.0,-0.0,-0.0,-0.0,-0.0,-0.0,-0.0,-0.0,-0.0,-0.0,-0.0,-0.0,-0.0,-0.0,0.0999,0.2421,0.3929,0.5231,0.5984,0.6741,0.766,0.8275,0.8248,0.8289,0.8213,0.8199,0.814,0.8147,0.8174,0.8248,0.8343,0.8459,0.8594,0.8703,-1.646,-1.6246,-1.5952,-1.5832,-1.5832,-1.5832,-1.5832,-1.5832,-1.5832,-1.5832,-1.5832,-1.5832,-1.5832,-1.5832,-1.5832,-1.5832,-1.5832,-1.5832,-1.5777,-1.553,-1.3872,-1.2124,-1.0699,-0.9426,-0.86,-0.8309,-0.8275,-0.8323,-0.8418,-0.8425,-0.8314,-0.7994,-0.8267,-0.8296,-0.8018,-0.7998,-0.7737,-0.7253,-0.6842,-0.6442,-0.5837,-0.5031,-0.4429,-0.383,-0.3229,-0.272,-0.2304,-0.0989,-0.0193,-0.0,-0.0,-0.0,-0.0,-0.0,-0.0,-0.0,-0.0,-0.0,-0.0,-0.0,-0.0,-0.0,-0.0,-0.0,-0.0,-0.0,-0.0,-0.0,-0.0,-0.0,-0.0,-0.0,-0.0,-0.0,-0.0,-0.0,-0.0,-0.0,-0.0,-0.0,-0.0,-0.0,-0.0,-0.0,-0.0,-0.0,-0.0,-0.0,-0.0,-0.0,-0.0,-0.0,-0.0,-0.0,-0.0,-0.0,0.2451,0.4003,0.5251,0.6226,0.6901,0.7799,0.8216,0.8411,0.8426,0.8343,0.8419,0.8384,0.8364,0.8309,0.8384,0.8479,0.8581,0.8696,0.8771,-1.6607,-1.642,-1.6005,-1.5832,-1.5832,-1.5832,-1.5832,-1.5832,-1.5832,-1.5832,-1.5832,-1.5832,-1.5832,-1.5832,-1.5832,-1.5832,-1.5832,-1.5832,-1.5777,-1.5268,-1.291,-1.1175,-1.0037,-0.9291,-0.8685,-0.846,-0.8425,-0.8499,-0.8567,-0.8687,-0.8574,-0.8454,-0.8513,-0.8438,-0.837,-0.804,-0.7595,-0.7004,-0.6444,-0.5906,-0.5298,-0.4754,-0.4031,-0.3531,-0.3027,-0.2725,-0.2017,-0.07,-0.0,-0.0,-0.0,-0.0,-0.0,-0.0,-0.0,-0.0,-0.0,-0.0,-0.0,-0.0,-0.0,-0.0,-0.0,-0.0,-0.0,-0.0,-0.0,-0.0,-0.0,-0.0,-0.0,-0.0,-0.0,-0.0,-0.0,-0.0,-0.0,-0.0,-0.0,-0.0,-0.0,-0.0,-0.0,-0.0,-0.0,-0.0,-0.0,-0.0,-0.0,-0.0,-0.0,-0.0,-0.0,-0.0,-0.0,-0.0,0.2474,0.4151,0.5579,0.6463,0.7373,0.8062,0.8262,0.8554,0.857,0.8529,0.8591,0.8526,0.8492,0.8479,0.854,0.8594,0.8682,0.8771,0.8845,-1.67,-1.6647,-1.6072,-1.5832,-1.5832,-1.5832,-1.5832,-1.5832,-1.5832,-1.5832,-1.5832,-1.5832,-1.5832,-1.5832,-1.5832,-1.5832,-1.5832,-1.5832,-1.5517,-1.4352,-1.2183,-1.0289,-1.0178,-0.9331,-0.8772,-0.852,-0.8648,-0.8696,-0.8723,-0.8737,-0.8737,-0.8716,-0.8608,-0.8639,-0.852,-0.819,-0.7551,-0.6653,-0.5955,-0.5287,-0.4648,-0.4089,-0.3448,-0.3027,-0.2826,-0.2423,-0.1617,-0.0,-0.0,-0.0,-0.0,-0.0,-0.0,-0.0,-0.0,-0.0,-0.0,-0.0,-0.0,-0.0,-0.0,-0.0,-0.0,-0.0,-0.0,-0.0,-0.0,-0.0,-0.0,-0.0,-0.0,-0.0,-0.0,-0.0,-0.0,-0.0,-0.0,-0.0,-0.0,-0.0,-0.0,-0.0,-0.0,-0.0,-0.0,-0.0,-0.0,-0.0,-0.0,-0.0,-0.0,-0.0,-0.0,-0.0,-0.0,-0.0,0.26,0.4189,0.5868,0.7033,0.7962,0.8567,0.8642,0.8703,0.8662,0.8728,0.8601,0.8615,0.8615,0.8642,0.8703,0.8723,0.8757,0.8832,0.8913,-1.67,-1.666,-1.6072,-1.5832,-1.5832,-1.5832,-1.5832,-1.5832,-1.5832,-1.5832,-1.5832,-1.5832,-1.5832,-1.5832,-1.5832,-1.5832,-1.5832,-1.575,-1.4954,-1.3095,-1.1624,-1.0577,-1.0136,-0.9406,-0.8878,-0.8642,-0.8689,-0.8771,-0.8852,-0.8872,-0.8886,-0.8872,-0.8825,-0.856,-0.8246,-0.7797,-0.6888,-0.5965,-0.5409,-0.4631,-0.3647,-0.2794,-0.2251,-0.1923,-0.192,-0.1819,-0.1516,-0.0606,-0.0,-0.0,-0.0,-0.0,-0.0,-0.0,-0.0,-0.0,-0.0,-0.0,-0.0,-0.0,-0.0,-0.0,-0.0,-0.0,-0.0,-0.0,-0.0,-0.0,-0.0,-0.0,-0.0,-0.0,-0.0,-0.0,-0.0,-0.0,-0.0,-0.0,-0.0,-0.0,-0.0,-0.0,-0.0,-0.0,-0.0,-0.0,-0.0,-0.0,-0.0,-0.0,-0.0,-0.0,-0.0,-0.0,0.0568,0.114,0.2635,0.4246,0.5829,0.729,0.8133,0.8856,0.8927,0.8906,0.8886,0.8832,0.875,0.8791,0.8804,0.8832,0.8838,0.8845,0.8859,0.8927,0.8974,-1.6633,-1.646,-1.6019,-1.5832,-1.5832,-1.5832,-1.5832,-1.5832,-1.5832,-1.5832,-1.5832,-1.5832,-1.5832,-1.5832,-1.5832,-1.5832,-1.5845,-1.5803,-1.4704,-1.2746,-1.1326,-1.0712,-1.0285,-0.9507,-0.8858,-0.8811,-0.8818,-0.8872,-0.892,-0.894,-0.8927,-0.894,-0.894,-0.8549,-0.8053,-0.7494,-0.6702,-0.5669,-0.5086,-0.4186,-0.2662,-0.1988,-0.1235,-0.0913,-0.0808,-0.0808,-0.0707,-0.0303,-0.0,-0.0,-0.0,-0.0,-0.0,-0.0,-0.0,-0.0,-0.0,-0.0,-0.0,-0.0,-0.0,-0.0,-0.0,-0.0,-0.0,-0.0,-0.0,-0.0,-0.0,-0.0,-0.0,-0.0,-0.0,-0.0,-0.0,-0.0,-0.0,-0.0,-0.0,-0.0,-0.0,-0.0,-0.0,-0.0,-0.0,-0.0,-0.0,-0.0,-0.0,-0.0,-0.0,-0.0,-0.0,-0.0,-0.0,0.1386,0.2793,0.4306,0.5809,0.707,0.8082,0.8597,0.911,0.9062,0.8994,0.894,0.8879,0.8933,0.896,0.892,0.8913,0.8933,0.8967,0.9022,0.9062,-1.65,-1.6246,-1.5952,-1.5832,-1.5832,-1.5832,-1.5832,-1.5832,-1.5832,-1.5832,-1.5832,-1.5832,-1.5832,-1.5832,-1.5832,-1.5832,-1.5763,-1.5665,-1.4582,-1.2374,-1.1241,-1.0665,-1.0365,-0.9559,-0.8899,-0.8933,-0.892,-0.8933,-0.8933,-0.894,-0.894,-0.894,-0.894,-0.8589,-0.8029,-0.7482,-0.6579,-0.5337,-0.4632,-0.3499,-0.1957,-0.1382,-0.0834,-0.0,-0.0,-0.0,-0.0,-0.0,-0.0,-0.0,-0.0,-0.0,-0.0,-0.0,-0.0,-0.0,-0.0,-0.0,-0.0,-0.0,-0.0,-0.0,-0.0,-0.0,-0.0,-0.0,-0.0,-0.0,-0.0,-0.0,-0.0,-0.0,-0.0,-0.0,-0.0,-0.0,-0.0,-0.0,-0.0,-0.0,-0.0,-0.0,-0.0,-0.0,-0.0,-0.0,-0.0,-0.0,-0.0,-0.0,-0.0,-0.0,-0.0,-0.0,-0.0,0.1301,0.2737,0.4269,0.568,0.6955,0.7997,0.8737,0.9111,0.913,0.9062,0.9035,0.9042,0.9096,0.9083,0.9008,0.9028,0.9103,0.9123,0.9123,0.9171,-1.6313,-1.6246,-1.5952,-1.5832,-1.5832,-1.5832,-1.5832,-1.5832,-1.5832,-1.5832,-1.5832,-1.5832,-1.5832,-1.5832,-1.5832,-1.5845,-1.5777,-1.5608,-1.4335,-1.2181,-1.107,-1.0576,-1.0202,-0.9375,-0.894,-0.894,-0.894,-0.894,-0.894,-0.894,-0.894,-0.894,-0.894,-0.8602,-0.8042,-0.7376,-0.6371,-0.5035,-0.4123,-0.2879,-0.1534,-0.0651,-0.0,-0.0,-0.0,-0.0,-0.0,-0.0,-0.0,-0.0,-0.0,-0.0,-0.0,-0.0,-0.0,-0.0,-0.0,-0.0,-0.0,-0.0,-0.0,-0.0,-0.0,-0.0,-0.0,-0.0,-0.0,-0.0,-0.0,-0.0,-0.0,-0.0,-0.0,-0.0,-0.0,-0.0,-0.0,-0.0,-0.0,-0.0,-0.0,-0.0,-0.0,-0.0,-0.0,-0.0,-0.0,-0.0,-0.0,-0.0,-0.0,-0.0,-0.0,-0.0,-0.0,-0.0,0.2562,0.4122,0.5553,0.6951,0.7988,0.8845,0.9225,0.932,0.9279,0.9252,0.9266,0.9259,0.9245,0.9205,0.9245,0.9286,0.9279,0.9273,0.9374,-1.6179,-1.6032,-1.5885,-1.5832,-1.5832,-1.5832,-1.5832,-1.5832,-1.5832,-1.5832,-1.5832,-1.5832,-1.5832,-1.5832,-1.5832,-1.5845,-1.5721,-1.5519,-1.4033,-1.1904,-1.0724,-1.0297,-1.0123,-0.9375,-0.9051,-0.894,-0.894,-0.894,-0.894,-0.894,-0.8947,-0.894,-0.894,-0.8719,-0.838,-0.7598,-0.6482,-0.5035,-0.3804,-0.2567,-0.0996,-0.0,-0.0,-0.0,-0.0,-0.0,-0.0,-0.0,-0.0,-0.0,-0.0,-0.0,-0.0,-0.0,-0.0,-0.0,-0.0,-0.0,-0.0,-0.0,-0.0,-0.0,-0.0,-0.0,-0.0,-0.0,-0.0,-0.0,-0.0,-0.0,-0.0,-0.0,-0.0,-0.0,-0.0,-0.0,-0.0,-0.0,-0.0,-0.0,-0.0,-0.0,-0.0,-0.0,-0.0,-0.0,-0.0,-0.0,-0.0,-0.0,-0.0,-0.0,-0.0,-0.0,-0.0,-0.0,0.271,0.418,0.5513,0.6928,0.7993,0.8878,0.9361,0.9612,0.9564,0.9449,0.9381,0.934,0.9367,0.9395,0.9381,0.9381,0.9395,0.9442,0.953,-1.6046,-1.5832,-1.5832,-1.5832,-1.5832,-1.5832,-1.5832,-1.5832,-1.5832,-1.5832,-1.5832,-1.5832,-1.5832,-1.5832,-1.575,-1.5777,-1.5774,-1.5281,-1.3758,-1.1596,-1.0387,-0.9946,-0.9771,-0.9375,-0.894,-0.894,-0.894,-0.894,-0.8947,-0.8981,-0.8988,-0.8883,-0.8876,-0.887,-0.866,-0.7844,-0.672,-0.5369,-0.3916,-0.2351,-0.1005,-0.0,-0.0,-0.0,-0.0,-0.0,-0.0,-0.0,-0.0,-0.0,-0.0,-0.0,-0.0,-0.0,-0.0,-0.0,-0.0,-0.0,-0.0,-0.0,-0.0,-0.0,-0.0,-0.0,-0.0,-0.0,-0.0,-0.0,-0.0,-0.0,-0.0,-0.0,-0.0,-0.0,-0.0,-0.0,-0.0,-0.0,-0.0,-0.0,-0.0,-0.0,-0.0,-0.0,-0.0,-0.0,-0.0,-0.0,-0.0,-0.0,-0.0,-0.0,-0.0,-0.0,-0.0,-0.0,0.295,0.4558,0.5778,0.7099,0.8077,0.9048,0.9418,0.9754,0.968,0.9564,0.949,0.9469,0.9537,0.9557,0.9496,0.9496,0.9564,0.9598,0.9659,-1.6062,-1.5832,-1.5832,-1.5832,-1.5832,-1.5832,-1.5832,-1.5832,-1.5832,-1.5832,-1.5832,-1.5832,-1.5832,-1.5737,-1.5629,-1.5608,-1.5635,-1.5208,-1.3576,-1.1098,-1.0052,-0.9652,-0.9471,-0.9161,-0.894,-0.894,-0.894,-0.894,-0.8974,-0.9069,-0.901,-0.9004,-0.901,-0.8891,-0.8864,-0.8121,-0.7049,-0.5485,-0.4139,-0.2463,-0.056,-0.0,-0.0,-0.0,-0.0,-0.0,-0.0,-0.0,-0.0,-0.0,-0.0,-0.0,-0.0,-0.0,-0.0,-0.0,-0.0,-0.0,-0.0,-0.0,-0.0,-0.0,-0.0,-0.0,-0.0,-0.0,-0.0,-0.0,-0.0,-0.0,-0.0,-0.0,-0.0,-0.0,-0.0,-0.0,-0.0,-0.0,-0.0,-0.0,-0.0,-0.0,-0.0,-0.0,-0.0,-0.0,-0.0,-0.0,-0.0,-0.0,-0.0,-0.0,-0.0,-0.0,0.1196,0.1947,0.3314,0.5056,0.6158,0.7255,0.8111,0.8964,0.9457,0.9781,0.972,0.9707,0.9673,0.968,0.9741,0.972,0.9659,0.97,0.9774,0.9795,0.9768,-1.6683,-1.6035,-1.5832,-1.5832,-1.5832,-1.5832,-1.5832,-1.5832,-1.5832,-1.5832,-1.5832,-1.5832,-1.5832,-1.5737,-1.5629,-1.5416,-1.5319,-1.5157,-1.3286,-1.0657,-0.96,-0.9392,-0.9354,-0.9051,-0.894,-0.894,-0.8947,-0.9001,-0.9049,-0.9123,-0.9178,-0.9158,-0.9158,-0.9104,-0.895,-0.8307,-0.7337,-0.5949,-0.4139,-0.2239,-0.0896,-0.0,-0.0,-0.0,-0.0,-0.0,-0.0,-0.0,-0.0,-0.0,-0.0,-0.0,-0.0,-0.0,-0.0,-0.0,-0.0,-0.0,-0.0,-0.0,-0.0,-0.0,-0.0,-0.0,-0.0,-0.0,-0.0,-0.0,-0.0,-0.0,-0.0,-0.0,-0.0,-0.0,-0.0,0.0808,0.0707,0.0505,-0.0,-0.0,0.031,0.0627,0.0741,-0.0,-0.0,-0.0,-0.0,-0.0,-0.0,-0.0,-0.0,-0.0,-0.0,-0.0,0.1926,0.2557,0.3929,0.5425,0.6521,0.75,0.8233,0.8964,0.9579,0.9822,0.9781,0.9788,0.9822,0.9808,0.9788,0.9802,0.9815,0.9822,0.9822,0.9815,0.9795,-1.7419,-1.6588,-1.6008,-1.5818,-1.5927,-1.5832,-1.5832,-1.5832,-1.5832,-1.5832,-1.5832,-1.5832,-1.5832,-1.5763,-1.5543,-1.5363,-1.5134,-1.4844,-1.2725,-1.0535,-0.924,-0.9113,-0.9147,-0.8933,-0.894,-0.894,-0.9001,-0.9083,-0.9184,-0.9266,-0.9354,-0.9435,-0.9435,-0.9354,-0.8895,-0.8243,-0.7381,-0.5712,-0.3807,-0.213,-0.1009,-0.0336,-0.0,-0.0,-0.0,-0.0,-0.0,-0.0,-0.0,-0.0,-0.0,-0.0,-0.0,-0.0,-0.0,-0.0,-0.0,-0.0,-0.0,-0.0,-0.0,-0.0,-0.0,-0.0,-0.0,-0.0,-0.0,-0.0,-0.0,-0.0,-0.0,-0.0,-0.0,-0.0,0.0909,0.1415,0.1718,0.1415,0.1323,0.1339,0.1358,0.1595,0.1616,0.1312,-0.0,-0.0,-0.0,0.0224,-0.0,-0.0,-0.0,0.1825,0.2107,0.2289,0.2796,0.3547,0.4803,0.5802,0.6903,0.775,0.861,0.9214,0.97,0.9822,0.9822,0.9822,0.9822,0.9822,0.9822,0.9822,0.9822,0.9822,0.9822,0.9822,0.9822,-1.8442,-1.7807,-1.6466,-1.6008,-1.613,-1.5927,-1.5832,-1.5832,-1.5832,-1.5832,-1.5832,-1.5832,-1.5832,-1.5803,-1.5641,-1.5406,-1.5125,-1.4492,-1.2394,-1.045,-0.9223,-0.9023,-0.8933,-0.894,-0.894,-0.896,-0.9042,-0.9191,-0.9347,-0.9422,-0.9399,-0.9466,-0.9676,-0.96,-0.9109,-0.8274,-0.6812,-0.5162,-0.3474,-0.2242,-0.1121,-0.0,-0.0,-0.0,-0.0,-0.0,-0.0,-0.0,-0.0,-0.0,-0.0,-0.0,-0.0,-0.0,-0.0,-0.0,-0.0,-0.0,-0.0,-0.0,-0.0,-0.0,-0.0,-0.0,-0.0,-0.0,-0.0,-0.0,-0.0,0.1213,0.1213,0.1112,0.0909,0.1112,0.1617,0.2021,0.2324,0.2423,0.2238,0.2277,0.2422,0.2677,0.3052,0.2872,0.2442,0.189,0.1114,0.1122,0.1247,-0.0,-0.0,0.2326,0.2731,0.3151,0.3807,0.4573,0.5579,0.6461,0.7459,0.829,0.9001,0.9483,0.9876,0.9822,0.9822,0.9822,0.9822,0.9822,0.9822,0.9822,0.9822,0.9822,0.9822,0.9822,0.9822,-1.9621,-1.9072,-1.7453,-1.6546,-1.6224,-1.5927,-1.5832,-1.5832,-1.5832,-1.5832,-1.5832,-1.5832,-1.5925,-1.5906,-1.5635,-1.5582,-1.5366,-1.4223,-1.2131,-1.0381,-0.923,-0.892,-0.8933,-0.894,-0.894,-0.8967,-0.9083,-0.9232,-0.9374,-0.9456,-0.9537,-0.9696,-0.971,-0.9634,-0.9136,-0.7903,-0.6205,-0.483,-0.3586,-0.2466,-0.1121,-0.0,-0.0,-0.0,-0.0,-0.0,-0.0,-0.0,-0.0,-0.0,-0.0,-0.0,-0.0,-0.0,-0.0,-0.0,-0.0,-0.0,-0.0,-0.0,-0.0,-0.0,-0.0,-0.0,-0.0,-0.0,-0.0,-0.0,0.101,0.1617,0.1516,0.1718,0.1819,0.192,0.2223,0.2727,0.3033,0.3131,0.3278,0.3343,0.3498,0.3764,0.4163,0.446,0.3913,0.336,0.2578,0.2026,0.2164,0.2422,0.2799,0.3183,0.3605,0.401,0.4555,0.5451,0.6358,0.7122,0.8019,0.8759,0.9484,0.9718,0.9971,0.9897,0.9836,0.9849,0.9849,0.9829,0.9822,0.9822,0.9822,0.9822,0.9822,0.9822,0.9836,-2.0637,-2.0076,-1.858,-1.7498,-1.6683,-1.6008,-1.5832,-1.5927,-1.5832,-1.5832,-1.5832,-1.5832,-1.5992,-1.6025,-1.5703,-1.5594,-1.5371,-1.4261,-1.2187,-1.0405,-0.9237,-0.892,-0.8933,-0.894,-0.894,-0.8974,-0.9076,-0.9225,-0.9293,-0.9354,-0.9435,-0.9614,-0.9614,-0.9395,-0.859,-0.7274,-0.5708,-0.4704,-0.3589,-0.269,-0.1234,-0.0,-0.0,-0.0,-0.0,-0.0,-0.0,-0.0,-0.0,-0.0,-0.0,-0.0,-0.0,-0.0,-0.0,-0.0,-0.0,-0.0,-0.0,-0.0,-0.0,-0.0,-0.0,-0.0,-0.0,0.0303,-0.0,-0.0,0.1414,0.1918,0.192,0.2324,0.2526,0.2626,0.3027,0.3433,0.3846,0.4058,0.4243,0.4327,0.46,0.499,0.541,0.5734,0.5318,0.4531,0.3514,0.3082,0.3354,0.3627,0.4145,0.4432,0.473,0.5014,0.5418,0.6337,0.7142,0.7791,0.8574,0.9268,0.9764,1.0002,1.0107,1.0066,1.0005,0.9917,0.9903,0.9924,0.9883,0.9822,0.9836,0.9856,0.9822,0.9829,0.9869,-2.1266,-2.0925,-1.9995,-1.8859,-1.7591,-1.6372,-1.5913,-1.613,-1.5927,-1.5832,-1.5832,-1.5832,-1.5992,-1.6077,-1.5706,-1.5642,-1.5572,-1.4545,-1.2555,-1.0108,-0.9133,-0.8927,-0.8933,-0.894,-0.894,-0.8974,-0.9055,-0.9243,-0.9178,-0.9286,-0.9361,-0.9218,-0.9043,-0.8502,-0.7885,-0.6312,-0.5262,-0.4704,-0.3365,-0.2356,-0.157,-0.0,-0.0,-0.0,-0.0,-0.0,-0.0,-0.0,-0.0,-0.0,-0.0,-0.0,-0.0,-0.0,-0.0,-0.0,-0.0,-0.0,-0.0,-0.0,-0.0,-0.0,-0.0,-0.0,-0.0,0.0808,0.1516,0.1515,0.2221,0.2624,0.2826,0.2927,0.3128,0.343,0.383,0.4236,0.4653,0.5103,0.53,0.5505,0.5929,0.625,0.6695,0.6797,0.6517,0.5737,0.4475,0.4281,0.4574,0.4972,0.5383,0.5682,0.5863,0.6272,0.669,0.7251,0.7932,0.8591,0.9166,0.9774,1.0055,1.0149,1.0256,1.0229,1.0154,1.0059,1.0046,1.0046,1.0012,0.9978,0.991,0.9897,0.9856,0.9869,0.9964,-2.1933,-2.1909,-2.1212,-2.0286,-1.898,-1.7124,-1.6305,-1.613,-1.5927,-1.5832,-1.5832,-1.5832,-1.5992,-1.5993,-1.5757,-1.5552,-1.5584,-1.4578,-1.2465,-0.9435,-0.901,-0.8927,-0.8933,-0.894,-0.894,-0.8947,-0.9119,-0.9195,-0.9164,-0.9211,-0.9339,-0.9198,-0.785,-0.6644,-0.6186,-0.5373,-0.4812,-0.426,-0.3029,-0.1908,-0.1682,-0.0,-0.0,-0.0,-0.0,-0.0,-0.0,-0.0,-0.0,-0.0,-0.0,-0.0,-0.0,-0.0,-0.0,-0.0,-0.0,-0.0,-0.0,-0.0,-0.0,-0.0,0.0707,0.101,0.1112,0.1314,0.192,0.2526,0.3128,0.343,0.3732,0.393,0.4031,0.4131,0.4533,0.5135,0.556,0.6144,0.6556,0.6774,0.7006,0.7408,0.7897,0.7891,0.7617,0.7475,0.6439,0.6003,0.6072,0.6336,0.6746,0.6933,0.7245,0.7541,0.7851,0.8312,0.8678,0.9264,0.9748,1.0254,1.05,1.0432,1.0378,1.0337,1.027,1.0202,1.0202,1.0195,1.0188,1.0148,1.0127,1.0086,1.0066,1.01,1.0161,-2.2246,-2.2252,-2.1894,-2.1031,-1.9712,-1.7576,-1.6386,-1.6116,-1.5927,-1.5832,-1.5832,-1.5832,-1.5992,-1.5967,-1.5569,-1.5543,-1.5683,-1.4367,-1.2215,-0.9226,-0.8941,-0.8879,-0.892,-0.894,-0.894,-0.894,-0.8947,-0.9113,-0.8943,-0.8957,-0.9083,-0.8495,-0.6512,-0.5373,-0.4808,-0.4589,-0.4369,-0.3701,-0.2692,-0.157,-0.1009,-0.0,-0.0,-0.0,-0.0,-0.0,-0.0,-0.0,-0.0,-0.0,-0.0,-0.0,-0.0,-0.0,-0.0,-0.0,-0.0,-0.0,-0.0,-0.0,-0.0,-0.0,0.1819,0.2122,0.2223,0.2425,0.2826,0.343,0.4034,0.4336,0.4533,0.473,0.5031,0.5231,0.5536,0.6037,0.6524,0.7129,0.7455,0.7687,0.7936,0.8361,0.8771,0.8762,0.8627,0.8623,0.8491,0.8051,0.7485,0.7621,0.7758,0.7939,0.8127,0.8301,0.8641,0.9136,0.9525,0.9948,1.0306,1.0656,1.0649,1.0568,1.0507,1.0446,1.0399,1.0365,1.0358,1.0351,1.0358,1.0392,1.0432,1.0385,1.031,1.0304,1.0324,-2.2159,-2.2169,-2.1836,-2.1158,-2.0002,-1.7732,-1.6344,-1.5818,-1.5832,-1.5832,-1.5832,-1.5832,-1.5965,-1.5998,-1.5183,-1.5095,-1.5299,-1.3953,-1.1608,-0.964,-0.8953,-0.8934,-0.8899,-0.894,-0.894,-0.894,-0.894,-0.8836,-0.8608,-0.8523,-0.8647,-0.8078,-0.5926,-0.4467,-0.3804,-0.3698,-0.3701,-0.3367,-0.2468,-0.1346,-0.0561,-0.0,-0.0,-0.0,-0.0,-0.0,-0.0,-0.0,-0.0,-0.0,-0.0,-0.0,-0.0,-0.0,-0.0,-0.0,-0.0,-0.0,-0.0,-0.0,0.1819,0.2425,0.2932,0.3133,0.3232,0.3332,0.3732,0.4232,0.4834,0.5035,0.5331,0.5832,0.6237,0.6437,0.6542,0.6905,0.7316,0.7748,0.8091,0.8441,0.8587,0.8883,0.9057,0.9178,0.9155,0.9334,0.92,0.9112,0.8654,0.8424,0.8557,0.8806,0.8879,0.8934,0.9293,0.9697,0.9986,1.0273,1.0359,1.0697,1.0697,1.069,1.0629,1.0575,1.0541,1.0521,1.0507,1.0521,1.0548,1.0588,1.0602,1.0568,1.046,1.0412,1.0419,-2.189,-2.2349,-2.2187,-2.1585,-2.0529,-1.8118,-1.656,-1.5818,-1.5832,-1.5832,-1.5832,-1.5832,-1.5803,-1.5678,-1.4985,-1.4775,-1.4228,-1.3275,-1.1116,-0.9701,-0.8883,-0.8907,-0.8886,-0.8933,-0.8933,-0.894,-0.8823,-0.8712,-0.8491,-0.8269,-0.8171,-0.7733,-0.5365,-0.3689,-0.2798,-0.2466,-0.2917,-0.3031,-0.2244,-0.1121,-0.0,-0.0,-0.0,-0.0,-0.0,-0.0,-0.0,-0.0,-0.0,-0.0,-0.0,-0.0,-0.0,-0.0,-0.0,-0.0,-0.0,-0.0,0.1132,0.214,0.2831,0.3133,0.3534,0.3739,0.3836,0.4034,0.4533,0.5035,0.5636,0.5937,0.6237,0.6637,0.6936,0.7036,0.7166,0.7452,0.7878,0.8125,0.8474,0.8608,0.8866,0.9042,0.9218,0.932,0.9312,0.9652,0.9667,0.9687,0.9579,0.9335,0.9214,0.9335,0.9368,0.9426,0.9718,1.0136,1.0303,1.0464,1.067,1.0717,1.0711,1.0711,1.0717,1.069,1.0636,1.0636,1.0656,1.0663,1.0643,1.067,1.0677,1.0649,1.0616,1.0561,1.0534,-2.1543,-2.1928,-2.1778,-2.1007,-1.9642,-1.7949,-1.6635,-1.6008,-1.5832,-1.5832,-1.5832,-1.5832,-1.5642,-1.5478,-1.4836,-1.4252,-1.3512,-1.2545,-1.0741,-0.9302,-0.8807,-0.8817,-0.8804,-0.8906,-0.8933,-0.894,-0.883,-0.8712,-0.8269,-0.7832,-0.7621,-0.7065,-0.47,-0.3134,-0.2241,-0.2018,-0.2244,-0.2132,-0.1682,-0.0,-0.0,-0.0,-0.0,-0.0,-0.0,-0.0,-0.0,-0.0,-0.0,-0.0,-0.0,-0.0,-0.0,-0.0,-0.0,-0.0,-0.0,0.1054,0.1561,0.2367,0.2954,0.3439,0.4034,0.4437,0.4738,0.5039,0.5436,0.5837,0.6437,0.6942,0.7141,0.7341,0.7441,0.754,0.7717,0.7896,0.8137,0.8381,0.8621,0.875,0.8913,0.9089,0.9225,0.9327,0.9469,0.9686,0.9802,0.9808,0.97,0.9579,0.9579,0.9579,0.9741,0.9794,1.0114,1.031,1.046,1.0595,1.0683,1.0717,1.0717,1.0717,1.0717,1.0717,1.0711,1.0711,1.0704,1.0711,1.0704,1.0717,1.0717,1.0697,1.0677,1.067,1.0663,-2.1152,-2.115,-2.0837,-1.9868,-1.8224,-1.7296,-1.6664,-1.6183,-1.6008,-1.5832,-1.5832,-1.5832,-1.5629,-1.5356,-1.4737,-1.3761,-1.2824,-1.1816,-1.0641,-0.8962,-0.8716,-0.8673,-0.8852,-0.8845,-0.8893,-0.892,-0.8823,-0.8602,-0.7937,-0.7388,-0.673,-0.6061,-0.426,-0.2578,-0.157,-0.1682,-0.1794,-0.1346,-0.0,-0.0,-0.0,-0.0,-0.0,-0.0,-0.0,-0.0,-0.0,-0.0,-0.0,-0.0,-0.0,-0.0,-0.0,-0.0,-0.0,0.1544,0.1857,0.2043,0.232,0.3018,0.3696,0.417,0.4742,0.534,0.5636,0.5937,0.6237,0.6637,0.7141,0.7341,0.754,0.764,0.7739,0.7772,0.7945,0.816,0.83,0.8574,0.875,0.8852,0.8906,0.9089,0.9286,0.9388,0.9496,0.972,0.9822,0.9822,0.9822,0.9822,0.9829,0.9836,0.9903,0.9985,1.0161,1.0344,1.0473,1.0588,1.0683,1.0717,1.0717,1.0717,1.0717,1.0717,1.0717,1.0717,1.0717,1.0717,1.0717,1.0717,1.0717,1.0717,1.0717,1.0717,1.085,-2.043,-2.0722,-2.0476,-1.947,-1.8097,-1.755,-1.6978,-1.6359,-1.6129,-1.6021,-1.5832,-1.5737,-1.5547,-1.5166,-1.458,-1.3619,-1.237,-1.1521,-1.0454,-0.933,-0.8625,-0.8563,-0.8776,-0.8764,-0.8838,-0.8906,-0.8712,-0.8269,-0.7493,-0.672,-0.594,-0.4823,-0.3141,-0.1682,-0.0785,-0.1121,-0.1234,-0.0673,-0.0,-0.0,-0.0,-0.0,-0.0,-0.0,-0.0,-0.0,-0.0,-0.0,-0.0,-0.0,-0.0,-0.0,-0.0,-0.0,0.1903,0.2899,0.3091,0.3159,0.3439,0.3906,0.4568,0.5026,0.5592,0.6158,0.6642,0.6836,0.7042,0.7341,0.764,0.7739,0.7952,0.7952,0.8072,0.8126,0.8201,0.8343,0.8486,0.8676,0.8879,0.8913,0.8933,0.9089,0.9293,0.9442,0.9564,0.9673,0.9781,0.9822,0.9822,0.9822,0.9849,0.9869,0.9964,1.0073,1.0249,1.0378,1.0507,1.0609,1.0704,1.0717,1.0717,1.0717,1.0717,1.0717,1.0717,1.0717,1.0717,1.0717,1.0717,1.0717,1.0717,1.0717,1.085,1.0982,1.0982,-1.9883,-2.0275,-1.9956,-1.9252,-1.8344,-1.7818,-1.7251,-1.6718,-1.6462,-1.6211,-1.5927,-1.5832,-1.5547,-1.5166,-1.4688,-1.3715,-1.2467,-1.1609,-1.0582,-0.9461,-0.8547,-0.8343,-0.8401,-0.8588,-0.8777,-0.8749,-0.8367,-0.7826,-0.6937,-0.6158,-0.527,-0.3924,-0.213,-0.0,-0.0,-0.0,-0.0,-0.0,-0.0,-0.0,-0.0,-0.0,-0.0,-0.0,-0.0,-0.0,-0.0,-0.0,-0.0,-0.0,-0.0,-0.0,-0.0,-0.0,0.2244,0.3022,0.3559,0.4079,0.4466,0.4939,0.5575,0.5921,0.6369,0.7041,0.7147,0.7341,0.754,0.7839,0.7839,0.7939,0.8039,0.8174,0.8235,0.8296,0.8425,0.8574,0.8689,0.8825,0.8913,0.8927,0.8974,0.9083,0.9259,0.9381,0.9523,0.9727,0.9815,0.9822,0.9822,0.9842,0.9863,0.9924,1.0025,1.0175,1.0358,1.046,1.0534,1.0629,1.0717,1.0717,1.0717,1.0717,1.0717,1.0717,1.0717,1.0717,1.0717,1.0717,1.0717,1.0717,1.0717,1.0717,1.0989,1.1254,1.1799,-1.9492,-1.979,-1.9385,-1.9057,-1.8711,-1.8038,-1.7523,-1.7161,-1.675,-1.6452,-1.6224,-1.5927,-1.5629,-1.5356,-1.4879,-1.3811,-1.2845,-1.1883,-1.0735,-0.9581,-0.8456,-0.8248,-0.8209,-0.8415,-0.8622,-0.8491,-0.8121,-0.7482,-0.6599,-0.5824,-0.4819,-0.3248,-0.0,-0.0,-0.0,-0.0,-0.0,-0.0,-0.0,-0.0,-0.0,-0.0,-0.0,-0.0,-0.0,-0.0,-0.0,-0.0,-0.0,-0.0,0.1121,0.1682,0.2018,0.2356,0.2805,0.3586,0.4254,0.4772,0.5166,0.5778,0.6308,0.684,0.7291,0.761,0.7711,0.7779,0.7979,0.7979,0.8079,0.8119,0.8221,0.8309,0.8384,0.8459,0.8608,0.8743,0.8845,0.8927,0.8933,0.894,0.9028,0.9117,0.9245,0.9367,0.953,0.9741,0.9822,0.9822,0.9829,0.9863,0.9897,0.9998,1.0114,1.0283,1.0453,1.0548,1.0602,1.0649,1.0717,1.0717,1.0717,1.0717,1.0717,1.0717,1.0717,1.0724,1.0717,1.0717,1.0717,1.0738,1.085,1.0989,1.1401,1.1806,1.2624,-1.9291,-1.962,-1.9126,-1.8939,-1.8878,-1.8228,-1.7819,-1.7523,-1.698,-1.6707,-1.6425,-1.6021,-1.5737,-1.5452,-1.4975,-1.41,-1.3221,-1.2273,-1.0993,-0.9632,-0.877,-0.8247,-0.8077,-0.8401,-0.8689,-0.8484,-0.8128,-0.7371,-0.6487,-0.5712,-0.426,-0.2354,-0.0994,-0.0,-0.0,-0.0,-0.0,-0.0,-0.0,-0.0,-0.0,-0.0,-0.0,-0.0,-0.0,-0.0,-0.0,-0.0,-0.0,-0.0,0.1794,0.2468,0.2917,0.3477,0.4036,0.448,0.515,0.5695,0.6203,0.6707,0.7243,0.7724,0.8052,0.7891,0.8037,0.8126,0.8228,0.8228,0.8235,0.8255,0.8336,0.8418,0.8492,0.8547,0.8655,0.8777,0.8893,0.8927,0.894,0.8994,0.9062,0.9191,0.9347,0.9476,0.9605,0.9761,0.9815,0.9822,0.9822,0.9869,0.9917,1.0066,1.0195,1.0324,1.0466,1.0609,1.0677,1.0711,1.0717,1.0717,1.0717,1.0717,1.0717,1.0717,1.0724,1.0724,1.0724,1.0772,1.0778,1.0925,1.1003,1.1254,1.1821,1.2672,1.3678]},{"header":{"parameterUnit":"m.s-1","parameterCategory":1,"la1":31.0,"la2":29.5877,"lo1":-88.7671,"lo2":-86.6584,"dy":0.0162,"dx":0.0185,"nx":115,"ny":88,"refTime":"2024-04-04T06:00:00:Z","depth":0,"parameterNumber":3,"parameterNumberName":"V-component_of_WINDS"},"data":[0.0,0.0,0.0,0.0,0.0,0.0,0.0,0.0,0.0,0.0,0.0,0.0,0.0,0.0,0.0,0.0,0.0,0.0,0.0,0.0,0.0,0.0,0.0,0.0,0.0,0.0,0.0,0.0,0.0,0.0,0.0,0.0,0.0,0.0,0.0,0.0,0.0,0.0,0.0,0.0,0.0,0.0,0.0,0.0,0.0,0.0,0.0,0.0,0.0,0.0,0.0,0.0,0.0,0.0,0.0,0.0,0.0,0.0,0.0,0.0,0.0,0.0,0.0,0.0,0.0,0.0,0.0,0.0,0.0,0.0,0.0,0.0,0.0,0.0,0.0,0.0,0.0,0.0,0.0,0.0,0.0,0.0,0.0,0.0,0.0,0.0,0.0,0.0,0.0,0.0,0.0,0.0,0.0,0.0,0.0,0.0,0.0,0.0,0.0,0.0,0.0,0.0,0.0,0.0,0.0,0.0,0.0,0.0,0.0,0.0,0.0,0.0,0.0,0.0,0.0,0.0,0.0,0.0,0.0,0.0,0.0,0.0,0.0,0.0,0.0,0.0,0.0,0.0,0.0,0.0,0.0,0.0,0.0,0.0,0.0,0.0,0.0,0.0,0.0,0.0,0.0,0.0,0.0,0.0,0.0,0.0,0.0,0.0,0.0,0.0,0.0,0.0,0.0,0.0,0.0,0.0,0.0,0.0,0.0,0.0,0.0,0.0,0.0,0.0,0.0,0.0,0.0,0.0,0.0,0.0,0.0,0.0,0.0,0.0,0.0,0.0,0.0,0.0,0.0,0.0,0.0,0.0,0.0,0.0,0.0,0.0,0.0,0.0,0.0,0.0,0.0,0.0,0.0,0.0,0.0,0.0,0.0,0.0,0.0,0.0,0.0,0.0,0.0,0.0,0.0,0.0,0.0,0.0,0.0,0.0,0.0,0.0,0.0,0.0,0.0,0.0,0.0,0.0,0.0,0.0,0.0,0.0,0.0,0.0,0.0,0.0,0.0,0.0,0.0,0.0,0.0,0.0,0.0,0.0,0.0,0.0,0.0,0.0,0.0,0.0,0.0,0.0,0.0,0.0,0.0,0.0,0.0,0.0,0.0,0.0,0.0,0.0,0.0,0.0,0.0,0.0,0.0,0.0,0.0,0.0,0.0,0.0,0.0,0.0,0.0,0.0,0.0,0.0,0.0,0.0,0.0,0.0,0.0,0.0,0.0,0.0,0.0,0.0,0.0,0.0,0.0,0.0,0.0,0.0,0.0,0.0,0.0,0.0,0.0,0.0,0.0,0.0,0.0,0.0,0.0,0.0,0.0,0.0,0.0,0.0,0.0,0.0,0.0,0.0,0.0,0.0,0.0,0.0,0.0,0.0,0.0,0.0,0.0,0.0,0.0,0.0,0.0,0.0,0.0,0.0,0.0,0.0,0.0,0.0,0.0,0.0,0.0,0.0,0.0,0.0,0.0,0.0,0.0,0.0,0.0,0.0,0.0,0.0,0.0,0.0,0.0,0.0,0.0,0.0,0.0,0.0,0.0,0.0,0.0,0.0,0.0,0.0,0.0,0.0,0.0,0.0,0.0,0.0,0.0,0.0,0.0,0.0,0.0,0.0,0.0,0.0,0.0,0.0,0.0,0.0,0.0,0.0,0.0,0.0,0.0,0.0,0.0,0.0,0.0,0.0,0.0,0.0,0.0,0.0,0.0,0.0,0.0,0.0,0.0,0.0,0.0,0.0,0.0,0.0,0.0,0.0,0.0,0.0,0.0,0.0,0.0,0.0,0.0,0.0,0.0,0.0,0.0,0.0,0.0,0.0,0.0,0.0,0.0,0.0,0.0,0.0,0.0,0.0,0.0,0.0,0.0,0.0,0.0,0.0,0.0,0.0,0.0,0.0,0.0,0.0,0.0,0.0,0.0,0.0,0.0,0.0,0.0,0.0,0.0,0.0,0.0,0.0,0.0,0.0,0.0,0.0,0.0,0.0,0.0,0.0,0.0,0.0,0.0,0.0,0.0,0.0,0.0,0.0,0.0,0.0,0.0,0.0,0.0,0.0,0.0,0.0,0.0,0.0,0.0,0.0,0.0,0.0,0.0,0.0,0.0,0.0,0.0,0.0,0.0,0.0,0.0,0.0,0.0,0.0,0.0,0.0,0.0,0.0,0.0,0.0,0.0,0.0,0.0,0.0,0.0,0.0,0.0,0.0,0.0,0.0,0.0,0.0,0.0,0.0,0.0,0.0,0.0,0.0,0.0,0.0,0.0,0.0,0.0,0.0,0.0,0.0,0.0,0.0,0.0,0.0,0.0,0.0,0.0,0.0,0.0,0.0,0.0,0.0,0.0,0.0,0.0,0.0,0.0,0.0,0.0,0.0,0.0,0.0,0.0,0.0,0.0,0.0,0.0,0.0,0.0,0.0,0.0,0.0,0.0,0.0,0.0,0.0,0.0,0.0,0.0,0.0,0.0,0.0,0.0,0.0,0.0,0.0,0.0,0.0,0.0,0.0,0.0,0.0,0.0,0.0,0.0,0.0,0.0,0.0,0.0,0.0,0.0,0.0,0.0,0.0,0.0,0.0,0.0,0.0,0.0,0.0,0.0,0.0,0.0,0.0,0.0,0.0,0.0,0.0,0.0,0.0,0.0,0.0,0.0,0.0,0.0,0.0,0.0,0.0,0.0,0.0,0.0,0.0,0.0,0.0,0.0,0.0,0.0,0.0,0.0,0.0,0.0,0.0,0.0,0.0,0.0,0.0,0.0,0.0,0.0,0.0,0.0,0.0,0.0,0.0,0.0,0.0,0.0,0.0,0.0,0.0,0.0,0.0,0.0,0.0,0.0,0.0,0.0,0.0,0.0,0.0,0.0,0.0,0.0,0.0,0.0,0.0,0.0,0.0,0.0,0.0,0.0,0.0,0.0,0.0,0.0,0.0,0.0,0.0,0.0,0.0,0.0,0.0,0.0,0.0,0.0,0.0,0.0,0.0,0.0,0.0,0.0,0.0,0.0,0.0,0.0,0.0,0.0,0.0,0.0,0.0,0.0,0.0,0.0,0.0,0.0,0.0,0.0,0.0,0.0,0.0,0.0,0.0,0.0,0.0,0.0,0.0,0.0,0.0,0.0,0.0,0.0,0.0,0.0,0.0,0.0,0.0,0.0,0.0,0.0,0.0,0.0,0.0,0.0,0.0,0.0,0.0,0.0,0.0,0.0,0.0,0.0,0.0,0.0,0.0,0.0,0.0,0.0,0.0,0.0,0.0,0.0,0.0,0.0,0.0,0.0,0.0,0.0,0.0,0.0,0.0,0.0,0.0,0.0,0.0,0.0,0.0,0.0,0.0,0.0,0.0,0.0,0.0,0.0,0.0,0.0,0.0,0.0,0.0,0.0,0.0,0.0,0.0,0.0,0.0,0.0,0.0,0.0,0.0,0.0,0.0,0.0,0.0,0.0,0.0,0.0,0.0,0.0,0.0,0.0,0.0,0.0,0.0,0.0,0.0,0.0,0.0,0.0,0.0,0.0,0.0,0.0,0.0,0.0,0.0,0.0,0.0,0.0,0.0,0.0,0.0,0.0,0.0,0.0,0.0,0.0,0.0,0.0,0.0,0.0,0.0,0.0,0.0,0.0,0.0,0.0,0.0,0.0,0.0,0.0,0.0,0.0,0.0,0.0,0.0,0.0,0.0,0.0,0.0,0.0,0.0,0.0,0.0,0.0,0.0,0.0,0.0,0.0,0.0,0.0,0.0,0.0,0.0,0.0,0.0,0.0,0.0,0.0,0.0,0.0,0.0,0.0,0.0,0.0,0.0,0.0,0.0,0.0,0.0,0.0,0.0,0.0,0.0,0.0,0.0,0.0,0.0,0.0,0.0,0.0,0.0,0.0,0.0,0.0,0.0,0.0,0.0,0.0,0.0,0.0,0.0,0.0,0.0,0.0,0.0,0.0,0.0,0.0,0.0,0.0,0.0,0.0,0.0,0.0,0.0,0.0,0.0,0.0,0.0,0.0,0.0,0.0,0.0,0.0,0.0,0.0,0.0,0.0,0.0,0.0,0.0,0.0,0.0,0.0,0.0,0.0,0.0,0.0,0.0,0.0,0.0,0.0,0.0,0.0,0.0,0.0,0.0,0.0,0.0,0.0,0.0,0.0,0.0,0.0,0.0,0.0,0.0,0.0,0.0,0.0,0.0,0.0,0.0,0.0,0.0,0.0,0.0,0.0,0.0,0.0,0.0,0.0,0.0,0.0,0.0,0.0,0.0,0.0,0.0,0.0,0.0,-1.2871,0.0,0.0,0.0,0.0,0.0,0.0,0.0,0.0,0.0,0.0,0.0,0.0,0.0,0.0,0.0,0.0,0.0,0.0,0.0,0.0,0.0,0.0,0.0,0.0,0.0,0.0,0.0,0.0,0.0,0.0,0.0,0.0,0.0,0.0,0.0,0.0,0.0,0.0,0.0,0.0,0.0,0.0,0.0,0.0,0.0,0.0,0.0,0.0,0.0,0.0,0.0,0.0,0.0,0.0,0.0,0.0,0.0,0.0,0.0,0.0,0.0,0.0,0.0,0.0,0.0,0.0,0.0,0.0,0.0,0.0,0.0,0.0,0.0,0.0,0.0,0.0,0.0,0.0,0.0,0.0,0.0,0.0,0.0,0.0,0.0,0.0,0.0,0.0,0.0,0.0,0.0,0.0,0.0,0.0,0.0,0.0,0.0,0.0,0.0,0.0,0.0,0.0,0.0,0.0,0.0,0.0,0.0,0.0,0.0,0.0,-1.4674,-1.414,-1.3716,-1.343,-1.319,0.0,0.0,0.0,0.0,0.0,0.0,0.0,0.0,0.0,0.0,0.0,0.0,0.0,0.0,0.0,0.0,0.0,0.0,0.0,0.0,0.0,0.0,0.0,0.0,0.0,0.0,0.0,0.0,0.0,0.0,0.0,0.0,0.0,0.0,0.0,0.0,0.0,0.0,0.0,0.0,0.0,0.0,0.0,0.0,0.0,0.0,0.0,0.0,0.0,0.0,0.0,0.0,0.0,0.0,0.0,0.0,0.0,0.0,0.0,0.0,0.0,0.0,0.0,0.0,0.0,0.0,0.0,0.0,0.0,0.0,0.0,0.0,0.0,0.0,0.0,0.0,0.0,0.0,0.0,0.0,0.0,0.0,0.0,0.0,0.0,0.0,0.0,0.0,0.0,0.0,0.0,0.0,0.0,0.0,0.0,0.0,0.0,0.0,0.0,0.0,0.0,0.0,0.0,0.0,0.0,0.0,0.0,0.0,0.0,0.0,0.0,0.0,-1.4186,-1.381,-1.3457,0.0,0.0,0.0,0.0,0.0,0.0,0.0,0.0,0.0,0.0,0.0,0.0,0.0,0.0,0.0,0.0,0.0,0.0,0.0,0.0,0.0,0.0,0.0,0.0,0.0,0.0,0.0,0.0,0.0,0.0,0.0,0.0,0.0,0.0,0.0,0.0,0.0,0.0,0.0,0.0,0.0,0.0,0.0,0.0,0.0,0.0,0.0,0.0,0.0,0.0,0.0,0.0,0.0,0.0,0.0,0.0,0.0,0.0,0.0,0.0,0.0,0.0,0.0,0.0,0.0,0.0,0.0,0.0,0.0,0.0,0.0,0.0,0.0,0.0,0.0,0.0,0.0,0.0,0.0,0.0,0.0,0.0,0.0,0.0,0.0,0.0,0.0,0.0,0.0,0.0,0.0,0.0,0.0,0.0,0.0,0.0,0.0,0.0,0.0,0.0,0.0,0.0,0.0,0.0,0.0,0.0,0.0,0.0,0.0,0.0,-1.5424,-1.5062,-1.4719,0.0,-1.36,0.0,0.0,0.0,0.0,0.0,0.0,0.0,0.0,0.0,0.0,0.0,0.0,0.0,0.0,0.0,0.0,0.0,0.0,0.0,0.0,0.0,0.0,0.0,0.0,0.0,0.0,0.0,0.0,0.0,0.0,0.0,0.0,0.0,0.0,0.0,0.0,0.0,0.0,0.0,0.0,0.0,0.0,0.0,0.0,0.0,0.0,0.0,0.0,0.0,0.0,0.0,0.0,0.0,0.0,0.0,0.0,0.0,0.0,0.0,0.0,0.0,0.0,0.0,0.0,0.0,0.0,0.0,0.0,0.0,0.0,0.0,0.0,0.0,0.0,0.0,0.0,0.0,0.0,0.0,0.0,0.0,0.0,0.0,0.0,0.0,0.0,0.0,0.0,0.0,0.0,0.0,0.0,0.0,0.0,0.0,0.0,0.0,0.0,0.0,0.0,0.0,0.0,0.0,0.0,0.0,0.0,0.0,0.0,0.0,0.0,-1.578,-1.5424,-1.4926,-1.4419,0.0,0.0,0.0,0.0,0.0,0.0,0.0,0.0,0.0,0.0,0.0,0.0,0.0,0.0,0.0,0.0,0.0,0.0,0.0,0.0,0.0,0.0,0.0,0.0,0.0,0.0,0.0,0.0,0.0,0.0,0.0,0.0,0.0,0.0,0.0,0.0,0.0,0.0,0.0,0.0,0.0,0.0,0.0,0.0,0.0,0.0,0.0,0.0,0.0,0.0,0.0,0.0,0.0,0.0,0.0,0.0,0.0,0.0,0.0,0.0,0.0,0.0,0.0,0.0,0.0,0.0,0.0,0.0,0.0,0.0,0.0,0.0,0.0,0.0,0.0,0.0,0.0,0.0,0.0,0.0,0.0,0.0,0.0,0.0,0.0,0.0,0.0,0.0,0.0,0.0,0.0,0.0,0.0,0.0,0.0,0.0,0.0,0.0,0.0,0.0,0.0,0.0,0.0,0.0,0.0,0.0,0.0,0.0,0.0,0.0,-1.6455,-1.6264,-1.5882,-1.5222,-1.4675,-1.4246,0.0,0.0,0.0,0.0,0.0,0.0,0.0,0.0,0.0,0.0,0.0,0.0,0.0,0.0,0.0,0.0,0.0,0.0,0.0,0.0,0.0,0.0,0.0,0.0,0.0,0.0,0.0,0.0,0.0,0.0,0.0,0.0,0.0,0.0,0.0,0.0,0.0,0.0,0.0,0.0,0.0,0.0,0.0,0.0,0.0,0.0,0.0,0.0,0.0,0.0,0.0,0.0,0.0,0.0,0.0,0.0,0.0,0.0,0.0,0.0,0.0,0.0,0.0,0.0,0.0,0.0,0.0,0.0,0.0,0.0,0.0,0.0,0.0,0.0,0.0,0.0,0.0,0.0,0.0,0.0,0.0,0.0,0.0,0.0,0.0,0.0,0.0,0.0,0.0,0.0,0.0,0.0,0.0,0.0,0.0,0.0,0.0,0.0,0.0,0.0,0.0,0.0,0.0,0.0,0.0,0.0,0.0,0.0,-1.6479,-1.6935,-1.6983,-1.6638,-1.5749,-1.5012,0.0,0.0,0.0,0.0,0.0,0.0,0.0,0.0,0.0,0.0,0.0,0.0,0.0,0.0,0.0,0.0,0.0,0.0,0.0,0.0,0.0,0.0,0.0,0.0,0.0,0.0,0.0,0.0,0.0,0.0,0.0,0.0,0.0,0.0,0.0,0.0,0.0,0.0,0.0,0.0,0.0,0.0,0.0,0.0,0.0,0.0,0.0,0.0,0.0,0.0,0.0,0.0,0.0,0.0,0.0,0.0,0.0,0.0,0.0,0.0,0.0,0.0,0.0,0.0,0.0,0.0,0.0,0.0,0.0,0.0,0.0,0.0,0.0,0.0,0.0,0.0,0.0,0.0,0.0,0.0,0.0,0.0,0.0,0.0,0.0,0.0,0.0,0.0,0.0,0.0,0.0,0.0,0.0,0.0,0.0,0.0,0.0,0.0,0.0,0.0,0.0,0.0,0.0,0.0,0.0,0.0,0.0,0.0,0.0,-1.6504,-1.6635,-1.6647,-1.6515,-1.6009,-1.5429,0.0,0.0,0.0,0.0,0.0,0.0,0.0,0.0,0.0,0.0,0.0,0.0,0.0,0.0,0.0,0.0,0.0,0.0,0.0,0.0,0.0,0.0,0.0,0.0,0.0,0.0,0.0,0.0,0.0,0.0,0.0,0.0,0.0,0.0,0.0,0.0,0.0,0.0,0.0,0.0,0.0,0.0,0.0,0.0,0.0,0.0,0.0,0.0,0.0,0.0,0.0,0.0,0.0,0.0,0.0,0.0,0.0,0.0,0.0,0.0,0.0,0.0,0.0,0.0,0.0,0.0,0.0,0.0,0.0,0.0,0.0,0.0,0.0,0.0,0.0,0.0,0.0,0.0,0.0,0.0,0.0,0.0,0.0,0.0,0.0,0.0,0.0,0.0,0.0,0.0,0.0,0.0,0.0,0.0,0.0,0.0,0.0,0.0,0.0,0.0,0.0,0.0,0.0,0.0,0.0,0.0,0.0,0.0,0.0,-1.7049,0.0,-1.694,-1.6916,-1.6564,-1.5898,0.0,0.0,0.0,0.0,0.0,0.0,0.0,0.0,0.0,0.0,0.0,0.0,0.0,0.0,0.0,0.0,0.0,0.0,0.0,0.0,0.0,0.0,0.0,0.0,0.0,0.0,0.0,0.0,0.0,0.0,0.0,0.0,0.0,0.0,0.0,0.0,0.0,0.0,0.0,0.0,0.0,0.0,0.0,0.0,0.0,0.0,0.0,0.0,0.0,0.0,0.0,0.0,0.0,0.0,0.0,0.0,0.0,0.0,0.0,0.0,0.0,0.0,0.0,0.0,0.0,0.0,0.0,0.0,0.0,0.0,0.0,0.0,0.0,0.0,0.0,0.0,0.0,0.0,0.0,0.0,0.0,0.0,0.0,0.0,0.0,0.0,0.0,0.0,0.0,0.0,0.0,0.0,0.0,0.0,0.0,0.0,0.0,0.0,0.0,0.0,0.0,0.0,0.0,0.0,0.0,0.0,0.0,0.0,-1.7232,-1.8129,-1.8179,-1.8106,-1.8012,-1.7442,-1.638,0.0,0.0,0.0,0.0,0.0,0.0,0.0,0.0,0.0,0.0,0.0,0.0,0.0,0.0,0.0,0.0,0.0,0.0,0.0,0.0,0.0,0.0,0.0,0.0,0.0,0.0,0.0,0.0,0.0,0.0,0.0,0.0,0.0,0.0,0.0,0.0,0.0,0.0,0.0,0.0,0.0,0.0,0.0,0.0,0.0,0.0,0.0,0.0,0.0,0.0,0.0,0.0,0.0,0.0,0.0,0.0,0.0,0.0,0.0,0.0,0.0,0.0,0.0,0.0,0.0,0.0,0.0,0.0,0.0,0.0,0.0,0.0,0.0,0.0,0.0,0.0,0.0,0.0,0.0,0.0,0.0,0.0,0.0,0.0,0.0,0.0,0.0,0.0,0.0,0.0,0.0,0.0,0.0,0.0,0.0,0.0,0.0,0.0,0.0,0.0,0.0,0.0,0.0,0.0,0.0,0.0,0.0,0.0,0.0,-1.8439,-1.87,-1.8805,-1.8707,-1.8182,-1.7235,0.0,0.0,0.0,0.0,0.0,0.0,0.0,0.0,0.0,0.0,0.0,0.0,0.0,0.0,0.0,0.0,0.0,0.0,0.0,0.0,0.0,0.0,0.0,0.0,0.0,0.0,0.0,0.0,0.0,0.0,0.0,0.0,0.0,0.0,0.0,0.0,0.0,0.0,0.0,0.0,0.0,0.0,0.0,0.0,0.0,0.0,0.0,0.0,0.0,0.0,0.0,0.0,0.0,0.0,0.0,0.0,0.0,0.0,0.0,0.0,0.0,0.0,0.0,0.0,0.0,0.0,0.0,0.0,0.0,0.0,0.0,0.0,0.0,0.0,0.0,0.0,0.0,0.0,0.0,0.0,0.0,0.0,0.0,0.0,0.0,0.0,0.0,0.0,0.0,0.0,0.0,0.0,0.0,0.0,0.0,0.0,0.0,0.0,0.0,0.0,0.0,0.0,0.0,0.0,0.0,0.0,0.0,0.0,0.0,-2.0641,-2.0732,-2.0553,-2.0143,-1.956,-1.8453,-1.6898,0.0,0.0,0.0,0.0,0.0,0.0,0.0,0.0,0.0,0.0,0.0,0.0,0.0,0.0,0.0,0.0,0.0,0.0,0.0,0.0,0.0,0.0,0.0,0.0,0.0,0.0,0.0,0.0,0.0,0.0,0.0,0.0,0.0,0.0,0.0,0.0,0.0,0.0,0.0,0.0,0.0,0.0,0.0,0.0,0.0,0.0,0.0,0.0,0.0,0.0,0.0,0.0,0.0,0.0,0.0,0.0,0.0,0.0,0.0,0.0,0.0,0.0,0.0,0.0,0.0,0.0,0.0,0.0,0.0,0.0,0.0,0.0,0.0,0.0,0.0,0.0,0.0,0.0,0.0,0.0,0.0,0.0,0.0,0.0,0.0,0.0,0.0,0.0,0.0,0.0,0.0,0.0,0.0,0.0,0.0,0.0,0.0,0.0,0.0,0.0,0.0,0.0,0.0,0.0,0.0,0.0,0.0,0.0,-2.4476,-2.3955,-2.3214,-2.2227,-2.1447,-1.994,0.0,0.0,0.0,0.0,0.0,0.0,0.0,0.0,0.0,0.0,0.0,0.0,0.0,0.0,0.0,0.0,0.0,0.0,0.0,0.0,0.0,0.0,0.0,0.0,0.0,0.0,0.0,0.0,0.0,0.0,0.0,0.0,0.0,0.0,0.0,0.0,0.0,0.0,0.0,0.0,0.0,0.0,0.0,0.0,0.0,0.0,0.0,0.0,0.0,0.0,0.0,0.0,0.0,0.0,0.0,0.0,0.0,0.0,0.0,0.0,0.0,0.0,0.0,0.0,0.0,0.0,0.0,0.0,0.0,0.0,0.0,0.0,0.0,0.0,0.0,0.0,0.0,0.0,0.0,0.0,0.0,0.0,0.0,0.0,0.0,0.0,0.0,0.0,0.0,0.0,0.0,0.0,0.0,0.0,0.0,0.0,0.0,0.0,0.0,0.0,0.0,0.0,0.0,0.0,0.0,0.0,0.0,0.0,0.0,-2.706,-2.752,-2.6803,-2.4762,-2.3039,-2.1234,0.0,0.0,0.0,0.0,0.0,0.0,0.0,0.0,0.0,0.0,0.0,0.0,0.0,0.0,0.0,0.0,0.0,0.0,0.0,0.0,0.0,0.0,0.0,0.0,0.0,0.0,0.0,0.0,0.0,0.0,0.0,0.0,0.0,0.0,0.0,0.0,0.0,0.0,0.0,0.0,0.0,0.0,0.0,0.0,0.0,0.0,0.0,0.0,0.0,0.0,0.0,0.0,0.0,0.0,0.0,0.0,0.0,0.0,0.0,0.0,0.0,0.0,0.0,0.0,0.0,0.0,0.0,0.0,0.0,0.0,0.0,0.0,0.0,0.0,0.0,0.0,0.0,0.0,0.0,0.0,0.0,0.0,0.0,0.0,0.0,0.0,0.0,0.0,0.0,0.0,0.0,0.0,0.0,0.0,0.0,0.0,0.0,0.0,0.0,0.0,0.0,0.0,0.0,0.0,0.0,0.0,0.0,0.0,-2.6462,-2.8742,-3.0029,-2.9859,-2.8198,-2.537,-2.2808,0.0,0.0,0.0,0.0,0.0,0.0,0.0,0.0,0.0,0.0,0.0,0.0,0.0,0.0,0.0,0.0,0.0,0.0,0.0,0.0,0.0,0.0,0.0,0.0,0.0,0.0,0.0,0.0,0.0,0.0,0.0,0.0,0.0,0.0,0.0,0.0,0.0,0.0,0.0,0.0,0.0,0.0,0.0,0.0,0.0,0.0,0.0,0.0,0.0,0.0,0.0,0.0,0.0,0.0,0.0,0.0,0.0,0.0,0.0,0.0,0.0,0.0,0.0,0.0,0.0,0.0,0.0,0.0,0.0,0.0,0.0,0.0,0.0,0.0,0.0,0.0,0.0,0.0,0.0,0.0,0.0,0.0,0.0,0.0,0.0,0.0,0.0,0.0,0.0,0.0,0.0,0.0,0.0,0.0,0.0,0.0,0.0,0.0,0.0,0.0,0.0,0.0,0.0,0.0,0.0,0.0,0.0,0.0,-2.8207,-2.9901,-3.1718,-3.241,-3.1709,-2.7958,-2.4502,0.0,0.0,0.0,0.0,0.0,0.0,0.0,0.0,0.0,0.0,0.0,0.0,0.0,0.0,0.0,0.0,0.0,0.0,0.0,0.0,0.0,0.0,0.0,0.0,0.0,0.0,0.0,0.0,0.0,0.0,0.0,0.0,0.0,0.0,0.0,0.0,0.0,0.0,0.0,0.0,0.0,0.0,0.0,0.0,0.0,0.0,0.0,0.0,0.0,0.0,0.0,0.0,0.0,0.0,0.0,0.0,0.0,0.0,0.0,0.0,0.0,0.0,0.0,0.0,0.0,0.0,0.0,0.0,0.0,0.0,0.0,0.0,0.0,0.0,0.0,0.0,0.0,0.0,0.0,0.0,0.0,0.0,0.0,0.0,0.0,0.0,0.0,0.0,0.0,0.0,0.0,0.0,0.0,0.0,0.0,0.0,0.0,0.0,0.0,0.0,0.0,0.0,0.0,0.0,0.0,0.0,0.0,0.0,-2.929,-3.2075,-3.2981,-3.3186,-3.2854,-2.9049,-2.5845,0.0,0.0,0.0,0.0,0.0,0.0,0.0,0.0,0.0,0.0,0.0,0.0,0.0,0.0,0.0,0.0,0.0,0.0,0.0,0.0,0.0,0.0,0.0,0.0,0.0,0.0,0.0,0.0,0.0,0.0,0.0,0.0,0.0,0.0,0.0,0.0,0.0,0.0,0.0,0.0,0.0,0.0,0.0,0.0,0.0,0.0,0.0,0.0,-1.72,0.0,0.0,0.0,0.0,0.0,0.0,0.0,0.0,0.0,0.0,0.0,0.0,0.0,0.0,0.0,0.0,0.0,0.0,0.0,0.0,0.0,0.0,0.0,0.0,0.0,0.0,0.0,0.0,0.0,0.0,0.0,0.0,0.0,0.0,0.0,0.0,0.0,0.0,0.0,0.0,0.0,0.0,0.0,0.0,0.0,0.0,0.0,0.0,0.0,0.0,0.0,0.0,0.0,0.0,0.0,0.0,0.0,0.0,0.0,-3.086,-3.305,-3.4147,-3.4327,-3.3456,-3.0495,-2.7566,0.0,0.0,0.0,0.0,0.0,0.0,0.0,0.0,0.0,0.0,0.0,0.0,0.0,0.0,0.0,0.0,0.0,0.0,0.0,0.0,0.0,0.0,0.0,0.0,0.0,0.0,0.0,0.0,0.0,0.0,0.0,0.0,0.0,0.0,0.0,0.0,0.0,0.0,0.0,0.0,0.0,0.0,0.0,0.0,0.0,0.0,0.0,0.0,0.0,0.0,0.0,0.0,0.0,0.0,0.0,0.0,0.0,0.0,0.0,0.0,0.0,0.0,0.0,0.0,0.0,0.0,0.0,0.0,0.0,0.0,0.0,0.0,0.0,0.0,0.0,0.0,0.0,0.0,0.0,0.0,0.0,0.0,0.0,0.0,0.0,0.0,0.0,0.0,0.0,0.0,0.0,0.0,0.0,0.0,0.0,0.0,0.0,0.0,0.0,0.0,0.0,0.0,0.0,0.0,0.0,0.0,0.0,-2.9762,-3.2453,-3.3779,-3.5309,-3.5453,-3.4159,-3.1894,-2.9059,-2.5688,0.0,0.0,0.0,0.0,0.0,0.0,0.0,0.0,0.0,0.0,0.0,0.0,0.0,0.0,0.0,0.0,0.0,0.0,0.0,0.0,0.0,0.0,0.0,0.0,0.0,0.0,0.0,0.0,0.0,0.0,0.0,0.0,0.0,0.0,0.0,0.0,0.0,0.0,-1.6735,-1.7498,0.0,0.0,0.0,0.0,0.0,0.0,0.0,0.0,-1.8329,0.0,0.0,0.0,0.0,0.0,0.0,0.0,0.0,0.0,0.0,0.0,0.0,0.0,0.0,0.0,0.0,0.0,0.0,0.0,0.0,0.0,0.0,0.0,0.0,0.0,0.0,0.0,0.0,0.0,0.0,0.0,0.0,0.0,0.0,0.0,0.0,0.0,0.0,0.0,0.0,0.0,0.0,0.0,0.0,0.0,0.0,0.0,0.0,0.0,0.0,0.0,0.0,0.0,0.0,0.0,0.0,-2.6873,-3.0513,-3.3367,-3.5363,-3.6272,-3.6229,-3.5156,-3.2556,-2.9862,-2.6951,0.0,0.0,0.0,0.0,0.0,0.0,0.0,0.0,0.0,0.0,0.0,0.0,0.0,0.0,0.0,0.0,0.0,0.0,0.0,0.0,0.0,0.0,0.0,0.0,0.0,0.0,0.0,0.0,0.0,0.0,0.0,0.0,0.0,0.0,0.0,0.0,0.0,0.0,0.0,-1.9008,-1.9356,0.0,0.0,0.0,0.0,0.0,0.0,0.0,0.0,-1.8882,0.0,0.0,0.0,0.0,0.0,0.0,0.0,0.0,0.0,0.0,0.0,0.0,0.0,0.0,0.0,0.0,0.0,0.0,0.0,0.0,0.0,0.0,0.0,0.0,0.0,0.0,0.0,0.0,0.0,0.0,0.0,0.0,0.0,0.0,0.0,0.0,0.0,0.0,0.0,0.0,0.0,0.0,0.0,0.0,0.0,0.0,0.0,0.0,0.0,0.0,0.0,0.0,0.0,0.0,0.0,-2.7358,-3.1323,-3.4258,-3.6066,-3.7029,-3.6848,-3.5435,-3.2936,-3.0228,0.0,0.0,0.0,0.0,0.0,0.0,0.0,0.0,0.0,0.0,0.0,0.0,0.0,0.0,0.0,0.0,0.0,0.0,0.0,0.0,0.0,0.0,0.0,0.0,0.0,0.0,0.0,0.0,0.0,0.0,0.0,0.0,0.0,0.0,0.0,0.0,0.0,0.0,0.0,0.0,-1.9684,-2.031,-2.0639,0.0,0.0,0.0,0.0,0.0,0.0,-2.0489,-2.0213,0.0,0.0,0.0,0.0,0.0,0.0,0.0,0.0,0.0,0.0,0.0,0.0,0.0,0.0,0.0,0.0,0.0,0.0,0.0,0.0,0.0,0.0,0.0,0.0,0.0,0.0,0.0,0.0,0.0,0.0,0.0,0.0,0.0,0.0,0.0,0.0,0.0,0.0,0.0,0.0,0.0,0.0,0.0,0.0,0.0,0.0,0.0,0.0,0.0,0.0,0.0,0.0,0.0,0.0,0.0,-2.7566,-3.2024,-3.4984,-3.6437,-3.7653,-3.7383,-3.5586,-3.3287,-3.0448,0.0,0.0,0.0,0.0,0.0,0.0,0.0,0.0,0.0,0.0,0.0,0.0,0.0,0.0,0.0,0.0,0.0,0.0,0.0,0.0,0.0,0.0,0.0,0.0,0.0,0.0,0.0,0.0,0.0,0.0,0.0,0.0,0.0,0.0,0.0,0.0,0.0,0.0,0.0,0.0,0.0,-2.1192,-2.1744,-2.1041,0.0,0.0,0.0,0.0,-2.2246,-2.202,0.0,0.0,0.0,0.0,0.0,0.0,0.0,0.0,0.0,0.0,0.0,0.0,0.0,0.0,0.0,0.0,0.0,0.0,0.0,0.0,0.0,0.0,0.0,0.0,0.0,0.0,0.0,0.0,0.0,0.0,0.0,0.0,0.0,0.0,0.0,0.0,0.0,0.0,0.0,0.0,0.0,0.0,0.0,0.0,0.0,0.0,0.0,0.0,0.0,0.0,0.0,0.0,0.0,0.0,0.0,0.0,-2.7802,-3.2223,-3.5284,-3.6814,-3.8079,-3.7893,-3.6131,-3.3726,-3.0767,0.0,0.0,0.0,0.0,0.0,0.0,0.0,0.0,0.0,0.0,0.0,0.0,0.0,0.0,0.0,0.0,0.0,0.0,0.0,0.0,0.0,0.0,0.0,0.0,0.0,0.0,0.0,0.0,0.0,0.0,0.0,0.0,0.0,0.0,0.0,0.0,0.0,0.0,0.0,0.0,0.0,-2.2322,-2.2874,-2.2765,-2.2799,0.0,0.0,-2.2246,-2.2949,-2.2573,0.0,0.0,0.0,0.0,0.0,0.0,0.0,0.0,0.0,0.0,0.0,0.0,0.0,0.0,0.0,0.0,0.0,0.0,0.0,0.0,0.0,0.0,0.0,0.0,0.0,0.0,0.0,0.0,0.0,0.0,0.0,0.0,0.0,0.0,0.0,0.0,0.0,0.0,0.0,0.0,0.0,0.0,0.0,0.0,0.0,0.0,0.0,0.0,0.0,0.0,0.0,0.0,0.0,0.0,0.0,-2.4915,-2.8043,-3.2348,-3.5334,-3.7001,-3.8208,-3.809,-3.6657,-3.3891,-3.0881,0.0,0.0,0.0,0.0,0.0,0.0,0.0,0.0,0.0,0.0,0.0,0.0,0.0,0.0,0.0,0.0,0.0,0.0,0.0,0.0,0.0,0.0,0.0,0.0,0.0,0.0,0.0,0.0,0.0,0.0,0.0,0.0,0.0,0.0,0.0,0.0,0.0,0.0,0.0,0.0,0.0,0.0,-2.3624,-2.3627,0.0,0.0,0.0,-2.3678,-2.4833,0.0,0.0,0.0,0.0,0.0,0.0,0.0,0.0,0.0,0.0,0.0,0.0,0.0,0.0,0.0,0.0,0.0,0.0,0.0,0.0,0.0,0.0,0.0,0.0,0.0,0.0,0.0,0.0,0.0,0.0,0.0,0.0,0.0,0.0,0.0,0.0,0.0,0.0,0.0,0.0,0.0,0.0,0.0,0.0,0.0,0.0,0.0,0.0,0.0,0.0,0.0,0.0,0.0,0.0,0.0,0.0,0.0,-2.8285,-3.2451,-3.5416,-3.7102,-3.8282,-3.8318,-3.7032,-3.4218,0.0,0.0,0.0,0.0,0.0,0.0,0.0,0.0,0.0,0.0,0.0,0.0,0.0,0.0,0.0,0.0,0.0,0.0,0.0,0.0,0.0,0.0,0.0,0.0,0.0,0.0,0.0,-1.9093,0.0,0.0,0.0,0.0,0.0,0.0,0.0,0.0,0.0,0.0,0.0,0.0,0.0,0.0,-2.3533,-2.4822,-2.4735,-2.4771,0.0,0.0,-2.5109,-2.6508,-2.5862,-2.5134,0.0,0.0,0.0,0.0,0.0,0.0,0.0,0.0,0.0,0.0,0.0,0.0,0.0,0.0,0.0,0.0,0.0,0.0,0.0,0.0,0.0,0.0,0.0,0.0,0.0,0.0,0.0,0.0,0.0,0.0,0.0,0.0,0.0,0.0,0.0,0.0,0.0,0.0,0.0,0.0,0.0,0.0,0.0,0.0,0.0,0.0,0.0,0.0,0.0,0.0,0.0,0.0,0.0,0.0,0.0,-2.859,-3.2752,-3.5627,-3.722,-3.8579,-3.8639,-3.7279,-3.4967,-3.2031,0.0,0.0,0.0,0.0,0.0,0.0,0.0,0.0,0.0,0.0,0.0,0.0,0.0,0.0,0.0,0.0,0.0,0.0,0.0,0.0,0.0,0.0,0.0,0.0,0.0,0.0,0.0,0.0,0.0,0.0,0.0,0.0,0.0,0.0,0.0,0.0,0.0,0.0,0.0,0.0,0.0,-2.4865,-2.7,-2.6411,-2.6333,0.0,0.0,-2.6515,-2.7143,-2.6741,-2.608,-2.5178,0.0,0.0,0.0,0.0,0.0,0.0,0.0,0.0,0.0,0.0,0.0,0.0,0.0,0.0,0.0,0.0,0.0,0.0,0.0,0.0,0.0,0.0,0.0,0.0,0.0,0.0,0.0,0.0,0.0,0.0,0.0,0.0,0.0,0.0,0.0,0.0,0.0,0.0,0.0,0.0,0.0,0.0,0.0,0.0,0.0,0.0,0.0,0.0,0.0,0.0,0.0,0.0,0.0,-2.5238,-2.814,-3.175,-3.4346,-3.5937,-3.7201,-3.7472,-3.6783,-3.4537,-3.1858,0.0,0.0,0.0,0.0,0.0,0.0,0.0,0.0,0.0,0.0,0.0,0.0,0.0,0.0,0.0,0.0,0.0,0.0,0.0,0.0,0.0,0.0,0.0,0.0,0.0,0.0,0.0,0.0,-2.1862,-2.2422,-2.2632,0.0,0.0,0.0,0.0,0.0,0.0,0.0,0.0,0.0,0.0,-2.6886,-2.8045,-2.8185,0.0,0.0,-2.8247,-2.8028,-2.8588,-2.7901,-2.7232,-2.6934,-2.5699,0.0,0.0,0.0,0.0,0.0,0.0,0.0,0.0,0.0,0.0,0.0,0.0,0.0,0.0,0.0,0.0,0.0,0.0,0.0,0.0,0.0,0.0,0.0,0.0,0.0,0.0,0.0,0.0,0.0,0.0,0.0,0.0,0.0,0.0,0.0,0.0,0.0,0.0,0.0,0.0,0.0,0.0,0.0,0.0,0.0,0.0,0.0,0.0,0.0,0.0,0.0,0.0,-2.5403,-2.8049,-3.1335,-3.374,-3.5211,-3.6439,-3.6884,-3.6411,-3.4479,-3.2097,0.0,0.0,0.0,0.0,0.0,0.0,0.0,0.0,0.0,0.0,0.0,0.0,0.0,0.0,0.0,0.0,0.0,0.0,0.0,0.0,0.0,0.0,0.0,0.0,0.0,0.0,0.0,0.0,-2.2813,-2.3415,-2.3687,0.0,0.0,0.0,0.0,0.0,0.0,0.0,0.0,0.0,0.0,-2.8711,-2.9624,-2.9968,-3.01,-3.0024,-2.9588,-2.9424,-2.974,-2.8944,-2.8195,-2.8066,0.0,0.0,0.0,0.0,0.0,0.0,0.0,0.0,0.0,0.0,0.0,0.0,0.0,0.0,0.0,0.0,0.0,0.0,0.0,0.0,0.0,0.0,0.0,0.0,0.0,0.0,0.0,-2.1985,0.0,0.0,-2.061,0.0,0.0,0.0,0.0,0.0,0.0,0.0,0.0,0.0,0.0,0.0,0.0,0.0,0.0,0.0,0.0,0.0,0.0,0.0,0.0,0.0,0.0,-2.6301,-2.8481,-3.1735,-3.4143,-3.5509,-3.6827,-3.7135,-3.6437,-3.5069,-3.2949,-3.0072,0.0,0.0,0.0,0.0,0.0,0.0,0.0,0.0,0.0,0.0,0.0,0.0,0.0,0.0,0.0,0.0,0.0,0.0,0.0,0.0,0.0,0.0,0.0,0.0,0.0,0.0,-2.3169,-2.3768,-2.4154,0.0,0.0,0.0,0.0,0.0,0.0,0.0,0.0,0.0,0.0,-2.9438,-3.0149,-3.209,-3.1695,-3.1539,-3.2187,-3.1415,-3.0637,-3.0447,-2.9731,-2.883,0.0,0.0,0.0,0.0,0.0,0.0,0.0,0.0,0.0,0.0,0.0,0.0,0.0,0.0,0.0,0.0,0.0,0.0,0.0,0.0,0.0,0.0,0.0,0.0,0.0,0.0,0.0,-2.3356,-2.3263,0.0,0.0,0.0,0.0,0.0,0.0,0.0,0.0,0.0,0.0,0.0,-2.8709,-2.8381,0.0,0.0,0.0,0.0,0.0,0.0,0.0,0.0,0.0,0.0,0.0,0.0,-2.6198,-2.8763,-3.1183,-3.3093,-3.4472,-3.5766,-3.639,-3.6243,-3.4814,-3.2461,-2.9076,0.0,0.0,0.0,0.0,0.0,0.0,0.0,0.0,0.0,0.0,0.0,0.0,0.0,0.0,0.0,0.0,0.0,0.0,0.0,0.0,0.0,0.0,0.0,0.0,0.0,-2.3571,0.0,0.0,0.0,0.0,0.0,0.0,0.0,0.0,0.0,0.0,0.0,-2.9549,-3.0583,-3.2042,-3.3139,-3.3546,-3.3802,-3.3827,0.0,0.0,0.0,0.0,0.0,0.0,0.0,0.0,0.0,0.0,0.0,0.0,0.0,0.0,-3.2374,-3.0203,-3.0101,-3.016,-2.9598,0.0,0.0,0.0,0.0,0.0,0.0,0.0,0.0,0.0,0.0,0.0,0.0,0.0,0.0,-2.6116,0.0,-2.5453,0.0,0.0,0.0,0.0,0.0,0.0,0.0,0.0,-2.987,-3.097,-3.2089,-3.1504,-3.1499,0.0,-3.0255,-2.8274,0.0,0.0,0.0,0.0,0.0,0.0,0.0,0.0,-2.6957,-2.9147,-3.1419,-3.3103,-3.4125,-3.5173,-3.5778,-3.5813,-3.3933,-3.1491,-2.8551,-2.5386,-2.345,0.0,0.0,0.0,0.0,0.0,0.0,0.0,0.0,0.0,0.0,0.0,0.0,0.0,0.0,0.0,0.0,0.0,0.0,0.0,0.0,0.0,0.0,0.0,-2.4618,0.0,0.0,0.0,0.0,0.0,0.0,0.0,0.0,0.0,-2.9404,-3.1046,-3.2525,-3.2975,-3.4589,-3.5675,-3.5482,0.0,0.0,0.0,0.0,0.0,0.0,0.0,-3.2286,-3.2314,-3.1867,-3.184,-3.2679,-3.3728,-3.462,-3.5275,0.0,0.0,-3.3035,-3.2611,-3.2609,-3.2327,-3.2957,-3.3656,-3.4154,-3.5418,-3.6496,0.0,0.0,0.0,0.0,0.0,0.0,0.0,0.0,-3.0296,-3.0153,0.0,-2.8481,0.0,0.0,0.0,0.0,0.0,-2.8481,0.0,0.0,-3.3338,-3.4472,-3.5086,-3.5034,-3.4927,-3.4634,-3.309,-3.2298,-3.1958,-2.7193,0.0,0.0,0.0,0.0,0.0,0.0,-2.8492,-2.9781,-3.2393,-3.4022,-3.4584,-3.5168,-3.5401,-3.5296,-3.2509,-3.0312,-2.8739,-2.6619,-2.4769,-2.3353,-2.2767,0.0,0.0,0.0,0.0,0.0,0.0,0.0,0.0,0.0,0.0,0.0,0.0,0.0,0.0,0.0,0.0,0.0,0.0,0.0,0.0,-2.531,0.0,0.0,0.0,0.0,0.0,0.0,0.0,0.0,0.0,0.0,-3.3219,-3.4125,-3.5214,-3.6243,0.0,0.0,0.0,0.0,-3.7642,-3.6961,-3.6198,-3.5439,-3.4949,-3.4017,-3.331,-3.3339,0.0,0.0,-3.6104,-3.6968,-3.7594,-3.8197,-3.8778,-3.8454,-3.6153,-3.5827,-3.5761,-3.5324,-3.5885,-3.6634,-3.7385,-3.8286,-3.9176,-3.5318,0.0,0.0,0.0,0.0,-3.0976,-3.168,-3.2965,-3.265,-3.2379,-3.2031,-3.1211,0.0,0.0,0.0,0.0,0.0,0.0,-3.2625,-3.3707,-3.5917,-3.7337,-3.8016,-3.7973,-3.7894,-3.7687,-3.6064,-3.4977,-3.4296,-3.1745,-2.9315,-2.7214,0.0,0.0,0.0,0.0,-2.9683,-3.1017,-3.2785,-3.4009,-3.4587,-3.5211,-3.5287,-3.4849,-3.2849,-3.1303,-3.0348,-2.8047,-2.6417,-2.542,-2.4257,0.0,0.0,0.0,0.0,0.0,0.0,0.0,0.0,0.0,0.0,0.0,0.0,0.0,0.0,0.0,0.0,0.0,0.0,0.0,-2.5597,-2.6607,-2.7203,0.0,0.0,0.0,0.0,0.0,0.0,0.0,0.0,0.0,-3.8335,-3.8261,-3.8148,0.0,0.0,-4.0099,-3.9078,-3.9059,-3.8896,-3.8237,-3.7584,0.0,-3.6384,-3.573,-3.5473,-3.5989,-3.6993,-3.7997,-3.8806,-3.9409,-4.0107,-4.0779,-4.1298,-4.1512,-4.1134,-3.9948,-3.9171,-3.9064,-3.9574,-4.0201,-4.0573,-4.1237,-4.1868,-4.0117,-3.7567,-3.5297,-3.4718,-3.5229,-3.5079,-3.5383,-3.5994,-3.5844,-3.5377,-3.4675,-3.4191,-3.3295,-3.2127,-3.2182,0.0,0.0,0.0,-3.5737,-3.6591,-3.878,-4.0037,-4.0352,-4.0354,-4.0099,-3.9609,-3.8285,-3.7384,-3.6843,-3.4892,-3.3056,-3.1348,0.0,0.0,-2.965,-3.038,-3.1242,-3.2254,-3.3685,-3.4565,-3.4824,-3.4863,-3.4513,-3.3797,-3.2201,-3.1144,-3.0684,-2.8419,-2.6922,-2.6469,-2.5037,-2.3932,0.0,0.0,0.0,0.0,0.0,0.0,0.0,0.0,0.0,0.0,0.0,-2.1981,0.0,0.0,0.0,0.0,-2.4361,-2.558,-2.6891,-2.7726,0.0,0.0,0.0,0.0,0.0,0.0,0.0,-3.6423,-3.8137,-4.0034,-4.2177,-4.2302,-4.1971,-4.1353,-4.2366,-4.2774,-4.1674,0.0,-4.0675,-4.005,-3.9148,-3.8381,-3.7815,-3.7381,-3.7458,-3.8464,-3.9489,-4.0518,-4.1481,-4.2128,-4.2745,-4.3318,-4.3871,-4.4307,-4.4681,-4.3863,-4.2788,-4.1933,-4.2078,-4.2541,-4.2901,-4.3385,-4.3765,-4.3519,-4.3228,-4.0155,-3.8867,-3.8862,-3.9494,-3.9362,-3.8749,-3.9354,-3.8709,-3.7301,-3.715,-3.6207,-3.4691,-3.4757,0.0,-3.6189,-3.7834,-3.9034,-3.9954,-4.1621,-4.2302,-4.2212,-4.2136,-4.163,-4.0699,-3.9924,-3.9464,-3.9185,-3.6925,-3.5763,-3.5552,-3.2297,-3.0942,-3.1531,-3.2248,-3.2882,-3.345,-3.4851,-3.5413,-3.5143,-3.4249,-3.346,-3.2711,-3.1136,-3.0249,-3.013,-2.8054,-2.678,-2.6595,-2.5372,-2.4276,-2.3573,0.0,0.0,0.0,0.0,0.0,0.0,0.0,0.0,0.0,0.0,0.0,0.0,0.0,0.0,0.0,-2.5823,0.0,-2.7934,-2.8779,0.0,0.0,0.0,-3.2492,-3.4064,-3.5153,-3.6658,-3.8946,0.0,0.0,-4.4836,-4.5849,-4.6063,-4.5307,-4.5441,-4.5433,-4.4885,-4.3693,-4.2728,-4.2181,-4.0895,-3.9783,-3.9435,-3.8974,-3.9182,-4.0597,-4.1388,-4.2344,-4.3855,-4.4497,-4.5131,-4.5506,-4.6139,-4.6518,-4.6783,-4.682,-4.6632,-4.4284,-4.385,-4.4047,-4.4712,-4.4921,-4.518,-4.5611,-4.5051,-4.4284,-4.3238,-4.211,-4.1629,-4.1701,-4.2021,-4.0913,-4.0204,-3.9728,-3.844,-3.759,-3.7228,-3.729,-3.7781,-3.8684,-3.976,-4.0731,-4.1655,-4.2766,-4.2946,-4.2304,-4.2334,-4.187,-4.1,-4.0743,-4.0291,-3.956,-3.8369,-3.7381,-3.6577,-3.5121,-3.3775,-3.2622,-3.3327,-3.3761,-3.3869,-3.475,-3.5116,-3.4856,-3.402,-3.3494,-3.3351,-3.1711,-3.0547,-2.9963,-2.8743,-2.7486,-2.6247,-2.5875,-2.5385,-2.4661,-2.4119,0.0,0.0,0.0,0.0,0.0,0.0,0.0,0.0,0.0,-2.3835,-2.3852,0.0,-2.585,0.0,-2.7595,-2.8912,-2.9687,-3.0571,0.0,0.0,-3.3634,-3.4749,-3.5133,-3.7632,-3.9515,-4.0082,-4.2023,-4.3847,-4.517,-4.6619,-4.7617,-4.7935,-4.7582,-4.6932,-4.5918,-4.5217,-4.4592,-4.3985,-4.2763,-4.1704,-4.136,-4.1016,-4.1155,-4.2193,-4.3169,-4.4233,-4.554,-4.5523,-4.5505,-4.5909,-4.6211,-4.6385,-4.6549,-4.7139,-4.7391,-4.6816,-4.6534,-4.6436,-4.665,-4.6641,-4.6712,-4.6359,-4.6086,-4.5726,-4.5094,-4.4312,-4.3821,-4.3705,-4.3704,-4.2724,-4.2116,-4.1639,-3.9942,-3.9417,-3.9739,-3.9019,-3.938,-4.0653,-4.1505,-4.2407,-4.3296,-4.3847,-4.3701,-4.2889,-4.2532,-4.1914,-4.1119,-4.1058,-4.0808,-4.0291,-3.9429,-3.8766,-3.8252,-3.7356,-3.6396,-3.5396,-3.4982,-3.4781,-3.47,-3.5023,-3.5152,-3.4996,-3.3785,-3.3159,-3.3156,-3.1168,-2.9861,-2.9437,-2.8214,-2.71,-2.619,-2.5829,-2.5501,-2.512,-2.4744,-2.452,0.0,0.0,0.0,0.0,0.0,0.0,0.0,0.0,0.0,0.0,0.0,-2.7464,-2.7834,-2.9023,-3.0139,-3.0914,-3.2095,-3.316,-3.3968,-3.5584,-3.693,-3.7623,-3.9738,-4.1377,-4.2091,-4.3436,-4.4764,-4.5936,-4.6839,-4.7851,-4.8979,-4.8732,-4.823,-4.7628,-4.69,-4.6213,-4.5758,-4.4335,-4.3237,-4.3093,-4.3094,-4.3311,-4.4177,-4.4587,-4.5113,-4.6087,-4.5801,-4.5515,-4.5761,-4.5924,-4.6081,-4.6197,-4.6527,-4.6895,-4.6855,-4.6775,-4.6907,-4.7349,-4.7486,-4.7486,-4.6504,-4.6526,-4.5821,-4.5547,-4.5586,-4.568,-4.5274,-4.452,-4.4372,-4.3838,-4.2992,-4.1377,-4.1085,-4.1748,-4.0169,-4.0391,-4.1991,-4.2763,-4.3603,-4.4394,-4.445,-4.4089,-4.3371,-4.2515,-4.1774,-4.1092,-4.1093,-4.1093,-4.108,-4.021,-3.9798,-3.9753,-3.8889,-3.8442,-3.8346,-3.6833,-3.5918,-3.5648,-3.5432,-3.5339,-3.5321,-3.3638,-3.2728,-3.2651,-3.0366,-2.9,-2.8807,-2.7433,-2.6594,-2.6479,-2.5829,-2.5493,-2.5554,-2.5597,-2.5629,0.0,-2.6341,0.0,0.0,0.0,0.0,0.0,0.0,0.0,0.0,-2.83,-2.8783,-2.9571,-3.0376,-3.1223,-3.2116,-3.3506,-3.4764,-3.5776,-3.7329,-3.8907,-4.0315,-4.147,-4.2662,-4.4124,-4.4393,-4.5086,-4.6432,-4.678,-4.7434,-4.8759,-4.8945,-4.8891,-4.9164,-4.8377,-4.7545,-4.7203,-4.5663,-4.4673,-4.5069,-4.5173,-4.5312,-4.5888,-4.5631,-4.545,-4.6096,-4.5711,-4.5285,-4.5324,-4.5513,-4.5626,-4.5663,-4.5773,-4.5957,-4.5993,-4.5993,-4.6321,-4.7248,-4.7565,-4.7674,-4.6771,-4.6358,-4.5706,-4.5475,-4.5586,-4.5624,-4.5491,-4.5243,-4.4572,-4.3768,-4.2887,-4.1855,-4.1506,-4.1651,-4.0729,-4.0854,-4.184,-4.2048,-4.2618,-4.3434,-4.2821,-4.2488,-4.2354,-4.1614,-4.1167,-4.1007,-4.1069,-4.1123,-4.1093,-4.0273,-3.9877,-3.977,-3.8943,-3.8557,-3.8486,0.0,0.0,0.0,-3.567,-3.557,-3.5465,-3.3863,-3.294,-3.2902,-3.1046,0.0,-2.9075,-2.8694,-2.8159,-2.7546,-2.7351,0.0,0.0,0.0,0.0,0.0,0.0,0.0,0.0,0.0,0.0,0.0,-2.909,-2.8757,-2.8285,-2.9413,-3.0523,-3.1352,-3.218,-3.3297,-3.4731,-3.5133,-3.5958,-3.7448,-3.909,-4.0246,-4.0562,-4.247,-4.397,-4.4239,-4.4893,-4.5432,-4.5817,-4.6432,-4.7222,-4.8145,-4.8279,-4.8506,-4.9121,-4.8707,-4.8277,-4.7866,-4.6685,-4.6739,-4.841,-4.7157,-4.6094,-4.6066,-4.592,-4.5809,-4.5769,-4.5258,-4.4784,-4.4785,-4.4857,-4.4893,-4.493,-4.5443,-4.581,-4.5883,-4.5847,-4.614,-4.7018,-4.7199,-4.7421,-4.7061,0.0,-4.5857,-4.5457,0.0,-4.5532,-4.5534,-4.5438,-4.5016,-4.4557,-4.402,-4.3177,-4.2833,-4.2905,-4.2078,-4.2184,-4.3011,-4.2649,-4.2973,-4.3713,-4.256,-4.2009,-4.2044,-4.1256,-4.0935,-4.096,-4.0994,-4.1003,-4.1041,-4.0658,-4.0469,-4.0423,-4.0023,-3.9819,-3.978,-3.9396,-3.8323,-3.6489,-3.6034,-3.5772,-3.5702,-3.4438,-3.3539,-3.3103,-3.138,0.0,0.0,0.0,0.0,0.0,0.0,0.0,0.0,-2.7873,0.0,-2.7901,-2.8275,-2.8692,-2.9187,-2.9648,-3.0343,-3.1268,-3.1421,-3.1058,-3.0186,-3.1309,-3.2187,-3.2577,-3.3743,-3.4822,-3.5621,-3.6781,-3.8025,-3.9341,-4.0938,-4.2068,-4.2579,-4.3991,-4.5015,-4.5021,-4.5389,-4.5659,-4.5603,-4.5932,-4.6586,-4.7355,-4.7491,-4.7722,-4.8411,-4.835,-4.7973,-4.7483,-4.7165,-4.7124,-4.7905,-4.7552,-4.6651,-4.6429,-4.5968,-4.5542,-4.5332,-4.4635,-4.4121,-4.4121,-4.4085,-4.4121,-4.4121,-4.4452,-4.4709,-4.4709,-4.4709,-4.4966,-4.5773,-4.6544,-4.7205,-4.7192,-4.7414,-4.5969,-4.54,-4.5495,-4.5458,-4.5438,-4.5357,0.0,0.0,0.0,-4.4276,-4.3996,-4.4078,-4.3291,-4.3359,-4.4029,-4.3381,-4.3497,-4.4106,-4.2665,-4.1977,-4.1944,-4.117,-4.0804,-4.0888,-4.0878,-4.0921,-4.1012,-4.1072,-4.1084,-4.1093,-4.109,-4.1123,-4.1045,-4.0308,-3.917,-3.7698,-3.6664,-3.6065,-3.5894,-3.4996,-3.4178,-3.3448,-3.174,-3.0496,-2.9782,-2.8922,-2.8449,-2.847,-2.8461,-2.8521,-2.8589,-2.8589,-2.8646,-2.8818,-2.9434,-3.015,-3.0935,-3.1689,-3.2477,-3.3245,-3.3529,-3.3275,-3.2407,-3.3105,-3.3604,-3.3544,-3.5059,-3.6105,-3.6277,-3.8364,-4.01,-4.097,-4.2524,-4.3815,-4.4432,-4.5307,-4.5742,-4.5742,-4.5687,-4.5709,-4.562,-4.5642,-4.595,-4.6663,-4.6778,-4.6876,-4.7396,-4.7486,-4.7236,-4.6554,-4.6683,-4.6999,-4.6897,-4.7072,-4.7051,-4.6607,-4.5903,-4.5239,-4.4687,-4.411,-4.3637,-4.3605,-4.3495,-4.3534,-4.3497,-4.3571,-4.3497,-4.3497,-4.3497,-4.3681,-4.4415,-4.5626,-4.6691,-4.7024,-4.7136,-4.578,-4.5301,-4.5438,-4.5419,-4.5281,-4.5019,-4.4962,-4.4852,-4.4814,-4.3907,-4.3625,-4.3814,-4.3018,-4.2852,-4.3162,-4.3052,-4.309,-4.3217,-4.2325,-4.1917,-4.187,-4.1092,-4.0732,-4.0792,-4.0809,-4.0878,-4.0991,-4.1028,-4.1023,-4.1114,-4.1119,-4.1121,-4.1043,-4.0306,-3.9765,-3.9484,-3.7921,-3.6699,-3.5923,-3.5022,-3.454,-3.4347,-3.2661,-3.1654,-3.1538,-3.0684,-3.0225,-3.0225,-3.0247,-3.0548,-3.1274,-3.1255,-3.1555,-3.229,-3.2483,-3.2619,-3.2783,-3.2959,-3.3109,-3.3379,-3.4086,-3.4137,-3.3354,-3.4021,-3.4527,-3.4549,-3.6048,-3.7313,-3.8026,-3.965,-4.1093,-4.1995,-4.349,-4.4555,-4.4664,-4.5364,-4.588,-4.5786,-4.5795,-4.5789,-4.5726,-4.5693,-4.5984,-4.6565,-4.6313,-4.5911,-4.6106,-4.6417,-4.6373,-4.5889,-4.6194,-4.6686,-4.6748,-4.7258,-4.7036,-4.6183,-4.5792,-4.5252,-4.4358,-4.3976,-4.3734,-4.3634,-4.3566,-4.3532,-4.3497,-4.3497,-4.3532,-4.3532,-4.3532,-4.3605,-4.3826,-4.4562,-4.559,-4.7229,-4.6902,-4.6038,-4.5445,-4.5192,-4.5132,-4.4972,-4.4738,-4.4513,-4.4486,-4.4595,-4.4191,-4.4134,-4.4341,-4.4075,-4.4093,-4.4285,-4.388,-4.3705,-4.3684,-4.2915,-4.2547,-4.2502,-4.2148,-4.2039,-4.2019,-4.1609,-4.1451,-4.1587,-4.1583,-4.1656,-4.1749,-4.1758,-4.1746,-4.1739,-4.0976,-4.0335,-3.984,-3.8633,-3.7576,-3.6669,-3.6274,-3.56,-3.4679,-3.379,-3.3212,-3.272,-3.235,-3.211,-3.2052,-3.2046,-3.222,-3.2563,-3.2593,-3.2732,-3.3131,-3.3131,-3.3382,-3.3874,-3.4379,-3.4709,-3.4835,-3.5181,-3.5231,-3.4843,-3.5195,-3.539,-3.5465,-3.6979,-3.8102,-3.8521,-4.0452,-4.2064,-4.2896,-4.4098,-4.4958,-4.5356,-4.5735,-4.5968,-4.5891,-4.5893,-4.5841,-4.581,-4.5781,-4.5843,-4.6198,-4.5889,-4.5696,-4.5696,-4.5957,-4.6009,-4.5573,-4.5764,-4.5954,-4.6084,-4.6292,-4.6145,-4.5532,-4.5344,-4.4982,-4.4258,-4.4079,-4.3992,-4.38,-4.3734,-4.3667,-4.36,-4.36,-4.3634,-4.3566,-4.36,-4.3634,-4.371,-4.4487,-4.57,-4.7313,-4.6681,-4.6139,-4.5533,-4.4927,-4.4865,-4.4712,-4.4402,-4.4199,-4.4199,-4.4354,-4.4354,-4.4486,-4.4751,-4.4876,-4.5109,-4.5246,-4.4766,-4.4533,-4.4474,-4.3726,-4.3398,-4.3355,-4.3201,-4.3102,-4.3034,-4.2448,-4.2212,-4.233,-4.2377,-4.2442,-4.252,-4.2555,-4.2567,-4.2634,-4.1974,-4.1306,-4.0668,-3.9873,-3.8866,-3.7656,-3.742,-3.6635,-3.5415,-3.4895,-3.4367,-3.3756,-3.3517,-3.3366,-3.334,-3.3336,-3.3356,-3.3544,-3.3524,-3.3612,-3.3782,-3.3821,-3.4093,-3.4777,-3.5503,-3.5938,-3.5997,-3.5994,-3.6089,-3.625,-3.6289,-3.6289,-3.6484,-3.7694,-3.8708,-3.9409,-4.1272,-4.301,-4.3825,-4.4688,-4.5449,-4.6001,-4.6118,-4.6091,-4.6026,-4.5949,-4.5947,-4.5917,-4.5867,-4.5854,-4.5866,-4.5827,-4.5827,-4.5827,-4.5827,-4.5757,-4.5648,-4.553,-4.5552,-4.5457,-4.5477,-4.5436,-4.5192,-4.5057,-4.4865,-4.4557,-4.4365,-4.4258,-4.4048,-4.3992,-4.3897,-4.3763,-4.3767,-4.38,-4.3734,-4.3767,-4.38,-4.3771,-4.4955,-4.6029,-4.7083,-4.6397,-4.5798,-4.5227,-4.4729,-4.4643,-4.4458,-4.4258,-4.414,-4.398,-4.3892,-4.3929,-4.4079,-4.425,-4.4458,-4.4789,-4.5125,-4.5131,-4.5188,-4.526,-4.4568,-4.4184,-4.4124,-4.347,-4.3102,-4.315,-4.3034,-4.3003,-4.309,-4.3156,-4.323,-4.3285,-4.3313,-4.3335,-4.338,-4.3294,-4.3208,-4.3217,-4.2467,-4.0889,-3.8594,-3.7695,-3.7226,-3.707,-3.5543,-3.4679,-3.4677,-3.381,-3.3414,-3.3375,-3.348,-3.3782,-3.4437,-3.4475,-3.4834,-3.5528,-3.5599,-3.5677,-3.5762,-3.5911,-3.6011,-3.6016,-3.6095,-3.6396,-3.7109,-3.7187,-3.7187,-3.7383,-3.8086,-3.9297,-4.0742,-4.25,-4.3867,-4.4679,-4.5534,-4.6195,-4.6179,-4.6197,-4.6142,-4.6108,-4.6073,-4.606,-4.6017,-4.5986,-4.5964,-4.5917,-4.5917,-4.5917,-4.5905,-4.5905,-4.5917,-4.5829,-4.58,-4.5719,-4.5582,-4.5586,-4.5514,-4.538,-4.5256,-4.5103,-4.49,-4.47,-4.4486,-4.4365,-4.4221,-4.414,-4.4048,-4.4017,-4.3986,-4.3986,-4.3986,-4.3955,-4.4141,-4.5259,-4.6271,-4.7351,-4.6202,-4.6034,-4.5307,-4.4349,-4.4266,-4.4109,-4.3961,-4.386,-4.373,-4.3631,-4.3667,-4.38,-4.4129,-4.4266,-4.453,-4.4924,-4.5044,-4.5168,-4.5304,-4.5053,-4.4991,-4.4974,-4.4722,-4.4564,-4.4504,-4.408,-4.3827,-4.3929,-4.3974,-4.4277,-4.4718,-4.4316,-4.4095,-4.4109,-4.3668,-4.3461,-4.353,-4.326,-4.2607,-4.155,-3.9803,-3.8594,-3.8047,-3.7343,-3.6991,-3.6991,-3.6638,-3.6247,-3.5778,-3.5698,-3.5616,-3.5493,-3.5441,-3.5584,-3.5923,-3.5958,-3.6192,-3.6699,-3.6746,-3.6989,-3.7496,-3.751,-3.7723,-3.8008,-3.8047,-3.8242,-3.8867,-3.9648,-4.0469,-4.125,-4.3164,-4.4609,-4.5038,-4.578,-4.6289,-4.6246,-4.6289,-4.6239,-4.6231,-4.6171,-4.6181,-4.6169,-4.616,-4.6124,-4.6095,-4.6056,-4.6056,-4.6056,-4.6056,-4.6066,-4.6008,-4.5978,-4.5905,-4.5757,-4.5665,-4.5637,-4.5532,-4.5419,-4.5281,-4.5154,-4.5042,-4.49,-4.4714,-4.4584,-4.4448,-4.4308,-4.4402,-4.4402,-4.4345,-4.425,-4.425,-4.425,-4.5506,-4.635,-4.7169,-4.5843,-4.5614,-4.4938,-4.3961,-4.3961,-4.3865,-4.3771,-4.3634,-4.3529,-4.3497,-4.3497,-4.3671,-4.3943,-4.4055,-4.4296,-4.4654,-4.48,-4.4973,-4.5175,-4.5304,-4.538,-4.5457,-4.555,-4.5586,-4.5509,-4.497,-4.468,-4.4752,-4.4784,-4.5163,-4.5571,-4.5131,-4.4861,-4.4839,-4.433,-4.4083,-4.416,-4.4024,-4.3948,-4.3695,-4.1978,-4.0388,-3.9375,-3.8828,-3.8594,-3.8594,-3.8594,-3.832,-3.7695,-3.7656,-3.7382,-3.6756,-3.6482,-3.6363,-3.6357,-3.6355,-3.6745,-3.7606,-3.7645,-3.7919,-3.8504,-3.8622,-3.8705,-3.8906,-3.8945,-3.9453,-4.0508,-4.1406,-4.1875,-4.2109,-4.375,-4.5,-4.5312,-4.5976,-4.6289,-4.6289,-4.6289,-4.6289,-4.6286,-4.6237,-4.6225,-4.6284,-4.6248,-4.6176,-4.6208,-4.6208,-4.6208,-4.6208,-4.6208,-4.6176,-4.6125,-4.6105,-4.6065,-4.5854,-4.5786,-4.5712,-4.5654,-4.5568,-4.5419,-4.5341,-4.5319,-4.5235,-4.5042,-4.4995,-4.4924,-4.4739,-4.4777,-4.4751,-4.4636,-4.4572,-4.4572,-4.4636,-4.5895,-4.674,-4.6214,-4.4782,-4.4042,-4.3812,-4.3804,-4.3804,-4.3734,-4.3634,-4.36,-4.3566,-4.3497,-4.3497,-4.3529,-4.3664,-4.3767,-4.3971,-4.4228,-4.4449,-4.4685,-4.4976,-4.5115,-4.5283,-4.54,-4.5457,-4.555,-4.5586,-4.5509,-4.5432,-4.5488,-4.5526,-4.5603,-4.568,-4.5603,-4.5603,-4.5582,-4.5534,-4.5673,-4.5531,-4.5043,-4.4733,-4.4659,-4.3869,-4.2594,-4.1094,-3.9492,-3.8789,-3.875,-3.8672,-3.8594,-3.8555,-3.8555,-3.8476,-3.8359,-3.7695,-3.7266,-3.7266,-3.7226,-3.7617,-3.8398,-3.8555,-3.8633,-3.8672,-3.8828,-3.8984,-3.9766,-3.9844,-4.0469,-4.2031,-4.2812,-4.3398,-4.3516,-4.4414,-4.5391,-4.6055,-4.6211,-4.6289,-4.6289,-4.6289,-4.6289,-4.6289,-4.6286,-4.6282,-4.628,-4.6231,-4.6218,-4.6214,-4.6218,-4.6218,-4.6214,-4.6218,-4.6218,-4.6292,-4.6279,-4.6157,-4.5968,-4.5893,-4.5866,-4.5781,-4.5687,-4.5586,-4.5532,-4.5477,-4.54,-4.5357,-4.5256,-4.5192,-4.517,-4.5125,-4.5065,-4.5019,-4.4995,-4.5019,-4.4972,-4.6426,-4.7226,-4.6177,-4.4635,-4.3862,-4.3566,-4.36,-4.36,-4.3566,-4.3566,-4.3532,-4.3532,-4.3497,-4.3497,-4.3495,-4.3529,-4.36,-4.3775,-4.4013,-4.416,-4.442,-4.4685,-4.4934,-4.5159,-4.5263,-4.5419,-4.555,-4.5586,-4.5586,-4.5586,-4.5586,-4.5586,-4.5586,-4.5624,-4.5624,-4.5642,-4.5659,-4.5687,-4.575,-4.5757,-4.5544,-4.5475,-4.5405,-4.4767,-4.4064,-4.3501,-4.1912,-4.1055,-4.1016,-4.0547,-4.0,-3.9453,-3.9414,-3.918,-3.8633,-3.832,-3.8125,-3.8125,-3.8125,-3.8516,-3.9297,-3.9453,-3.9687,-4.0195,-4.0273,-4.0312,-4.0664,-4.0742,-4.1016,-4.1719,-4.2969,-4.3633,-4.3984,-4.4961,-4.5937,-4.6211,-4.6289,-4.6289,-4.6289,-4.6289,-4.6289,-4.6289,-4.6289,-4.6288,-4.6289,-4.6289,-4.6285,-4.6246,-4.625,-4.625,-4.625,-4.6289,-4.6484,-4.6953,-4.7084,-4.705,-4.6961,-4.6319,-4.5929,-4.5841,-4.5757,-4.5687,-4.562,-4.5568,-4.5495,-4.5458,-4.54,-4.536,-4.5319,-4.5298,-4.5277,-4.526,-4.526,-4.5316,-4.5277,-4.6746,-4.7426,-4.5296,-4.4305,-4.3718,-4.3497,-4.3497,-4.3497,-4.3497,-4.3497,-4.3497,-4.3497,-4.3497,-4.3497,-4.3497,-4.3497,-4.3497,-4.3603,-4.3778,-4.3911,-4.416,-4.4374,-4.4701,-4.4943,-4.5137,-4.5341,-4.5514,-4.5568,-4.5586,-4.5586,-4.5586,-4.5586,-4.5586,-4.5586,-4.5586,-4.5586,-4.5603,-4.5676,-4.5687,-4.5719,-4.5757,-4.5815,-4.5786,-4.5453,-4.5196,-4.5089,-4.3928,-4.2927,-4.2422,-4.1875,-4.1172,-4.0469,-4.0312,-3.9922,-3.9141,-3.9023,-3.9023,-3.9023,-3.9023,-3.9414,-4.0156,-4.0312,-4.0586,-4.1133,-4.1172,-4.1211,-4.1211,-4.1211,-4.1328,-4.1797,-4.2812,-4.375,-4.4336,-4.543,-4.6289,-4.6289,-4.6289,-4.6289,-4.6289,-4.6289,-4.6289,-4.6289,-4.6289,-4.6289,-4.6289,-4.6289,-4.6289,-4.6289,-4.6289,-4.6289,-4.6289,-4.6601,-4.6875,-4.75,-4.7851,-4.7949,-4.7815,-4.7249,-4.6387,-4.6158,-4.5827,-4.5765,-4.5726,-4.5637,-4.5586,-4.555,-4.5532,-4.5495,-4.5515,-4.5477,-4.5458,-4.5438,-4.5515,-4.5515,-4.609,-4.6991,-4.7656,-4.3608,-4.3571,-4.3497,-4.3497,-4.3497,-4.3497,-4.3497,-4.3497,-4.3497,-4.3497,-4.3497,-4.3497,-4.3497,-4.3497,-4.3497,-4.3497,-4.3569,-4.3713,-4.3911,-4.414,-4.4476,-4.4739,-4.5033,-4.5277,-4.5438,-4.5494,-4.5568,-4.5586,-4.5586,-4.5586,-4.5586,-4.5586,-4.5586,-4.5586,-4.5586,-4.5676,-4.5693,-4.5687,-4.5727,-4.58,-4.5814,-4.5854,-4.588,-4.5935,-4.5234,-4.4117,-4.2617,-4.2422,-4.1914,-4.1211,-4.1133,-4.0742,-4.0039,-3.9922,-3.9922,-3.9922,-3.9922,-4.0312,-4.1016,-4.1094,-4.1055,-4.1211,-4.1211,-4.1211,-4.1211,-4.1211,-4.1445,-4.2109,-4.2969,-4.3906,-4.4726,-4.5625,-4.6211,-4.6289,-4.6289,-4.6289,-4.6289,-4.6289,-4.6289,-4.6289,-4.6289,-4.6289,-4.6289,-4.6289,-4.6289,-4.6289,-4.6289,-4.6367,-4.6523,-4.7031,-4.75,-4.7891,-4.8437,-4.8863,-4.858,-4.8131,-4.7242,-4.6474,-4.606,-4.5824,-4.575,-4.5687,-4.5603,-4.5568,-4.5568,-4.555,-4.555,-4.5532,-4.5532,-4.555,-4.5645,-4.5858,-4.657,-4.73,-4.8202,-4.4011,-4.3497,-4.3497,-4.3497,-4.3497,-4.3497,-4.3497,-4.3497,-4.3497,-4.3497,-4.3497,-4.3497,-4.3497,-4.3497,-4.3497,-4.3497,-4.3497,-4.3605,-4.3704,-4.3961,-4.4296,-4.4568,-4.49,-4.5154,-4.5361,-4.555,-4.5586,-4.5586,-4.5624,-4.5624,-4.5586,-4.5586,-4.5586,-4.5586,-4.5586,-4.5603,-4.562,-4.562,-4.5654,-4.5703,-4.5735,-4.5866,-4.5953,-4.6005,-4.5878,-4.5265,-4.4243,-4.3045,-4.2031,-4.125,-4.1211,-4.1055,-4.0859,-4.0781,-4.082,-4.0781,-4.0781,-4.0859,-4.1133,-4.1211,-4.1211,-4.1211,-4.1211,-4.1211,-4.1211,-4.1211,-4.1328,-4.1641,-4.2305,-4.3164,-4.4023,-4.4883,-4.5664,-4.625,-4.6289,-4.6289,-4.6289,-4.6289,-4.6289,-4.6289,-4.6289,-4.6289,-4.6289,-4.6289,-4.6289,-4.6289,-4.6289,-4.6445,-4.707,-4.7422,-4.8203,-4.9101,-4.957,-4.9766,-4.9567,-4.9199,-4.8515,-4.7484,-4.6768,-4.6176,-4.6027,-4.588,-4.5774,-4.5663,-4.5663,-4.5586,-4.5586,-4.5586,-4.5586,-4.5624,-4.5701,-4.6163,-4.6778,-4.7606,-4.8567,-4.4415,-4.3938,-4.3608,-4.3497,-4.3497,-4.3497,-4.3497,-4.3497,-4.3497,-4.3497,-4.3497,-4.3497,-4.3497,-4.3497,-4.3497,-4.3497,-4.3497,-4.3497,-4.3637,-4.3874,-4.4116,-4.443,-4.484,-4.5154,-4.54,-4.5645,-4.5932,-4.6086,-4.6086,-4.6103,-4.6065,-4.6065,-4.5757,-4.5586,-4.5586,-4.5586,-4.5603,-4.562,-4.5659,-4.5671,-4.575,-4.5827,-4.5953,-4.6026,-4.613,-4.5786,-4.5,-4.3898,-4.2812,-4.1836,-4.1406,-4.1211,-4.1211,-4.1172,-4.1211,-4.1211,-4.1211,-4.1211,-4.1211,-4.1211,-4.1211,-4.1211,-4.1211,-4.1211,-4.1211,-4.1211,-4.1211,-4.1289,-4.2266,-4.3125,-4.375,-4.4844,-4.5703,-4.6211,-4.6289,-4.6289,-4.6289,-4.6289,-4.6289,-4.6289,-4.6289,-4.6289,-4.6289,-4.6289,-4.6289,-4.6289,-4.6289,-4.6601,-4.7383,-4.7891,-4.8906,-4.9844,-5.0351,-5.0508,-5.0586,-5.0261,-4.982,-4.8716,-4.7606,-4.6965,-4.6482,-4.6381,-4.6278,-4.6124,-4.6047,-4.5663,-4.5586,-4.5586,-4.5586,-4.5663,-4.5932,-4.6624,-4.7355,-4.8163,-4.9029,-4.4745,-4.4599,-4.3828,-4.3497,-4.3497,-4.3497,-4.3497,-4.3497,-4.3497,-4.3497,-4.3497,-4.3497,-4.3497,-4.3497,-4.3497,-4.3497,-4.3497,-4.3497,-4.3642,-4.3812,-4.4017,-4.4355,-4.4815,-4.5197,-4.5515,-4.5876,-4.6471,-4.6855,-4.6971,-4.695,-4.6985,-4.6908,-4.6296,-4.5757,-4.5834,-4.5719,-4.5736,-4.5693,-4.5687,-4.575,-4.58,-4.5893,-4.5975,-4.6095,-4.6154,-4.5891,-4.5294,-4.4867,-4.4022,-4.2578,-4.168,-4.1328,-4.125,-4.1211,-4.1211,-4.1211,-4.1211,-4.1211,-4.1211,-4.1211,-4.1211,-4.1211,-4.1211,-4.1211,-4.1211,-4.1211,-4.1289,-4.1445,-4.2617,-4.3555,-4.4023,-4.5078,-4.6016,-4.625,-4.6289,-4.6289,-4.6289,-4.6289,-4.6289,-4.6289,-4.6289,-4.6289,-4.6289,-4.6289,-4.6289,-4.6328,-4.6406,-4.6953,-4.7695,-4.8516,-4.9297,-5.0078,-5.0898,-5.0976,-5.1016,-5.0849,-5.0411,-4.9924,-4.8743,-4.787,-4.7216,-4.7036,-4.6932,-4.6778,-4.6414,-4.5991,-4.5914,-4.6163,-4.6201,-4.6355,-4.6778,-4.7317,-4.7971,-4.874,-4.9356,-4.5223,-4.4635,-4.3828,-4.3497,-4.3497,-4.3497,-4.3497,-4.3497,-4.3497,-4.3497,-4.3497,-4.3497,-4.3497,-4.3497,-4.3497,-4.3497,-4.3497,-4.3497,-4.3642,-4.3855,-4.3998,-4.4471,-4.4995,-4.5319,-4.5841,-4.6529,-4.6932,-4.7201,-4.774,-4.7778,-4.7758,-4.7773,-4.7489,-4.7048,-4.666,-4.6544,-4.6232,-4.5796,-4.5781,-4.5838,-4.588,-4.5936,-4.5998,-4.6091,-4.6176,-4.6131,-4.588,-4.5341,-4.4179,-4.2578,-4.2226,-4.1797,-4.1367,-4.1289,-4.1328,-4.1289,-4.125,-4.1211,-4.1211,-4.1211,-4.1211,-4.1211,-4.1211,-4.1211,-4.1211,-4.1211,-4.1484,-4.1953,-4.2617,-4.332,-4.4375,-4.5117,-4.5625,-4.6172,-4.6289,-4.6289,-4.6289,-4.6289,-4.6289,-4.6289,-4.6289,-4.6289,-4.6289,-4.6289,-4.6289,-4.6406,-4.6836,-4.7461,-4.8281,-4.9141,-4.9922,-5.0664,-5.1289,-5.1328,-5.1328,-5.1211,-5.1035,-5.0858,-4.9959,-4.8941,-4.8338,-4.7885,-4.7815,-4.7702,-4.7183,-4.6722,-4.7145,-4.7548,-4.7432,-4.7124,-4.7548,-4.8086,-4.8663,-4.9317,-4.974,-4.5626,-4.5112,-4.3975,-4.3497,-4.3497,-4.3497,-4.3497,-4.3497,-4.3497,-4.3497,-4.3497,-4.3497,-4.3497,-4.3497,-4.3497,-4.3497,-4.3497,-4.3497,-4.3642,-4.4029,-4.4655,-4.5242,-4.5748,-4.6184,-4.6858,-4.7375,-4.7778,-4.8202,-4.8586,-4.8644,-4.8625,-4.8566,-4.8279,-4.7855,-4.7471,-4.7409,-4.7284,-4.6862,-4.6588,-4.6423,-4.6496,-4.6201,-4.6074,-4.6154,-4.619,-4.6209,-4.6206,-4.5815,-4.4726,-4.3359,-4.293,-4.2734,-4.2344,-4.2226,-4.207,-4.1797,-4.1719,-4.1601,-4.125,-4.1211,-4.1211,-4.1211,-4.1211,-4.1211,-4.1211,-4.1211,-4.1562,-4.2266,-4.2695,-4.3594,-4.4687,-4.5312,-4.5742,-4.6211,-4.6289,-4.6289,-4.6289,-4.6289,-4.6289,-4.6289,-4.6289,-4.6289,-4.6289,-4.6289,-4.6289,-4.6445,-4.7031,-4.7851,-4.8711,-4.9648,-5.0469,-5.1055,-5.1406,-5.1445,-5.1484,-5.1445,-5.1503,-5.1317,-5.0945,-4.9935,-4.9335,-4.8831,-4.8718,-4.8509,-4.7991,-4.776,-4.8106,-4.8355,-4.8163,-4.8086,-4.8432,-4.874,-4.924,-4.974,-5.0164,-4.5883,-4.5736,-4.4158,-4.3497,-4.3497,-4.3497,-4.3497,-4.3497,-4.3497,-4.3497,-4.3497,-4.3497,-4.3497,-4.3497,-4.3497,-4.3497,-4.3497,-4.3497,-4.3818,-4.4501,-4.5466,-4.6412,-4.6876,-4.7451,-4.7914,-4.8317,-4.9048,-4.9317,-4.9471,-4.9548,-4.9548,-4.9433,-4.8817,-4.8375,-4.8317,-4.8295,-4.8359,-4.8097,-4.7637,-4.7323,-4.7193,-4.6735,-4.6395,-4.619,-4.6203,-4.6226,-4.63,-4.6133,-4.5508,-4.4062,-4.3906,-4.3711,-4.3672,-4.3633,-4.332,-4.2656,-4.2383,-4.2031,-4.1484,-4.1328,-4.1211,-4.1211,-4.1211,-4.1211,-4.1211,-4.1328,-4.1797,-4.2656,-4.3359,-4.4258,-4.5117,-4.5859,-4.6133,-4.6289,-4.6289,-4.6289,-4.6289,-4.6289,-4.6289,-4.6289,-4.6289,-4.6289,-4.6289,-4.6289,-4.6289,-4.6445,-4.7187,-4.8203,-4.9062,-4.9922,-5.0625,-5.125,-5.1445,-5.1484,-5.1562,-5.1641,-5.1771,-5.1784,-5.1503,-5.0844,-5.0272,-4.9855,-4.9644,-4.9356,-4.9125,-4.8875,-4.8779,-4.8856,-4.8856,-4.9009,-4.9356,-4.9471,-4.9663,-5.0087,-5.0548,-4.5883,-4.5773,-4.4158,-4.3497,-4.3497,-4.3497,-4.3497,-4.3497,-4.3497,-4.3497,-4.3497,-4.3497,-4.3497,-4.3497,-4.3497,-4.3497,-4.3497,-4.3569,-4.4054,-4.5293,-4.662,-4.7709,-4.8204,-4.8391,-4.8491,-4.9009,-4.9279,-4.974,-5.0202,-5.0317,-5.0394,-5.0317,-5.0048,-4.9817,-4.9276,-4.923,-4.901,-4.858,-4.841,-4.8098,-4.7673,-4.7379,-4.686,-4.6366,-4.6288,-4.6292,-4.6303,-4.6285,-4.6094,-4.5703,-4.5078,-4.4453,-4.4023,-4.3867,-4.3711,-4.3398,-4.2812,-4.2383,-4.2109,-4.168,-4.125,-4.1367,-4.1406,-4.1211,-4.125,-4.1836,-4.25,-4.3359,-4.4219,-4.5,-4.5781,-4.6133,-4.6289,-4.6289,-4.6289,-4.6289,-4.6289,-4.6289,-4.6289,-4.6289,-4.6289,-4.6289,-4.6289,-4.6289,-4.6367,-4.6523,-4.7383,-4.8476,-4.9375,-5.0234,-5.082,-5.1406,-5.1406,-5.1523,-5.2106,-5.2253,-5.2473,-5.2485,-5.2175,-5.1873,-5.1352,-5.0875,-5.0625,-5.051,-5.0394,-5.0087,-4.9625,-4.9856,-4.9933,-5.0087,-5.0125,-5.0164,-5.024,-5.0625,-5.0894,-4.57,-4.5223,-4.4011,-4.3497,-4.3497,-4.3497,-4.3497,-4.3497,-4.3497,-4.3497,-4.3497,-4.3497,-4.3497,-4.3497,-4.3497,-4.3497,-4.3534,-4.3716,-4.4591,-4.5961,-4.7175,-4.8319,-4.9449,-4.9486,-4.9606,-4.9971,-5.001,-5.0317,-5.0587,-5.0702,-5.0625,-5.0702,-5.0702,-5.0413,-5.0138,-5.0146,-5.0061,-4.9756,-4.9426,-4.908,-4.8755,-4.7927,-4.7171,-4.6475,-4.6282,-4.6282,-4.6284,-4.6288,-4.6289,-4.6172,-4.5859,-4.543,-4.5039,-4.4883,-4.4726,-4.4258,-4.3945,-4.3359,-4.3008,-4.2656,-4.2422,-4.2344,-4.2344,-4.2383,-4.2422,-4.2812,-4.3398,-4.4141,-4.4766,-4.5351,-4.6172,-4.6289,-4.6289,-4.6289,-4.6289,-4.6289,-4.6289,-4.6289,-4.6289,-4.6289,-4.6289,-4.6289,-4.6289,-4.6289,-4.668,-4.6953,-4.7812,-4.8906,-4.9766,-5.0547,-5.1016,-5.1406,-5.1406,-5.168,-5.2461,-5.2911,-5.3286,-5.3224,-5.3042,-5.281,-5.2507,-5.2068,-5.1664,-5.1395,-5.101,-5.0702,-5.0356,-5.0664,-5.0818,-5.0587,-5.0548,-5.0664,-5.0856,-5.1164,-5.1395,-4.5333,-4.4635,-4.3828,-4.3497,-4.3497,-4.3497,-4.3497,-4.3497,-4.3497,-4.3497,-4.3497,-4.3497,-4.3497,-4.3497,-4.3497,-4.3497,-4.3605,-4.3931,-4.4878,-4.6588,-4.7276,-4.8609,-4.9832,-5.035,-5.0471,-5.0664,-5.0587,-5.0664,-5.0664,-5.0702,-5.0702,-5.0702,-5.0702,-5.0644,-5.0696,-5.0819,-5.0826,-5.0775,-5.0413,-5.0034,-4.9805,-4.873,-4.7766,-4.6797,-4.6641,-4.6484,-4.6367,-4.6289,-4.6289,-4.6289,-4.6289,-4.6289,-4.6289,-4.625,-4.6016,-4.5195,-4.4961,-4.4492,-4.3945,-4.3672,-4.3555,-4.3711,-4.3633,-4.3633,-4.3594,-4.375,-4.4219,-4.4687,-4.5195,-4.5586,-4.6211,-4.6289,-4.6289,-4.6289,-4.6289,-4.6289,-4.6289,-4.6289,-4.6289,-4.6289,-4.6289,-4.6289,-4.6289,-4.6328,-4.6875,-4.75,-4.8359,-4.9258,-5.0117,-5.0781,-5.1211,-5.1406,-5.1406,-5.2148,-5.2969,-5.4203,-5.4501,-5.4246,-5.4038,-5.3731,-5.3507,-5.2916,-5.2338,-5.1779,-5.1395,-5.1241,-5.1279,-5.1587,-5.151,-5.1087,-5.1202,-5.1625,-5.1741,-5.1741,-5.201,-4.4819,-4.4635,-4.3828,-4.3497,-4.3497,-4.3497,-4.3497,-4.3497,-4.3497,-4.3497,-4.3497,-4.3497,-4.3497,-4.3497,-4.3497,-4.3534,-4.3642,-4.4076,-4.5121,-4.6679,-4.7476,-4.8709,-5.0144,-5.0584,-5.0702,-5.0702,-5.0702,-5.0702,-5.0702,-5.0702,-5.0702,-5.0702,-5.0702,-5.0721,-5.0773,-5.0874,-5.097,-5.112,-5.0966,-5.0699,-5.0211,-4.9722,-4.8789,-4.7578,-4.7383,-4.7031,-4.6484,-4.6328,-4.6289,-4.6289,-4.6289,-4.6289,-4.6289,-4.6289,-4.6172,-4.5937,-4.543,-4.5,-4.4766,-4.418,-4.3828,-4.3711,-4.3867,-4.3828,-4.3945,-4.4375,-4.4883,-4.5117,-4.5664,-4.6133,-4.625,-4.6289,-4.6289,-4.6289,-4.6289,-4.6289,-4.6289,-4.6289,-4.6289,-4.6289,-4.6289,-4.6328,-4.6328,-4.6523,-4.7148,-4.7812,-4.8672,-4.9531,-5.0351,-5.0898,-5.1289,-5.1406,-5.1406,-5.2461,-5.3555,-5.5039,-5.5879,-5.5472,-5.5151,-5.4638,-5.4259,-5.3572,-5.2992,-5.2856,-5.2626,-5.2472,-5.2549,-5.251,-5.2433,-5.2202,-5.2433,-5.2664,-5.2626,-5.2587,-5.3164,-4.4452,-4.4048,-4.3644,-4.3497,-4.3497,-4.3497,-4.3497,-4.3497,-4.3497,-4.3497,-4.3497,-4.3497,-4.3497,-4.3497,-4.3497,-4.3534,-4.3787,-4.4438,-4.5543,-4.6871,-4.7876,-4.8968,-5.032,-5.0584,-5.0682,-5.0702,-5.0702,-5.0702,-5.0702,-5.0702,-5.0741,-5.0702,-5.0702,-5.0741,-5.0758,-5.0841,-5.0956,-5.112,-5.1187,-5.1107,-5.0732,-5.0469,-4.9453,-4.8672,-4.8203,-4.7812,-4.7187,-4.6953,-4.6719,-4.6406,-4.6289,-4.6289,-4.6289,-4.6289,-4.6289,-4.6211,-4.5898,-4.5664,-4.5664,-4.5234,-4.5117,-4.5078,-4.5,-4.5039,-4.5117,-4.5469,-4.5586,-4.5742,-4.5898,-4.6289,-4.6289,-4.6289,-4.6289,-4.6289,-4.6289,-4.6289,-4.6289,-4.6289,-4.6289,-4.6289,-4.6367,-4.6406,-4.6406,-4.6758,-4.7383,-4.8164,-4.9023,-4.9805,-5.0586,-5.1016,-5.1406,-5.1758,-5.1914,-5.2969,-5.4101,-5.539,-5.6419,-5.6251,-5.5979,-5.5428,-5.5127,-5.4516,-5.4475,-5.4511,-5.4241,-5.3587,-5.3203,-5.2972,-5.3126,-5.328,-5.3203,-5.3203,-5.328,-5.3549,-5.4049,-4.4085,-4.3497,-4.3497,-4.3497,-4.3497,-4.3497,-4.3497,-4.3497,-4.3497,-4.3497,-4.3497,-4.3497,-4.3497,-4.3497,-4.3569,-4.3642,-4.3934,-4.5016,-4.6076,-4.7391,-4.835,-4.9439,-5.027,-5.0584,-5.0702,-5.0702,-5.0702,-5.0702,-5.0741,-5.0933,-5.0971,-5.1029,-5.0991,-5.0952,-5.1068,-5.0962,-5.1044,-5.1086,-5.1178,-5.1274,-5.1201,-5.0781,-5.0039,-4.9258,-4.9141,-4.875,-4.7969,-4.7851,-4.7422,-4.6914,-4.6601,-4.6523,-4.6328,-4.6289,-4.6289,-4.6289,-4.6289,-4.6289,-4.625,-4.6211,-4.6016,-4.5976,-4.6211,-4.625,-4.6211,-4.6094,-4.6211,-4.6289,-4.6289,-4.6289,-4.6289,-4.6289,-4.6289,-4.6289,-4.6289,-4.6289,-4.6289,-4.6289,-4.6289,-4.6328,-4.6406,-4.668,-4.6875,-4.707,-4.7734,-4.8789,-4.9648,-5.0195,-5.0898,-5.1133,-5.1523,-5.2109,-5.2695,-5.3633,-5.4609,-5.5547,-5.629,-5.6339,-5.6149,-5.58,-5.5706,-5.5557,-5.5535,-5.5318,-5.4895,-5.4241,-5.3818,-5.3703,-5.4087,-5.4203,-5.3857,-5.3857,-5.4241,-5.4434,-5.478,-4.3538,-4.3497,-4.3497,-4.3497,-4.3497,-4.3497,-4.3497,-4.3497,-4.3497,-4.3497,-4.3497,-4.3497,-4.3497,-4.3532,-4.3529,-4.4076,-4.477,-4.5453,-4.6577,-4.8071,-4.8859,-4.9656,-5.0486,-5.0663,-5.0702,-5.0702,-5.0702,-5.0702,-5.0894,-5.1433,-5.1761,-5.1722,-5.1761,-5.1742,-5.1588,-5.1275,-5.096,-5.1113,-5.1161,-5.1269,-5.1364,-5.125,-5.0742,-5.0273,-5.0,-4.9648,-4.8867,-4.8711,-4.832,-4.7578,-4.7422,-4.707,-4.6484,-4.6289,-4.6289,-4.6289,-4.6289,-4.6289,-4.6289,-4.6289,-4.6289,-4.6289,-4.6289,-4.6289,-4.6289,-4.6289,-4.6289,-4.6289,-4.6289,-4.6289,-4.6289,-4.6289,-4.6289,-4.6289,-4.6289,-4.6289,-4.6289,-4.6328,-4.6328,-4.668,-4.6875,-4.7305,-4.7656,-4.7812,-4.8125,-4.9258,-5.0234,-5.0742,-5.1172,-5.1445,-5.1484,-5.1992,-5.3203,-5.4219,-5.4792,-5.5747,-5.6191,-5.6375,-5.6226,-5.6056,-5.5938,-5.5808,-5.5766,-5.5472,-5.5126,-5.5049,-5.4857,-5.4895,-5.5241,-5.5126,-5.478,-5.5011,-5.5434,-5.5549,-5.5395,-4.3178,-4.3465,-4.3497,-4.3497,-4.3497,-4.3497,-4.3497,-4.3497,-4.3497,-4.3497,-4.3497,-4.3497,-4.3497,-4.3532,-4.3529,-4.4143,-4.5127,-4.5964,-4.7108,-4.8571,-4.9388,-5.0064,-5.0469,-5.0682,-5.0702,-5.0702,-5.0741,-5.1048,-5.1318,-5.1741,-5.2049,-5.2607,-5.2607,-5.2299,-5.2088,-5.172,-5.1393,-5.1218,-5.1161,-5.1279,-5.1359,-5.1367,-5.1211,-5.0898,-5.0859,-5.0391,-4.9844,-4.9609,-4.918,-4.8437,-4.7969,-4.7461,-4.6992,-4.6641,-4.6289,-4.6289,-4.6289,-4.6289,-4.6289,-4.6289,-4.6289,-4.6289,-4.6289,-4.6289,-4.6289,-4.6289,-4.6289,-4.6289,-4.6289,-4.6289,-4.6289,-4.6289,-4.6289,-4.6289,-4.6289,-4.6282,-4.6323,-4.6325,-4.6445,-4.6914,-4.7421,-4.7925,-4.851,-4.8984,-4.918,-4.9766,-5.0586,-5.1016,-5.1523,-5.1914,-5.1875,-5.1758,-5.3242,-5.4805,-5.5162,-5.5762,-5.6191,-5.6341,-5.6146,-5.6024,-5.5921,-5.5808,-5.5745,-5.5703,-5.5472,-5.5511,-5.5703,-5.5626,-5.5511,-5.5588,-5.5665,-5.5703,-5.5703,-5.5665,-5.5549,-4.2844,-4.3214,-4.3391,-4.3461,-4.3463,-4.3497,-4.3497,-4.3497,-4.3497,-4.3497,-4.3497,-4.3497,-4.3497,-4.3605,-4.3892,-4.4617,-4.556,-4.6722,-4.7909,-4.9037,-4.9854,-5.0394,-5.0586,-5.0664,-5.0702,-5.0702,-5.1048,-5.151,-5.2087,-5.2549,-5.3049,-5.351,-5.351,-5.3049,-5.2454,-5.2046,-5.1702,-5.1127,-5.1226,-5.1362,-5.1396,-5.1405,-5.1406,-5.1367,-5.1328,-5.1094,-5.0625,-5.0508,-5.0078,-4.9297,-4.8437,-4.793,-4.75,-4.6758,-4.6328,-4.6289,-4.6289,-4.6289,-4.6289,-4.6289,-4.6289,-4.6289,-4.6289,-4.6289,-4.6289,-4.6289,-4.6289,-4.6289,-4.6289,-4.6289,-4.6289,-4.6289,-4.6289,-4.6289,-4.628,-4.6306,-4.6296,-4.6306,-4.6622,-4.7207,-4.7871,-4.8724,-4.9348,-5.01,-5.043,-5.0547,-5.0937,-5.1328,-5.1758,-5.2226,-5.2422,-5.2273,-5.363,-5.5187,-5.5672,-5.5981,-5.6319,-5.6382,-5.6218,-5.6029,-5.5943,-5.5807,-5.5724,-5.5703,-5.5703,-5.5703,-5.5703,-5.5703,-5.5703,-5.5703,-5.5703,-5.5703,-5.5703,-5.5703,-5.5703,-4.2414,-4.2727,-4.3178,-4.3391,-4.3429,-4.3463,-4.3497,-4.3497,-4.3497,-4.3497,-4.3497,-4.3497,-4.3497,-4.3716,-4.4478,-4.5386,-4.655,-4.7772,-4.8802,-4.9694,-5.0374,-5.0529,-5.0664,-5.0702,-5.0702,-5.0818,-5.1279,-5.2125,-5.301,-5.3433,-5.3993,-5.4377,-5.4182,-5.3759,-5.3012,-5.2239,-5.1741,-5.1264,-5.1289,-5.1357,-5.1394,-5.1406,-5.1406,-5.1406,-5.1406,-5.1367,-5.1289,-5.1211,-5.0898,-5.0078,-4.9297,-4.8437,-4.7851,-4.6992,-4.6562,-4.6328,-4.6289,-4.6289,-4.6289,-4.6289,-4.6289,-4.6289,-4.6289,-4.6289,-4.6289,-4.6289,-4.6289,-4.6289,-4.6289,-4.6312,-4.6312,-4.6315,-4.628,-4.6315,-4.63,-4.6284,-4.627,-4.6226,-4.6587,-4.7406,-4.822,-4.9028,-4.9907,-5.0582,-5.084,-5.0941,-5.1042,-5.1433,-5.1938,-5.2422,-5.2891,-5.3269,-5.4384,-5.5496,-5.6199,-5.6534,-5.664,-5.6703,-5.6659,-5.6307,-5.6039,-5.592,-5.6011,-5.5703,-5.5703,-5.5703,-5.5703,-5.5703,-5.5703,-5.5703,-5.5703,-5.5703,-5.5703,-5.5703,-5.5703,-4.1839,-4.2092,-4.2662,-4.3105,-4.3394,-4.3463,-4.3497,-4.3497,-4.3497,-4.3497,-4.3497,-4.3497,-4.3754,-4.4301,-4.477,-4.5904,-4.7293,-4.8016,-4.911,-4.9908,-5.0412,-5.0587,-5.0664,-5.0702,-5.0702,-5.0856,-5.151,-5.2356,-5.3164,-5.3626,-5.4087,-5.4297,-5.4374,-5.3951,-5.3166,-5.2099,-5.1463,-5.1336,-5.1281,-5.1347,-5.1394,-5.1406,-5.1406,-5.1406,-5.1406,-5.1406,-5.1367,-5.1406,-5.1211,-5.082,-5.0078,-4.9219,-4.8359,-4.75,-4.6836,-4.6367,-4.6289,-4.6289,-4.6289,-4.6289,-4.6289,-4.6289,-4.6289,-4.6289,-4.6289,-4.6289,-4.6289,-4.6289,-4.6278,-4.63,-4.6303,-4.6296,-4.6292,-4.6288,-4.6275,-4.6248,-4.6268,-4.6222,-4.6878,-4.7813,-4.8507,-4.9192,-5.0101,-5.0977,-5.1139,-5.1257,-5.1341,-5.1562,-5.2182,-5.2835,-5.3403,-5.3969,-5.4999,-5.5598,-5.63,-5.6613,-5.6911,-5.6978,-5.7056,-5.6908,-5.6673,-5.6554,-5.6549,-5.6126,-5.578,-5.5857,-5.5857,-5.5742,-5.5703,-5.5703,-5.5703,-5.5703,-5.5703,-5.5703,-5.578,-4.1391,-4.1622,-4.2226,-4.277,-4.3178,-4.3391,-4.3497,-4.3463,-4.3497,-4.3497,-4.3497,-4.3497,-4.3938,-4.4632,-4.5284,-4.6271,-4.7661,-4.8534,-4.9337,-5.0023,-5.045,-5.0587,-5.0664,-5.0702,-5.0702,-5.0894,-5.1471,-5.2318,-5.2702,-5.3049,-5.351,-5.3836,-5.3836,-5.328,-5.2742,-5.1757,-5.1088,-5.119,-5.132,-5.1336,-5.1391,-5.1406,-5.1406,-5.1406,-5.1406,-5.1406,-5.1406,-5.1406,-5.1406,-5.1094,-5.0547,-4.9766,-4.8906,-4.8086,-4.7226,-4.6641,-4.6289,-4.6328,-4.6289,-4.6289,-4.6289,-4.6289,-4.6289,-4.6289,-4.6289,-4.6288,-4.6289,-4.6289,-4.6267,-4.6249,-4.6288,-4.627,-4.6259,-4.6254,-4.619,-4.6201,-4.6286,-4.6385,-4.731,-4.8244,-4.8886,-4.9554,-5.0414,-5.1321,-5.168,-5.1794,-5.1873,-5.2253,-5.2941,-5.3549,-5.4177,-5.4782,-5.5463,-5.5908,-5.6263,-5.6717,-5.7133,-5.7246,-5.7371,-5.7698,-5.7576,-5.7456,-5.7319,-5.7088,-5.6742,-5.6242,-5.6165,-5.628,-5.6049,-5.5703,-5.578,-5.5895,-5.5703,-5.5742,-5.5972,-4.1071,-4.129,-4.1921,-4.2358,-4.2732,-4.3213,-4.3426,-4.3429,-4.3463,-4.3497,-4.3497,-4.3497,-4.3938,-4.4779,-4.5614,-4.6749,-4.7924,-4.9102,-4.989,-5.0243,-5.0509,-5.0625,-5.0664,-5.0702,-5.0702,-5.0894,-5.1356,-5.1759,-5.2049,-5.2664,-5.3087,-5.2954,-5.2627,-5.2203,-5.1983,-5.1411,-5.1136,-5.119,-5.1335,-5.1391,-5.1382,-5.1406,-5.1406,-5.1406,-5.1406,-5.1406,-5.1406,-5.1406,-5.1406,-5.125,-5.0781,-5.0,-4.9141,-4.8398,-4.75,-4.6601,-4.6445,-4.6367,-4.6289,-4.6289,-4.6289,-4.6289,-4.6289,-4.6289,-4.6289,-4.6282,-4.6303,-4.6264,-4.6236,-4.6215,-4.6203,-4.6196,-4.6183,-4.6162,-4.6091,-4.6095,-4.6212,-4.6596,-4.7439,-4.832,-4.9175,-5.0001,-5.085,-5.1625,-5.2133,-5.2382,-5.2466,-5.2913,-5.3633,-5.4108,-5.4657,-5.5216,-5.5786,-5.6135,-5.6519,-5.7001,-5.7345,-5.7486,-5.7872,-5.8406,-5.8517,-5.8303,-5.8165,-5.8011,-5.7588,-5.7049,-5.6973,-5.6973,-5.678,-5.6588,-5.6203,-5.6126,-5.5895,-5.5972,-5.6511,-4.0185,-4.0776,-4.1406,-4.1824,-4.2133,-4.2921,-4.3322,-4.3429,-4.3463,-4.3497,-4.3497,-4.3497,-4.3938,-4.4851,-4.5762,-4.682,-4.7961,-4.9214,-4.9993,-5.0294,-5.0452,-5.0625,-5.0664,-5.0702,-5.0702,-5.0741,-5.1067,-5.149,-5.1972,-5.2241,-5.2298,-5.2164,-5.1752,-5.133,-5.1308,-5.1125,-5.1141,-5.1269,-5.1356,-5.141,-5.1379,-5.1406,-5.1406,-5.1406,-5.1406,-5.1406,-5.1406,-5.1406,-5.1406,-5.1406,-5.0937,-5.0508,-4.9844,-4.918,-4.8555,-4.7539,-4.7148,-4.6836,-4.6523,-4.6289,-4.6289,-4.6289,-4.6284,-4.6278,-4.6315,-4.6309,-4.6288,-4.6259,-4.6183,-4.6162,-4.6138,-4.6083,-4.6074,-4.6065,-4.6027,-4.5964,-4.6111,-4.6668,-4.74,-4.8198,-4.9073,-5.0317,-5.131,-5.2022,-5.2536,-5.3188,-5.3402,-5.3728,-5.4349,-5.4555,-5.4939,-5.5467,-5.5978,-5.6333,-5.6764,-5.733,-5.8066,-5.849,-5.9044,-5.9672,-5.955,-5.9165,-5.8858,-5.8627,-5.8242,-5.7857,-5.7857,-5.7819,-5.778,-5.755,-5.7434,-5.7203,-5.7088,-5.728,-5.7627,-3.9521,-4.0144,-4.0961,-4.1499,-4.1796,-4.2696,-4.325,-4.3393,-4.3463,-4.3497,-4.3497,-4.3497,-4.3938,-4.4777,-4.5537,-4.6453,-4.7559,-4.8503,-4.9451,-4.9777,-5.0067,-5.0356,-5.0587,-5.0702,-5.0702,-5.0702,-5.0741,-5.1029,-5.1376,-5.1453,-5.151,-5.1452,-5.1189,-5.1125,-5.1102,-5.1162,-5.122,-5.1312,-5.1375,-5.1382,-5.1396,-5.1406,-5.1406,-5.1406,-5.1406,-5.1406,-5.1406,-5.1406,-5.1406,-5.1406,-5.1289,-5.1016,-5.0469,-5.0039,-4.9453,-4.8476,-4.7656,-4.7187,-4.6523,-4.6289,-4.6289,-4.6289,-4.6292,-4.6279,-4.6275,-4.6265,-4.6203,-4.6162,-4.6113,-4.6085,-4.6027,-4.5968,-4.5936,-4.5914,-4.5917,-4.5854,-4.6419,-4.7001,-4.7742,-4.8536,-4.9406,-5.0642,-5.1722,-5.2358,-5.2974,-5.3687,-5.438,-5.4684,-5.5001,-5.51,-5.52,-5.5608,-5.6054,-5.6384,-5.6965,-5.7679,-5.8487,-5.9447,-5.998,-6.0435,-6.0396,-5.9935,-5.9588,-5.9242,-5.8973,-5.8781,-5.8742,-5.8704,-5.8742,-5.8934,-5.9165,-5.8896,-5.8473,-5.8434,-5.855,-3.9166,-3.9384,-4.0638,-4.1302,-4.1701,-4.2546,-4.314,-4.3461,-4.3497,-4.3497,-4.3497,-4.3497,-4.3864,-4.4559,-4.5049,-4.5778,-4.6739,-4.7485,-4.8353,-4.9022,-4.9509,-5.0029,-5.0471,-5.0702,-5.0702,-5.0702,-5.0702,-5.076,-5.076,-5.0932,-5.0991,-5.1005,-5.1024,-5.1055,-5.1187,-5.1273,-5.1312,-5.1374,-5.1386,-5.1389,-5.1403,-5.1406,-5.1406,-5.1406,-5.1406,-5.1406,-5.1406,-5.1406,-5.1406,-5.1406,-5.1367,-5.0937,-5.0547,-5.0273,-4.9687,-4.8984,-4.8164,-4.7226,-4.668,-4.6523,-4.6292,-4.6265,-4.6274,-4.6261,-4.6215,-4.6208,-4.6138,-4.6056,-4.5997,-4.5975,-4.5902,-4.5841,-4.5827,-4.58,-4.5824,-4.6205,-4.6854,-4.7576,-4.8351,-4.9124,-4.9971,-5.1029,-5.203,-5.2723,-5.3282,-5.4321,-5.4978,-5.519,-5.5422,-5.5537,-5.5595,-5.5596,-5.6059,-5.6406,-5.7061,-5.7944,-5.8886,-5.9788,-6.0288,-6.0666,-6.0666,-6.0627,-6.0281,-5.9973,-5.9781,-5.9665,-5.9588,-5.9665,-5.9819,-6.005,-6.0127,-5.9935,-5.9319,-5.905,-5.9088,-3.8106,-3.9103,-3.9822,-4.0595,-4.1401,-4.2426,-4.3142,-4.3461,-4.3497,-4.3497,-4.3497,-4.3497,-4.3716,-4.3968,-4.4786,-4.5472,-4.6178,-4.707,-4.8147,-4.8771,-4.9125,-4.9875,-5.0394,-5.0664,-5.0664,-5.0702,-5.0683,-5.0702,-5.074,-5.0776,-5.0871,-5.0979,-5.1047,-5.1156,-5.1252,-5.1347,-5.1362,-5.1395,-5.1396,-5.1394,-5.1406,-5.1406,-5.1406,-5.1406,-5.1406,-5.1406,-5.1406,-5.1406,-5.1406,-5.1406,-5.1406,-5.1172,-5.1133,-5.1016,-5.0664,-4.9805,-4.8594,-4.7422,-4.7174,-4.667,-4.6281,-4.6261,-4.6193,-4.6216,-4.6169,-4.6113,-4.6027,-4.5975,-4.5905,-4.5867,-4.5827,-4.5771,-4.5727,-4.5712,-4.5889,-4.6397,-4.708,-4.791,-4.8682,-4.9452,-5.0279,-5.1279,-5.2279,-5.2856,-5.3492,-5.4741,-5.5532,-5.5647,-5.5745,-5.5787,-5.5807,-5.5787,-5.5979,-5.6326,-5.7307,-5.8226,-5.9188,-6.0111,-6.0512,-6.0781,-6.0742,-6.0742,-6.0781,-6.0627,-6.0319,-6.0319,-6.0435,-6.0473,-6.0358,-6.0512,-6.055,-6.0396,-6.0204,-5.9896,-5.9742,-3.7313,-3.8173,-3.8887,-3.9928,-4.118,-4.2031,-4.2778,-4.3391,-4.3497,-4.3497,-4.3497,-4.3497,-4.3566,-4.3708,-4.4341,-4.4861,-4.5252,-4.6016,-4.6991,-4.7854,-4.8702,-4.9375,-4.9933,-5.051,-5.0664,-5.0702,-5.0721,-5.0702,-5.0776,-5.0885,-5.0996,-5.1076,-5.1152,-5.1232,-5.1318,-5.1367,-5.1396,-5.1401,-5.1379,-5.1406,-5.1406,-5.1406,-5.1406,-5.1406,-5.1406,-5.1406,-5.1406,-5.1406,-5.1406,-5.1406,-5.1406,-5.1406,-5.1367,-5.1328,-5.0976,-5.0156,-4.9453,-4.8309,-4.767,-4.7128,-4.6625,-4.6279,-4.6113,-4.6076,-4.6046,-4.6014,-4.5929,-4.588,-4.58,-4.5765,-4.5735,-4.5703,-4.5687,-4.5671,-4.6116,-4.6562,-4.7353,-4.8143,-4.8894,-4.9625,-5.0548,-5.1548,-5.2318,-5.2895,-5.3703,-5.4934,-5.5588,-5.5626,-5.5724,-5.5745,-5.5745,-5.5745,-5.5955,-5.6263,-5.7357,-5.8473,-5.9319,-6.0089,-6.0589,-6.0781,-6.0781,-6.0781,-6.0781,-6.0781,-6.0742,-6.0742,-6.0704,-6.0742,-6.0704,-6.0781,-6.0781,-6.0666,-6.055,-6.0512,-6.0473,-3.6637,-3.6818,-3.798,-3.9417,-4.0931,-4.1501,-4.2305,-4.3284,-4.3391,-4.3497,-4.3497,-4.3497,-4.3529,-4.3667,-4.4045,-4.4319,-4.4721,-4.5281,-4.6092,-4.6647,-4.7607,-4.8567,-4.9567,-5.0164,-5.0433,-5.0587,-5.0683,-5.0721,-5.0829,-5.0951,-5.1121,-5.1205,-5.1269,-5.1341,-5.1382,-5.1379,-5.1375,-5.1389,-5.1406,-5.1406,-5.1406,-5.1406,-5.1406,-5.1406,-5.1406,-5.1406,-5.1406,-5.1406,-5.1406,-5.1406,-5.1406,-5.1406,-5.1406,-5.1367,-5.0937,-5.0523,-5.0044,-4.9254,-4.8304,-4.7639,-4.6964,-4.6493,-4.6085,-4.598,-4.5905,-4.5867,-4.5827,-4.5771,-4.5735,-4.5703,-4.5671,-4.5654,-4.5637,-4.583,-4.6236,-4.6873,-4.7681,-4.8625,-4.9625,-5.0202,-5.051,-5.1548,-5.2664,-5.3241,-5.3857,-5.5126,-5.5703,-5.5703,-5.5703,-5.5703,-5.5742,-5.578,-5.6165,-5.6626,-5.7627,-5.8665,-5.9396,-6.005,-6.0589,-6.0781,-6.0781,-6.0781,-6.0781,-6.0781,-6.0781,-6.0781,-6.0781,-6.0781,-6.0781,-6.0781,-6.0781,-6.0781,-6.0781,-6.0781,-6.0757,-3.5385,-3.6073,-3.7909,-3.9266,-4.0174,-4.1097,-4.1759,-4.234,-4.3138,-4.3428,-4.3497,-4.3532,-4.36,-4.3734,-4.3892,-4.4199,-4.4605,-4.4953,-4.5734,-4.6375,-4.7108,-4.7952,-4.9144,-4.9702,-5.0125,-5.051,-5.0702,-5.0776,-5.0897,-5.1044,-5.114,-5.1258,-5.1349,-5.1379,-5.14,-5.1394,-5.1391,-5.1402,-5.1406,-5.1406,-5.1406,-5.1406,-5.1406,-5.1406,-5.1406,-5.1406,-5.1406,-5.1406,-5.1406,-5.1406,-5.1406,-5.1406,-5.1406,-5.1406,-5.1293,-5.105,-5.053,-4.9861,-4.9177,-4.828,-4.7437,-4.684,-4.6383,-4.5996,-4.581,-4.5742,-4.575,-4.5703,-4.5654,-4.5637,-4.568,-4.568,-4.5778,-4.6086,-4.6509,-4.7317,-4.8125,-4.9202,-5.0356,-5.0548,-5.0664,-5.1548,-5.2702,-5.3549,-5.4241,-5.4857,-5.5472,-5.5703,-5.5703,-5.5703,-5.5857,-5.5972,-5.6511,-5.7126,-5.8127,-5.8858,-5.9588,-6.0165,-6.0704,-6.0781,-6.0781,-6.0781,-6.0781,-6.0781,-6.0781,-6.0781,-6.0781,-6.0781,-6.0781,-6.0781,-6.0781,-6.0781,-6.0757,-6.0734,-6.0734,-3.4438,-3.5294,-3.6947,-3.8196,-3.9115,-4.0256,-4.1139,-4.1905,-4.2886,-4.3358,-4.3463,-4.3497,-4.36,-4.3734,-4.3897,-4.417,-4.4578,-4.489,-4.5384,-4.599,-4.6685,-4.7317,-4.8259,-4.9336,-4.9779,-5.026,-5.0681,-5.0846,-5.0975,-5.1075,-5.1214,-5.1295,-5.1362,-5.1367,-5.1367,-5.1367,-5.1367,-5.1406,-5.1367,-5.1406,-5.1406,-5.1406,-5.1406,-5.1406,-5.1406,-5.1406,-5.1406,-5.1406,-5.1406,-5.1406,-5.1406,-5.1406,-5.1406,-5.1406,-5.1396,-5.1239,-5.0891,-5.0421,-4.98,-4.9049,-4.7998,-4.7366,-4.6795,-4.6422,-4.5773,-4.5703,-4.5671,-4.562,-4.562,-4.5603,-4.618,-4.6355,-4.6701,-4.7048,-4.7778,-4.8625,-4.9279,-5.0048,-5.0548,-5.0625,-5.0894,-5.151,-5.251,-5.3203,-5.401,-5.5164,-5.5665,-5.5703,-5.5703,-5.5818,-5.5934,-5.628,-5.6857,-5.7703,-5.8742,-5.9319,-5.9742,-6.0281,-6.0781,-6.0781,-6.0781,-6.0781,-6.0781,-6.0781,-6.0781,-6.0781,-6.0781,-6.0781,-6.0781,-6.0781,-6.0781,-6.0781,-6.0772,-6.0724,-6.07,-3.3761,-3.4626,-3.5702,-3.6804,-3.7942,-3.9128,-4.03,-4.143,-4.2523,-4.3141,-4.3394,-4.3463,-4.3529,-4.3667,-4.3832,-4.414,-4.443,-4.4738,-4.5147,-4.5566,-4.6185,-4.6778,-4.7776,-4.897,-4.9528,-5.0066,-5.0563,-5.0819,-5.0981,-5.1114,-5.1219,-5.1264,-5.125,-5.1211,-5.125,-5.1211,-5.1133,-5.1172,-5.1211,-5.1367,-5.1406,-5.1406,-5.1406,-5.1406,-5.1406,-5.1406,-5.1406,-5.1406,-5.1406,-5.1406,-5.1394,-5.1379,-5.1367,-5.1391,-5.1369,-5.1281,-5.1191,-5.0713,-5.0204,-4.9744,-4.8734,-4.7913,-4.7372,-4.6728,-4.6078,-4.5868,-4.5834,-4.5834,-4.5817,-4.6047,-4.6624,-4.7124,-4.7548,-4.7971,-4.8817,-4.9586,-5.0164,-5.0625,-5.0664,-5.0702,-5.1202,-5.1702,-5.2433,-5.3126,-5.4049,-5.5241,-5.5703,-5.5703,-5.5742,-5.5934,-5.6126,-5.6703,-5.7357,-5.8319,-5.9281,-5.9819,-6.0127,-6.0396,-6.0781,-6.0781,-6.0781,-6.0781,-6.0781,-6.0781,-6.0781,-6.0819,-6.0781,-6.0781,-6.0781,-6.0896,-6.0757,-6.0772,-6.0776,-6.0738,-6.0693,-3.3246,-3.4678,-3.5042,-3.5808,-3.6852,-3.8003,-3.91,-4.03,-4.1505,-4.2414,-4.3068,-4.3428,-4.3532,-4.3634,-4.38,-4.4048,-4.4279,-4.4632,-4.4924,-4.5316,-4.5649,-4.6183,-4.7006,-4.8259,-4.9279,-5.0028,-5.0601,-5.0835,-5.0995,-5.1127,-5.1269,-5.1352,-5.0615,-5.0508,-5.0508,-5.0547,-5.0703,-5.0859,-5.1172,-5.1406,-5.1406,-5.1406,-5.1406,-5.1406,-5.1406,-5.1406,-5.1406,-5.1406,-5.1406,-5.1406,-5.1375,-5.1386,-5.1362,-5.1328,-5.1287,-5.1211,-5.1147,-5.0972,-5.0519,-5.01,-4.9196,-4.8767,-4.812,-4.7157,-4.6775,-4.6681,-4.6663,-4.6663,-4.6701,-4.6817,-4.7278,-4.774,-4.8163,-4.8471,-4.9086,-4.9779,-5.0433,-5.0625,-5.0702,-5.101,-5.1395,-5.2125,-5.301,-5.3741,-5.4472,-5.5357,-5.5665,-5.5703,-5.5703,-5.5972,-5.6242,-5.7088,-5.7819,-5.855,-5.9358,-6.0165,-6.055,-6.0742,-6.0781,-6.0781,-6.0781,-6.0781,-6.0781,-6.0781,-6.0819,-6.0819,-6.0819,-6.1089,-6.1127,-6.118,-6.0849,-6.0724,-6.0815,-6.0922,-6.1065]}]]